[[{"header":{"parameterUnit":"m.s-1","parameterCategory":1,"la1":31.0,"la2":29.5877,"lo1":-88.7671,"lo2":-86.6584,"dy":0.0162,"dx":0.0185,"nx":115,"ny":88,"refTime":"2023-05-28T00:00:00:Z","depth":0,"parameterNumber":2,"parameterNumberName":"U-component_of_WINDS"},"data":[0.0,0.0,0.0,0.0,0.0,0.0,0.0,0.0,0.0,0.0,0.0,0.0,0.0,0.0,0.0,0.0,0.0,0.0,0.0,0.0,0.0,0.0,0.0,0.0,0.0,0.0,0.0,0.0,0.0,0.0,0.0,0.0,0.0,0.0,0.0,0.0,0.0,0.0,0.0,0.0,0.0,0.0,0.0,0.0,0.0,0.0,0.0,0.0,0.0,0.0,0.0,0.0,0.0,0.0,0.0,0.0,0.0,0.0,0.0,0.0,0.0,0.0,0.0,0.0,0.0,0.0,0.0,0.0,0.0,0.0,0.0,0.0,0.0,0.0,0.0,0.0,0.0,0.0,0.0,0.0,0.0,0.0,0.0,0.0,0.0,0.0,0.0,0.0,0.0,0.0,0.0,0.0,0.0,0.0,0.0,0.0,0.0,0.0,0.0,0.0,0.0,0.0,0.0,0.0,0.0,0.0,0.0,0.0,0.0,0.0,0.0,0.0,0.0,0.0,0.0,0.0,0.0,0.0,0.0,0.0,0.0,0.0,0.0,0.0,0.0,0.0,0.0,0.0,0.0,0.0,0.0,0.0,0.0,0.0,0.0,0.0,0.0,0.0,0.0,0.0,0.0,0.0,0.0,0.0,0.0,0.0,0.0,0.0,0.0,0.0,0.0,0.0,0.0,0.0,0.0,0.0,0.0,0.0,0.0,0.0,0.0,0.0,0.0,0.0,0.0,0.0,0.0,0.0,0.0,0.0,0.0,0.0,0.0,0.0,0.0,0.0,0.0,0.0,0.0,0.0,0.0,0.0,0.0,0.0,0.0,0.0,0.0,0.0,0.0,0.0,0.0,0.0,0.0,0.0,0.0,0.0,0.0,0.0,0.0,0.0,0.0,0.0,0.0,0.0,0.0,0.0,0.0,0.0,0.0,0.0,0.0,0.0,0.0,0.0,0.0,0.0,0.0,0.0,0.0,0.0,0.0,0.0,0.0,0.0,0.0,0.0,0.0,0.0,0.0,0.0,0.0,0.0,0.0,0.0,0.0,0.0,0.0,0.0,0.0,0.0,0.0,0.0,0.0,0.0,0.0,0.0,0.0,0.0,0.0,0.0,0.0,0.0,0.0,0.0,0.0,0.0,0.0,0.0,0.0,0.0,0.0,0.0,0.0,0.0,0.0,0.0,0.0,0.0,0.0,0.0,0.0,0.0,0.0,0.0,0.0,0.0,0.0,0.0,0.0,0.0,0.0,0.0,0.0,0.0,0.0,0.0,0.0,0.0,0.0,0.0,0.0,0.0,0.0,0.0,0.0,0.0,0.0,0.0,0.0,0.0,0.0,0.0,0.0,0.0,0.0,0.0,0.0,0.0,0.0,0.0,0.0,0.0,0.0,0.0,0.0,0.0,0.0,0.0,0.0,0.0,0.0,0.0,0.0,0.0,0.0,0.0,0.0,0.0,0.0,0.0,0.0,0.0,0.0,0.0,0.0,0.0,0.0,0.0,0.0,0.0,0.0,0.0,0.0,0.0,0.0,0.0,0.0,0.0,0.0,0.0,0.0,0.0,0.0,0.0,0.0,0.0,0.0,0.0,0.0,0.0,0.0,0.0,0.0,0.0,0.0,0.0,0.0,0.0,0.0,0.0,0.0,0.0,0.0,0.0,0.0,0.0,0.0,0.0,0.0,0.0,0.0,0.0,0.0,0.0,0.0,0.0,0.0,0.0,0.0,0.0,0.0,0.0,0.0,0.0,0.0,0.0,0.0,0.0,0.0,0.0,0.0,0.0,0.0,0.0,0.0,0.0,0.0,0.0,0.0,0.0,0.0,0.0,0.0,0.0,0.0,0.0,0.0,0.0,0.0,0.0,0.0,0.0,0.0,0.0,0.0,0.0,0.0,0.0,0.0,0.0,0.0,0.0,0.0,0.0,0.0,0.0,0.0,0.0,0.0,0.0,0.0,0.0,0.0,0.0,0.0,0.0,0.0,0.0,0.0,0.0,0.0,0.0,0.0,0.0,0.0,0.0,0.0,0.0,0.0,0.0,0.0,0.0,0.0,0.0,0.0,0.0,0.0,0.0,0.0,0.0,0.0,0.0,0.0,0.0,0.0,0.0,0.0,0.0,0.0,0.0,0.0,0.0,0.0,0.0,0.0,0.0,0.0,0.0,0.0,0.0,0.0,0.0,0.0,0.0,0.0,0.0,0.0,0.0,0.0,0.0,0.0,0.0,0.0,0.0,0.0,0.0,0.0,0.0,0.0,0.0,0.0,0.0,0.0,0.0,0.0,0.0,0.0,0.0,0.0,0.0,0.0,0.0,0.0,0.0,0.0,0.0,0.0,0.0,0.0,0.0,0.0,0.0,0.0,0.0,0.0,0.0,0.0,0.0,0.0,0.0,0.0,0.0,0.0,0.0,0.0,0.0,0.0,0.0,0.0,0.0,0.0,0.0,0.0,0.0,0.0,0.0,0.0,0.0,0.0,0.0,0.0,0.0,0.0,0.0,0.0,0.0,0.0,0.0,0.0,0.0,0.0,0.0,0.0,0.0,0.0,0.0,0.0,0.0,0.0,0.0,0.0,0.0,0.0,0.0,0.0,0.0,0.0,0.0,0.0,0.0,0.0,0.0,0.0,0.0,0.0,0.0,0.0,0.0,0.0,0.0,0.0,0.0,0.0,0.0,0.0,0.0,0.0,0.0,0.0,0.0,0.0,0.0,0.0,0.0,0.0,0.0,0.0,0.0,0.0,0.0,0.0,0.0,0.0,0.0,0.0,0.0,0.0,0.0,0.0,0.0,0.0,0.0,0.0,0.0,0.0,0.0,0.0,0.0,0.0,0.0,0.0,0.0,0.0,0.0,0.0,0.0,0.0,0.0,0.0,0.0,0.0,0.0,0.0,0.0,0.0,0.0,0.0,0.0,0.0,0.0,0.0,0.0,0.0,0.0,0.0,0.0,0.0,0.0,0.0,0.0,0.0,0.0,0.0,0.0,0.0,0.0,0.0,0.0,0.0,0.0,0.0,0.0,0.0,0.0,0.0,0.0,0.0,0.0,0.0,0.0,0.0,0.0,0.0,0.0,0.0,0.0,0.0,0.0,0.0,0.0,0.0,0.0,0.0,0.0,0.0,0.0,0.0,0.0,0.0,0.0,0.0,0.0,0.0,0.0,0.0,0.0,0.0,0.0,0.0,0.0,0.0,0.0,0.0,0.0,0.0,0.0,0.0,0.0,0.0,0.0,0.0,0.0,0.0,0.0,0.0,0.0,0.0,0.0,0.0,0.0,0.0,0.0,0.0,0.0,0.0,0.0,0.0,0.0,0.0,0.0,0.0,0.0,0.0,0.0,0.0,0.0,0.0,0.0,0.0,0.0,0.0,0.0,0.0,0.0,0.0,0.0,0.0,0.0,0.0,0.0,0.0,0.0,0.0,0.0,0.0,0.0,0.0,0.0,0.0,0.0,0.0,0.0,0.0,0.0,0.0,0.0,0.0,0.0,0.0,0.0,0.0,0.0,0.0,0.0,0.0,0.0,0.0,0.0,0.0,0.0,0.0,0.0,0.0,0.0,0.0,0.0,0.0,0.0,0.0,0.0,0.0,0.0,0.0,0.0,0.0,0.0,0.0,0.0,0.0,0.0,0.0,0.0,0.0,0.0,0.0,0.0,0.0,0.0,0.0,0.0,0.0,0.0,0.0,0.0,0.0,0.0,0.0,0.0,0.0,0.0,0.0,0.0,0.0,0.0,0.0,0.0,0.0,0.0,0.0,0.0,0.0,0.0,0.0,0.0,0.0,0.0,0.0,0.0,0.0,0.0,0.0,0.0,0.0,0.0,0.0,0.0,0.0,0.0,0.0,0.0,0.0,0.0,0.0,0.0,0.0,0.0,0.0,0.0,0.0,0.0,0.0,0.0,0.0,0.0,0.0,0.0,0.0,0.0,0.0,0.0,0.0,0.0,0.0,0.0,0.0,0.0,0.0,0.0,0.0,0.0,0.0,0.0,0.0,0.0,0.0,0.0,0.0,0.0,0.0,0.0,0.0,0.0,0.0,0.0,0.0,0.0,0.0,0.0,0.0,0.0,0.0,0.0,0.0,0.0,0.0,0.0,0.0,0.0,0.0,0.0,0.0,0.0,0.0,0.0,0.0,0.0,0.0,0.0,0.0,0.0,0.0,0.0,0.0,0.0,0.0,0.0,0.0,0.0,0.0,0.0,0.0,0.0,0.0,0.0,0.0,0.0,0.0,0.0,0.0,0.0,0.0,0.0,0.0,0.0,0.0,0.0,1.542,0.0,0.0,0.0,0.0,0.0,0.0,0.0,0.0,0.0,0.0,0.0,0.0,0.0,0.0,0.0,0.0,0.0,0.0,0.0,0.0,0.0,0.0,0.0,0.0,0.0,0.0,0.0,0.0,0.0,0.0,0.0,0.0,0.0,0.0,0.0,0.0,0.0,0.0,0.0,0.0,0.0,0.0,0.0,0.0,0.0,0.0,0.0,0.0,0.0,0.0,0.0,0.0,0.0,0.0,0.0,0.0,0.0,0.0,0.0,0.0,0.0,0.0,0.0,0.0,0.0,0.0,0.0,0.0,0.0,0.0,0.0,0.0,0.0,0.0,0.0,0.0,0.0,0.0,0.0,0.0,0.0,0.0,0.0,0.0,0.0,0.0,0.0,0.0,0.0,0.0,0.0,0.0,0.0,0.0,0.0,0.0,0.0,0.0,0.0,0.0,0.0,0.0,0.0,0.0,0.0,0.0,0.0,0.0,0.0,0.0,1.542,1.542,1.542,1.542,1.542,0.0,0.0,0.0,0.0,0.0,0.0,0.0,0.0,0.0,0.0,0.0,0.0,0.0,0.0,0.0,0.0,0.0,0.0,0.0,0.0,0.0,0.0,0.0,0.0,0.0,0.0,0.0,0.0,0.0,0.0,0.0,0.0,0.0,0.0,0.0,0.0,0.0,0.0,0.0,0.0,0.0,0.0,0.0,0.0,0.0,0.0,0.0,0.0,0.0,0.0,0.0,0.0,0.0,0.0,0.0,0.0,0.0,0.0,0.0,0.0,0.0,0.0,0.0,0.0,0.0,0.0,0.0,0.0,0.0,0.0,0.0,0.0,0.0,0.0,0.0,0.0,0.0,0.0,0.0,0.0,0.0,0.0,0.0,0.0,0.0,0.0,0.0,0.0,0.0,0.0,0.0,0.0,0.0,0.0,0.0,0.0,0.0,0.0,0.0,0.0,0.0,0.0,0.0,0.0,0.0,0.0,0.0,0.0,0.0,0.0,0.0,0.0,1.542,1.542,1.542,0.0,0.0,0.0,0.0,0.0,0.0,0.0,0.0,0.0,0.0,0.0,0.0,0.0,0.0,0.0,0.0,0.0,0.0,0.0,0.0,0.0,0.0,0.0,0.0,0.0,0.0,0.0,0.0,0.0,0.0,0.0,0.0,0.0,0.0,0.0,0.0,0.0,0.0,0.0,0.0,0.0,0.0,0.0,0.0,0.0,0.0,0.0,0.0,0.0,0.0,0.0,0.0,0.0,0.0,0.0,0.0,0.0,0.0,0.0,0.0,0.0,0.0,0.0,0.0,0.0,0.0,0.0,0.0,0.0,0.0,0.0,0.0,0.0,0.0,0.0,0.0,0.0,0.0,0.0,0.0,0.0,0.0,0.0,0.0,0.0,0.0,0.0,0.0,0.0,0.0,0.0,0.0,0.0,0.0,0.0,0.0,0.0,0.0,0.0,0.0,0.0,0.0,0.0,0.0,0.0,0.0,0.0,0.0,0.0,0.0,1.542,1.542,1.542,0.0,1.5439,0.0,0.0,0.0,0.0,0.0,0.0,0.0,0.0,0.0,0.0,0.0,0.0,0.0,0.0,0.0,0.0,0.0,0.0,0.0,0.0,0.0,0.0,0.0,0.0,0.0,0.0,0.0,0.0,0.0,0.0,0.0,0.0,0.0,0.0,0.0,0.0,0.0,0.0,0.0,0.0,0.0,0.0,0.0,0.0,0.0,0.0,0.0,0.0,0.0,0.0,0.0,0.0,0.0,0.0,0.0,0.0,0.0,0.0,0.0,0.0,0.0,0.0,0.0,0.0,0.0,0.0,0.0,0.0,0.0,0.0,0.0,0.0,0.0,0.0,0.0,0.0,0.0,0.0,0.0,0.0,0.0,0.0,0.0,0.0,0.0,0.0,0.0,0.0,0.0,0.0,0.0,0.0,0.0,0.0,0.0,0.0,0.0,0.0,0.0,0.0,0.0,0.0,0.0,0.0,0.0,0.0,0.0,0.0,0.0,0.0,1.5527,1.5806,1.6039,1.6176,0.0,0.0,0.0,0.0,0.0,0.0,0.0,0.0,0.0,0.0,0.0,0.0,0.0,0.0,0.0,0.0,0.0,0.0,0.0,0.0,0.0,0.0,0.0,0.0,0.0,0.0,0.0,0.0,0.0,0.0,0.0,0.0,0.0,0.0,0.0,0.0,0.0,0.0,0.0,0.0,0.0,0.0,0.0,0.0,0.0,0.0,0.0,0.0,0.0,0.0,0.0,0.0,0.0,0.0,0.0,0.0,0.0,0.0,0.0,0.0,0.0,0.0,0.0,0.0,0.0,0.0,0.0,0.0,0.0,0.0,0.0,0.0,0.0,0.0,0.0,0.0,0.0,0.0,0.0,0.0,0.0,0.0,0.0,0.0,0.0,0.0,0.0,0.0,0.0,0.0,0.0,0.0,0.0,0.0,0.0,0.0,0.0,0.0,0.0,0.0,0.0,0.0,0.0,0.0,0.0,0.0,0.0,0.0,0.0,0.0,1.561,1.5806,1.6236,1.6547,1.6697,1.6697,0.0,0.0,0.0,0.0,0.0,0.0,0.0,0.0,0.0,0.0,0.0,0.0,0.0,0.0,0.0,0.0,0.0,0.0,0.0,0.0,0.0,0.0,0.0,0.0,0.0,0.0,0.0,0.0,0.0,0.0,0.0,0.0,0.0,0.0,0.0,0.0,0.0,0.0,0.0,0.0,0.0,0.0,0.0,0.0,0.0,0.0,0.0,0.0,0.0,0.0,0.0,0.0,0.0,0.0,0.0,0.0,0.0,0.0,0.0,0.0,0.0,0.0,0.0,0.0,0.0,0.0,0.0,0.0,0.0,0.0,0.0,0.0,0.0,0.0,0.0,0.0,0.0,0.0,0.0,0.0,0.0,0.0,0.0,0.0,0.0,0.0,0.0,0.0,0.0,0.0,0.0,0.0,0.0,0.0,0.0,0.0,0.0,0.0,0.0,0.0,0.0,0.0,0.0,0.0,0.0,0.0,0.0,0.0,1.6046,1.6075,1.625,1.6674,1.6697,1.6697,0.0,0.0,0.0,0.0,0.0,0.0,0.0,0.0,0.0,0.0,0.0,0.0,0.0,0.0,0.0,0.0,0.0,0.0,0.0,0.0,0.0,0.0,0.0,0.0,0.0,0.0,0.0,0.0,0.0,0.0,0.0,0.0,0.0,0.0,0.0,0.0,0.0,0.0,0.0,0.0,0.0,0.0,0.0,0.0,0.0,0.0,0.0,0.0,0.0,0.0,0.0,0.0,0.0,0.0,0.0,0.0,0.0,0.0,0.0,0.0,0.0,0.0,0.0,0.0,0.0,0.0,0.0,0.0,0.0,0.0,0.0,0.0,0.0,0.0,0.0,0.0,0.0,0.0,0.0,0.0,0.0,0.0,0.0,0.0,0.0,0.0,0.0,0.0,0.0,0.0,0.0,0.0,0.0,0.0,0.0,0.0,0.0,0.0,0.0,0.0,0.0,0.0,0.0,0.0,0.0,0.0,0.0,0.0,0.0,1.6475,1.6783,1.6998,1.7148,1.7412,1.7532,0.0,0.0,0.0,0.0,0.0,0.0,0.0,0.0,0.0,0.0,0.0,0.0,0.0,0.0,0.0,0.0,0.0,0.0,0.0,0.0,0.0,0.0,0.0,0.0,0.0,0.0,0.0,0.0,0.0,0.0,0.0,0.0,0.0,0.0,0.0,0.0,0.0,0.0,0.0,0.0,0.0,0.0,0.0,0.0,0.0,0.0,0.0,0.0,0.0,0.0,0.0,0.0,0.0,0.0,0.0,0.0,0.0,0.0,0.0,0.0,0.0,0.0,0.0,0.0,0.0,0.0,0.0,0.0,0.0,0.0,0.0,0.0,0.0,0.0,0.0,0.0,0.0,0.0,0.0,0.0,0.0,0.0,0.0,0.0,0.0,0.0,0.0,0.0,0.0,0.0,0.0,0.0,0.0,0.0,0.0,0.0,0.0,0.0,0.0,0.0,0.0,0.0,0.0,0.0,0.0,0.0,0.0,0.0,0.0,1.6918,0.0,1.7588,1.7614,1.7861,1.8008,0.0,0.0,0.0,0.0,0.0,0.0,0.0,0.0,0.0,0.0,0.0,0.0,0.0,0.0,0.0,0.0,0.0,0.0,0.0,0.0,0.0,0.0,0.0,0.0,0.0,0.0,0.0,0.0,0.0,0.0,0.0,0.0,0.0,0.0,0.0,0.0,0.0,0.0,0.0,0.0,0.0,0.0,0.0,0.0,0.0,0.0,0.0,0.0,0.0,0.0,0.0,0.0,0.0,0.0,0.0,0.0,0.0,0.0,0.0,0.0,0.0,0.0,0.0,0.0,0.0,0.0,0.0,0.0,0.0,0.0,0.0,0.0,0.0,0.0,0.0,0.0,0.0,0.0,0.0,0.0,0.0,0.0,0.0,0.0,0.0,0.0,0.0,0.0,0.0,0.0,0.0,0.0,0.0,0.0,0.0,0.0,0.0,0.0,0.0,0.0,0.0,0.0,0.0,0.0,0.0,0.0,0.0,0.0,1.6921,1.7373,1.7783,1.7978,1.8008,1.7998,1.8008,0.0,0.0,0.0,0.0,0.0,0.0,0.0,0.0,0.0,0.0,0.0,0.0,0.0,0.0,0.0,0.0,0.0,0.0,0.0,0.0,0.0,0.0,0.0,0.0,0.0,0.0,0.0,0.0,0.0,0.0,0.0,0.0,0.0,0.0,0.0,0.0,0.0,0.0,0.0,0.0,0.0,0.0,0.0,0.0,0.0,0.0,0.0,0.0,0.0,0.0,0.0,0.0,0.0,0.0,0.0,0.0,0.0,0.0,0.0,0.0,0.0,0.0,0.0,0.0,0.0,0.0,0.0,0.0,0.0,0.0,0.0,0.0,0.0,0.0,0.0,0.0,0.0,0.0,0.0,0.0,0.0,0.0,0.0,0.0,0.0,0.0,0.0,0.0,0.0,0.0,0.0,0.0,0.0,0.0,0.0,0.0,0.0,0.0,0.0,0.0,0.0,0.0,0.0,0.0,0.0,0.0,0.0,0.0,0.0,1.7812,1.7922,1.8008,1.8008,1.8008,1.8008,0.0,0.0,0.0,0.0,0.0,0.0,0.0,0.0,0.0,0.0,0.0,0.0,0.0,0.0,0.0,0.0,0.0,0.0,0.0,0.0,0.0,0.0,0.0,0.0,0.0,0.0,0.0,0.0,0.0,0.0,0.0,0.0,0.0,0.0,0.0,0.0,0.0,0.0,0.0,0.0,0.0,0.0,0.0,0.0,0.0,0.0,0.0,0.0,0.0,0.0,0.0,0.0,0.0,0.0,0.0,0.0,0.0,0.0,0.0,0.0,0.0,0.0,0.0,0.0,0.0,0.0,0.0,0.0,0.0,0.0,0.0,0.0,0.0,0.0,0.0,0.0,0.0,0.0,0.0,0.0,0.0,0.0,0.0,0.0,0.0,0.0,0.0,0.0,0.0,0.0,0.0,0.0,0.0,0.0,0.0,0.0,0.0,0.0,0.0,0.0,0.0,0.0,0.0,0.0,0.0,0.0,0.0,0.0,0.0,1.8008,1.8008,1.8008,1.8008,1.8008,1.8008,1.8008,0.0,0.0,0.0,0.0,0.0,0.0,0.0,0.0,0.0,0.0,0.0,0.0,0.0,0.0,0.0,0.0,0.0,0.0,0.0,0.0,0.0,0.0,0.0,0.0,0.0,0.0,0.0,0.0,0.0,0.0,0.0,0.0,0.0,0.0,0.0,0.0,0.0,0.0,0.0,0.0,0.0,0.0,0.0,0.0,0.0,0.0,0.0,0.0,0.0,0.0,0.0,0.0,0.0,0.0,0.0,0.0,0.0,0.0,0.0,0.0,0.0,0.0,0.0,0.0,0.0,0.0,0.0,0.0,0.0,0.0,0.0,0.0,0.0,0.0,0.0,0.0,0.0,0.0,0.0,0.0,0.0,0.0,0.0,0.0,0.0,0.0,0.0,0.0,0.0,0.0,0.0,0.0,0.0,0.0,0.0,0.0,0.0,0.0,0.0,0.0,0.0,0.0,0.0,0.0,0.0,0.0,0.0,0.0,1.8008,1.8008,1.8008,1.8008,1.8008,1.8008,0.0,0.0,0.0,0.0,0.0,0.0,0.0,0.0,0.0,0.0,0.0,0.0,0.0,0.0,0.0,0.0,0.0,0.0,0.0,0.0,0.0,0.0,0.0,0.0,0.0,0.0,0.0,0.0,0.0,0.0,0.0,0.0,0.0,0.0,0.0,0.0,0.0,0.0,0.0,0.0,0.0,0.0,0.0,0.0,0.0,0.0,0.0,0.0,0.0,0.0,0.0,0.0,0.0,0.0,0.0,0.0,0.0,0.0,0.0,0.0,0.0,0.0,0.0,0.0,0.0,0.0,0.0,0.0,0.0,0.0,0.0,0.0,0.0,0.0,0.0,0.0,0.0,0.0,0.0,0.0,0.0,0.0,0.0,0.0,0.0,0.0,0.0,0.0,0.0,0.0,0.0,0.0,0.0,0.0,0.0,0.0,0.0,0.0,0.0,0.0,0.0,0.0,0.0,0.0,0.0,0.0,0.0,0.0,0.0,1.8008,1.8008,1.8008,1.8008,1.8008,1.8008,0.0,0.0,0.0,0.0,0.0,0.0,0.0,0.0,0.0,0.0,0.0,0.0,0.0,0.0,0.0,0.0,0.0,0.0,0.0,0.0,0.0,0.0,0.0,0.0,0.0,0.0,0.0,0.0,0.0,0.0,0.0,0.0,0.0,0.0,0.0,0.0,0.0,0.0,0.0,0.0,0.0,0.0,0.0,0.0,0.0,0.0,0.0,0.0,0.0,0.0,0.0,0.0,0.0,0.0,0.0,0.0,0.0,0.0,0.0,0.0,0.0,0.0,0.0,0.0,0.0,0.0,0.0,0.0,0.0,0.0,0.0,0.0,0.0,0.0,0.0,0.0,0.0,0.0,0.0,0.0,0.0,0.0,0.0,0.0,0.0,0.0,0.0,0.0,0.0,0.0,0.0,0.0,0.0,0.0,0.0,0.0,0.0,0.0,0.0,0.0,0.0,0.0,0.0,0.0,0.0,0.0,0.0,0.0,1.8008,1.8008,1.8008,1.8008,1.8008,1.8008,1.8008,0.0,0.0,0.0,0.0,0.0,0.0,0.0,0.0,0.0,0.0,0.0,0.0,0.0,0.0,0.0,0.0,0.0,0.0,0.0,0.0,0.0,0.0,0.0,0.0,0.0,0.0,0.0,0.0,0.0,0.0,0.0,0.0,0.0,0.0,0.0,0.0,0.0,0.0,0.0,0.0,0.0,0.0,0.0,0.0,0.0,0.0,0.0,0.0,0.0,0.0,0.0,0.0,0.0,0.0,0.0,0.0,0.0,0.0,0.0,0.0,0.0,0.0,0.0,0.0,0.0,0.0,0.0,0.0,0.0,0.0,0.0,0.0,0.0,0.0,0.0,0.0,0.0,0.0,0.0,0.0,0.0,0.0,0.0,0.0,0.0,0.0,0.0,0.0,0.0,0.0,0.0,0.0,0.0,0.0,0.0,0.0,0.0,0.0,0.0,0.0,0.0,0.0,0.0,0.0,0.0,0.0,0.0,0.0,1.8008,1.8008,1.8008,1.8008,1.8008,1.8008,1.8008,0.0,0.0,0.0,0.0,0.0,0.0,0.0,0.0,0.0,0.0,0.0,0.0,0.0,0.0,0.0,0.0,0.0,0.0,0.0,0.0,0.0,0.0,0.0,0.0,0.0,0.0,0.0,0.0,0.0,0.0,0.0,0.0,0.0,0.0,0.0,0.0,0.0,0.0,0.0,0.0,0.0,0.0,0.0,0.0,0.0,0.0,0.0,0.0,0.0,0.0,0.0,0.0,0.0,0.0,0.0,0.0,0.0,0.0,0.0,0.0,0.0,0.0,0.0,0.0,0.0,0.0,0.0,0.0,0.0,0.0,0.0,0.0,0.0,0.0,0.0,0.0,0.0,0.0,0.0,0.0,0.0,0.0,0.0,0.0,0.0,0.0,0.0,0.0,0.0,0.0,0.0,0.0,0.0,0.0,0.0,0.0,0.0,0.0,0.0,0.0,0.0,0.0,0.0,0.0,0.0,0.0,0.0,0.0,1.8008,1.8008,1.8008,1.8008,1.8008,1.8008,1.8008,0.0,0.0,0.0,0.0,0.0,0.0,0.0,0.0,0.0,0.0,0.0,0.0,0.0,0.0,0.0,0.0,0.0,0.0,0.0,0.0,0.0,0.0,0.0,0.0,0.0,0.0,0.0,0.0,0.0,0.0,0.0,0.0,0.0,0.0,0.0,0.0,0.0,0.0,0.0,0.0,0.0,0.0,0.0,0.0,0.0,0.0,0.0,0.0,1.4245,0.0,0.0,0.0,0.0,0.0,0.0,0.0,0.0,0.0,0.0,0.0,0.0,0.0,0.0,0.0,0.0,0.0,0.0,0.0,0.0,0.0,0.0,0.0,0.0,0.0,0.0,0.0,0.0,0.0,0.0,0.0,0.0,0.0,0.0,0.0,0.0,0.0,0.0,0.0,0.0,0.0,0.0,0.0,0.0,0.0,0.0,0.0,0.0,0.0,0.0,0.0,0.0,0.0,0.0,0.0,0.0,0.0,0.0,0.0,1.8008,1.8008,1.8008,1.8008,1.8008,1.8008,1.8008,0.0,0.0,0.0,0.0,0.0,0.0,0.0,0.0,0.0,0.0,0.0,0.0,0.0,0.0,0.0,0.0,0.0,0.0,0.0,0.0,0.0,0.0,0.0,0.0,0.0,0.0,0.0,0.0,0.0,0.0,0.0,0.0,0.0,0.0,0.0,0.0,0.0,0.0,0.0,0.0,0.0,0.0,0.0,0.0,0.0,0.0,0.0,0.0,0.0,0.0,0.0,0.0,0.0,0.0,0.0,0.0,0.0,0.0,0.0,0.0,0.0,0.0,0.0,0.0,0.0,0.0,0.0,0.0,0.0,0.0,0.0,0.0,0.0,0.0,0.0,0.0,0.0,0.0,0.0,0.0,0.0,0.0,0.0,0.0,0.0,0.0,0.0,0.0,0.0,0.0,0.0,0.0,0.0,0.0,0.0,0.0,0.0,0.0,0.0,0.0,0.0,0.0,0.0,0.0,0.0,0.0,0.0,1.8008,1.8008,1.8008,1.8008,1.8008,1.8008,1.8008,1.8008,1.8008,0.0,0.0,0.0,0.0,0.0,0.0,0.0,0.0,0.0,0.0,0.0,0.0,0.0,0.0,0.0,0.0,0.0,0.0,0.0,0.0,0.0,0.0,0.0,0.0,0.0,0.0,0.0,0.0,0.0,0.0,0.0,0.0,0.0,0.0,0.0,0.0,0.0,0.0,1.7657,1.716,0.0,0.0,0.0,0.0,0.0,0.0,0.0,0.0,1.3922,0.0,0.0,0.0,0.0,0.0,0.0,0.0,0.0,0.0,0.0,0.0,0.0,0.0,0.0,0.0,0.0,0.0,0.0,0.0,0.0,0.0,0.0,0.0,0.0,0.0,0.0,0.0,0.0,0.0,0.0,0.0,0.0,0.0,0.0,0.0,0.0,0.0,0.0,0.0,0.0,0.0,0.0,0.0,0.0,0.0,0.0,0.0,0.0,0.0,0.0,0.0,0.0,0.0,0.0,0.0,0.0,1.8008,1.8008,1.8008,1.8008,1.8008,1.8008,1.8008,1.8008,1.8008,1.8008,0.0,0.0,0.0,0.0,0.0,0.0,0.0,0.0,0.0,0.0,0.0,0.0,0.0,0.0,0.0,0.0,0.0,0.0,0.0,0.0,0.0,0.0,0.0,0.0,0.0,0.0,0.0,0.0,0.0,0.0,0.0,0.0,0.0,0.0,0.0,0.0,0.0,0.0,0.0,1.6082,1.588,0.0,0.0,0.0,0.0,0.0,0.0,0.0,0.0,1.3962,0.0,0.0,0.0,0.0,0.0,0.0,0.0,0.0,0.0,0.0,0.0,0.0,0.0,0.0,0.0,0.0,0.0,0.0,0.0,0.0,0.0,0.0,0.0,0.0,0.0,0.0,0.0,0.0,0.0,0.0,0.0,0.0,0.0,0.0,0.0,0.0,0.0,0.0,0.0,0.0,0.0,0.0,0.0,0.0,0.0,0.0,0.0,0.0,0.0,0.0,0.0,0.0,0.0,0.0,0.0,1.8008,1.8008,1.8115,1.8303,1.8313,1.843,1.8672,1.8682,1.8654,0.0,0.0,0.0,0.0,0.0,0.0,0.0,0.0,0.0,0.0,0.0,0.0,0.0,0.0,0.0,0.0,0.0,0.0,0.0,0.0,0.0,0.0,0.0,0.0,0.0,0.0,0.0,0.0,0.0,0.0,0.0,0.0,0.0,0.0,0.0,0.0,0.0,0.0,0.0,0.0,1.6182,1.6032,1.5089,0.0,0.0,0.0,0.0,0.0,0.0,1.4295,1.4109,0.0,0.0,0.0,0.0,0.0,0.0,0.0,0.0,0.0,0.0,0.0,0.0,0.0,0.0,0.0,0.0,0.0,0.0,0.0,0.0,0.0,0.0,0.0,0.0,0.0,0.0,0.0,0.0,0.0,0.0,0.0,0.0,0.0,0.0,0.0,0.0,0.0,0.0,0.0,0.0,0.0,0.0,0.0,0.0,0.0,0.0,0.0,0.0,0.0,0.0,0.0,0.0,0.0,0.0,0.0,1.8244,1.8271,1.841,1.8724,1.8734,1.8918,1.9286,1.9277,1.9277,0.0,0.0,0.0,0.0,0.0,0.0,0.0,0.0,0.0,0.0,0.0,0.0,0.0,0.0,0.0,0.0,0.0,0.0,0.0,0.0,0.0,0.0,0.0,0.0,0.0,0.0,0.0,0.0,0.0,0.0,0.0,0.0,0.0,0.0,0.0,0.0,0.0,0.0,0.0,0.0,0.0,1.6154,1.5181,1.4497,0.0,0.0,0.0,0.0,1.4109,1.4156,0.0,0.0,0.0,0.0,0.0,0.0,0.0,0.0,0.0,0.0,0.0,0.0,0.0,0.0,0.0,0.0,0.0,0.0,0.0,0.0,0.0,0.0,0.0,0.0,0.0,0.0,0.0,0.0,0.0,0.0,0.0,0.0,0.0,0.0,0.0,0.0,0.0,0.0,0.0,0.0,0.0,0.0,0.0,0.0,0.0,0.0,0.0,0.0,0.0,0.0,0.0,0.0,0.0,0.0,0.0,0.0,1.9131,1.9141,1.9178,1.9219,1.9209,1.9256,1.9277,1.9277,1.9277,0.0,0.0,0.0,0.0,0.0,0.0,0.0,0.0,0.0,0.0,0.0,0.0,0.0,0.0,0.0,0.0,0.0,0.0,0.0,0.0,0.0,0.0,0.0,0.0,0.0,0.0,0.0,0.0,0.0,0.0,0.0,0.0,0.0,0.0,0.0,0.0,0.0,0.0,0.0,0.0,0.0,1.5424,1.4378,1.4146,1.4145,0.0,0.0,1.4109,1.4109,1.4302,0.0,0.0,0.0,0.0,0.0,0.0,0.0,0.0,0.0,0.0,0.0,0.0,0.0,0.0,0.0,0.0,0.0,0.0,0.0,0.0,0.0,0.0,0.0,0.0,0.0,0.0,0.0,0.0,0.0,0.0,0.0,0.0,0.0,0.0,0.0,0.0,0.0,0.0,0.0,0.0,0.0,0.0,0.0,0.0,0.0,0.0,0.0,0.0,0.0,0.0,0.0,0.0,0.0,0.0,0.0,1.9074,1.9296,1.9277,1.9404,1.9629,1.9648,1.9756,2.0019,2.0029,2.0029,0.0,0.0,0.0,0.0,0.0,0.0,0.0,0.0,0.0,0.0,0.0,0.0,0.0,0.0,0.0,0.0,0.0,0.0,0.0,0.0,0.0,0.0,0.0,0.0,0.0,0.0,0.0,0.0,0.0,0.0,0.0,0.0,0.0,0.0,0.0,0.0,0.0,0.0,0.0,0.0,0.0,0.0,1.4452,1.4314,0.0,0.0,0.0,1.4611,1.4626,0.0,0.0,0.0,0.0,0.0,0.0,0.0,0.0,0.0,0.0,0.0,0.0,0.0,0.0,0.0,0.0,0.0,0.0,0.0,0.0,0.0,0.0,0.0,0.0,0.0,0.0,0.0,0.0,0.0,0.0,0.0,0.0,0.0,0.0,0.0,0.0,0.0,0.0,0.0,0.0,0.0,0.0,0.0,0.0,0.0,0.0,0.0,0.0,0.0,0.0,0.0,0.0,0.0,0.0,0.0,0.0,0.0,1.9628,1.9628,1.9784,2.0049,2.0068,2.0253,2.0595,2.0596,0.0,0.0,0.0,0.0,0.0,0.0,0.0,0.0,0.0,0.0,0.0,0.0,0.0,0.0,0.0,0.0,0.0,0.0,0.0,0.0,0.0,0.0,0.0,0.0,0.0,0.0,0.0,1.8781,0.0,0.0,0.0,0.0,0.0,0.0,0.0,0.0,0.0,0.0,0.0,0.0,0.0,0.0,1.4916,1.3812,1.3658,1.3844,0.0,0.0,1.4613,1.4963,1.4769,1.4346,0.0,0.0,0.0,0.0,0.0,0.0,0.0,0.0,0.0,0.0,0.0,0.0,0.0,0.0,0.0,0.0,0.0,0.0,0.0,0.0,0.0,0.0,0.0,0.0,0.0,0.0,0.0,0.0,0.0,0.0,0.0,0.0,0.0,0.0,0.0,0.0,0.0,0.0,0.0,0.0,0.0,0.0,0.0,0.0,0.0,0.0,0.0,0.0,0.0,0.0,0.0,0.0,0.0,0.0,2.0068,2.0507,2.0517,2.0517,2.0566,2.0556,2.0556,2.0605,2.0596,2.0596,0.0,0.0,0.0,0.0,0.0,0.0,0.0,0.0,0.0,0.0,0.0,0.0,0.0,0.0,0.0,0.0,0.0,0.0,0.0,0.0,0.0,0.0,0.0,0.0,0.0,0.0,0.0,0.0,0.0,0.0,0.0,0.0,0.0,0.0,0.0,0.0,0.0,0.0,0.0,0.0,0.0,1.3577,1.1594,1.1339,1.1756,0.0,1.3132,1.3551,1.48,1.4153,1.3807,1.4704,0.0,0.0,0.0,0.0,0.0,0.0,0.0,0.0,0.0,0.0,0.0,0.0,0.0,0.0,0.0,0.0,0.0,0.0,0.0,0.0,0.0,0.0,0.0,0.0,0.0,0.0,0.0,0.0,0.0,0.0,0.0,0.0,0.0,0.0,0.0,0.0,0.0,0.0,0.0,0.0,0.0,0.0,0.0,0.0,0.0,0.0,0.0,0.0,0.0,0.0,0.0,0.0,0.0,2.042,2.0595,2.0596,2.0596,2.0596,2.0596,2.0596,2.0596,2.0596,2.0596,0.0,0.0,0.0,0.0,0.0,0.0,0.0,0.0,0.0,0.0,0.0,0.0,0.0,0.0,0.0,0.0,0.0,0.0,0.0,0.0,0.0,0.0,0.0,0.0,0.0,0.0,0.0,0.0,1.9931,1.984,1.9171,0.0,0.0,0.0,0.0,0.0,0.0,0.0,0.0,0.0,0.0,1.2038,1.1435,1.1353,0.0,0.0,1.2328,1.2499,1.3001,1.343,1.3554,1.3154,1.3454,0.0,0.0,0.0,0.0,0.0,0.0,0.0,0.0,0.0,0.0,0.0,0.0,0.0,0.0,0.0,0.0,0.0,0.0,0.0,0.0,0.0,0.0,0.0,0.0,0.0,0.0,0.0,0.0,0.0,0.0,0.0,0.0,0.0,0.0,0.0,0.0,0.0,0.0,0.0,0.0,0.0,0.0,0.0,0.0,0.0,0.0,0.0,0.0,0.0,0.0,0.0,0.0,2.0674,2.0791,2.0771,2.085,2.0977,2.0987,2.0977,2.0977,2.1006,2.0997,0.0,0.0,0.0,0.0,0.0,0.0,0.0,0.0,0.0,0.0,0.0,0.0,0.0,0.0,0.0,0.0,0.0,0.0,0.0,0.0,0.0,0.0,0.0,0.0,0.0,0.0,0.0,0.0,1.981,1.947,1.8396,0.0,0.0,0.0,0.0,0.0,0.0,0.0,0.0,0.0,0.0,1.059,1.0475,1.0819,1.1139,1.1293,1.1707,1.1992,1.1992,1.2452,1.2623,1.2066,0.0,0.0,0.0,0.0,0.0,0.0,0.0,0.0,0.0,0.0,0.0,0.0,0.0,0.0,0.0,0.0,0.0,0.0,0.0,0.0,0.0,0.0,0.0,0.0,0.0,0.0,0.0,1.9276,0.0,0.0,1.9247,0.0,0.0,0.0,0.0,0.0,0.0,0.0,0.0,0.0,0.0,0.0,0.0,0.0,0.0,0.0,0.0,0.0,0.0,0.0,0.0,0.0,0.0,2.0771,2.116,2.112,2.1365,2.1796,2.1846,2.1815,2.1795,2.1855,2.1855,2.1836,0.0,0.0,0.0,0.0,0.0,0.0,0.0,0.0,0.0,0.0,0.0,0.0,0.0,0.0,0.0,0.0,0.0,0.0,0.0,0.0,0.0,0.0,0.0,0.0,0.0,0.0,1.9396,1.8697,1.7857,0.0,0.0,0.0,0.0,0.0,0.0,0.0,0.0,0.0,0.0,0.9547,0.9183,0.8283,0.9213,1.0026,1.0035,1.1236,1.2139,1.2084,1.1107,1.0709,0.0,0.0,0.0,0.0,0.0,0.0,0.0,0.0,0.0,0.0,0.0,0.0,0.0,0.0,0.0,0.0,0.0,0.0,0.0,0.0,0.0,0.0,0.0,0.0,0.0,0.0,0.0,1.9277,1.9277,0.0,0.0,0.0,0.0,0.0,0.0,0.0,0.0,0.0,0.0,0.0,2.0156,2.0184,0.0,0.0,0.0,0.0,0.0,0.0,0.0,0.0,0.0,0.0,0.0,0.0,2.0271,2.0347,1.9617,1.9667,2.0601,2.0643,2.0643,2.0652,2.1462,2.1503,2.0664,0.0,0.0,0.0,0.0,0.0,0.0,0.0,0.0,0.0,0.0,0.0,0.0,0.0,0.0,0.0,0.0,0.0,0.0,0.0,0.0,0.0,0.0,0.0,0.0,0.0,1.9482,0.0,0.0,0.0,0.0,0.0,0.0,0.0,0.0,0.0,0.0,0.0,1.0721,0.9945,0.9183,0.8582,0.8238,0.8652,0.8991,0.0,0.0,0.0,0.0,0.0,0.0,0.0,0.0,0.0,0.0,0.0,0.0,0.0,0.0,0.7351,0.6787,0.6656,0.6403,0.551,0.0,0.0,0.0,0.0,0.0,0.0,0.0,0.0,0.0,0.0,0.0,0.0,0.0,0.0,1.9212,0.0,1.9606,0.0,0.0,0.0,0.0,0.0,0.0,0.0,0.0,1.9991,2.021,2.0259,2.0362,2.0618,0.0,2.1328,2.1088,0.0,0.0,0.0,0.0,0.0,0.0,0.0,0.0,2.0078,2.0191,1.9031,1.8873,1.9774,2.0233,2.0255,1.9857,2.0639,2.0661,1.9857,1.9835,1.9835,0.0,0.0,0.0,0.0,0.0,0.0,0.0,0.0,0.0,0.0,0.0,0.0,0.0,0.0,0.0,0.0,0.0,0.0,0.0,0.0,0.0,0.0,0.0,1.8521,0.0,0.0,0.0,0.0,0.0,0.0,0.0,0.0,0.0,1.285,1.1234,0.9921,0.9456,0.8827,0.8369,0.8369,0.0,0.0,0.0,0.0,0.0,0.0,0.0,0.9813,0.9809,0.9784,0.9769,0.9801,0.9091,0.8046,0.6624,0.0,0.0,0.5451,0.5301,0.5011,0.4159,0.3564,0.3201,0.3301,0.2869,0.2516,0.0,0.0,0.0,0.0,0.0,0.0,0.0,0.0,1.9364,1.8928,0.0,1.9991,0.0,0.0,0.0,0.0,2.0566,2.0489,0.0,0.0,1.9279,1.9429,1.9559,1.9797,2.0571,2.173,2.174,2.1129,2.0066,2.119,0.0,0.0,0.0,0.0,0.0,0.0,2.0154,2.0498,1.927,1.8932,1.9441,2.0539,2.0616,1.9548,1.9465,1.9426,1.9443,1.9426,1.9443,1.9465,2.0152,0.0,0.0,0.0,0.0,0.0,0.0,0.0,0.0,0.0,0.0,0.0,0.0,0.0,0.0,0.0,0.0,0.0,0.0,0.0,0.0,1.7458,0.0,0.0,0.0,0.0,0.0,0.0,0.0,0.0,0.0,0.0,1.1732,1.0836,0.9698,0.8477,0.0,0.0,0.0,0.0,0.9895,0.8706,0.9701,1.0152,0.8905,0.872,0.8747,0.8716,0.0,0.0,0.8639,0.8514,0.7935,0.6597,0.61,0.5679,0.4116,0.387,0.3867,0.3742,0.2762,0.1995,0.1865,0.1043,0.0,2.021,0.0,0.0,0.0,0.0,1.825,1.796,1.823,1.7928,1.7911,1.8164,1.8453,0.0,0.0,0.0,0.0,0.0,0.0,1.9174,1.9641,1.8909,1.8557,1.8608,1.8687,1.8909,1.9268,1.9549,1.9504,1.9198,1.9858,2.0297,2.0536,0.0,0.0,0.0,0.0,1.8443,1.8461,1.7303,1.7162,1.8203,1.8557,1.8987,1.9474,1.8657,1.8211,1.8211,1.8211,1.8211,1.8234,1.8455,0.0,0.0,0.0,0.0,0.0,0.0,0.0,0.0,0.0,0.0,0.0,0.0,0.0,0.0,0.0,0.0,0.0,0.0,0.0,1.7941,1.682,1.5688,0.0,0.0,0.0,0.0,0.0,0.0,0.0,0.0,0.0,1.0774,0.9743,0.8853,0.0,0.0,0.8642,0.8645,0.903,0.9182,0.8832,0.9142,0.0,0.89,0.8845,0.8845,0.8845,0.8808,0.8463,0.7449,0.7229,0.6389,0.3932,0.3424,0.289,0.1542,0.1945,0.2192,0.1378,0.0814,0.0572,0.0523,0.0221,0.0,1.9424,1.96,1.8947,1.8681,1.8569,1.7493,1.7263,1.7618,1.72,1.713,1.7341,1.7775,1.7811,1.7593,1.8005,0.0,0.0,0.0,1.8364,1.8622,1.8011,1.7746,1.782,1.7948,1.8255,1.8698,1.8948,1.8829,1.8371,1.8646,1.8898,1.9081,0.0,0.0,2.0147,1.8554,1.7707,1.7645,1.6433,1.6173,1.6913,1.6951,1.7537,1.8703,1.7584,1.6951,1.6943,1.6943,1.6943,1.6943,1.7435,1.8025,0.0,0.0,0.0,0.0,0.0,0.0,0.0,0.0,0.0,0.0,0.0,2.0018,1.8822,0.0,0.0,0.0,1.7727,1.7007,1.6327,1.5149,0.0,0.0,0.0,0.0,0.0,0.0,0.0,1.1824,1.0552,0.975,0.9785,0.914,0.8642,0.8581,0.8706,0.8774,0.8774,0.0,0.8909,0.8909,0.8909,0.8909,0.8909,0.8909,0.8716,0.8128,0.8017,0.7512,0.6116,0.5836,0.497,0.2878,0.2208,0.1733,0.028,0.0688,0.1008,0.0,0.0,0.0,0.0,0.0,0.0,1.8094,1.8007,1.7999,1.8032,1.7962,1.6916,1.7033,1.7861,1.6894,1.6477,1.6566,1.7553,1.7437,1.661,1.757,0.0,1.8137,1.805,1.7534,1.6699,1.6846,1.6979,1.71,1.7389,1.811,1.9177,1.9191,1.8634,1.7591,1.7544,1.7544,1.7575,1.8688,1.927,1.9291,1.8157,1.7552,1.7528,1.6386,1.5815,1.5835,1.5838,1.6415,1.7563,1.6486,1.5881,1.5881,1.5875,1.5875,1.5922,1.6992,1.7626,1.7649,0.0,0.0,0.0,0.0,0.0,0.0,0.0,0.0,0.0,0.0,0.0,0.0,0.0,0.0,0.0,1.5356,0.0,1.395,1.2899,0.0,0.0,0.0,1.2349,1.2143,1.1127,1.0478,1.0545,0.0,0.0,0.8892,0.8909,0.8858,0.8747,0.8821,0.8909,0.8909,0.8906,0.8909,0.8909,0.8909,0.8909,0.8881,0.8743,0.8128,0.6785,0.6533,0.6003,0.4637,0.4331,0.3716,0.2208,0.2012,0.1594,0.0224,0.0,0.0,0.0,0.0,0.0,0.0,0.0,0.0,1.7245,1.6367,1.6367,1.6587,1.6902,1.5843,1.5524,1.5724,1.5502,1.5505,1.5711,1.5932,1.6035,1.6001,1.6258,1.6892,1.7797,1.6807,1.6761,1.7368,1.6521,1.6111,1.6135,1.6234,1.6403,1.6655,1.6678,1.6544,1.6275,1.6251,1.6244,1.6275,1.6805,1.7434,1.8064,1.6897,1.6251,1.6244,1.5967,1.5915,1.619,1.638,1.6617,1.693,1.6641,1.6475,1.6468,1.6475,1.6475,1.65,1.6783,1.6937,1.693,1.7194,0.0,0.0,0.0,0.0,0.0,0.0,0.0,0.0,0.0,1.8018,1.6796,0.0,1.6948,0.0,1.5251,1.3931,1.2898,1.2521,0.0,0.0,1.1973,1.1889,0.9846,1.0384,1.0508,0.9448,0.9047,0.8869,0.8906,0.8909,0.8868,0.8862,0.8889,0.8909,0.8909,0.8909,0.8909,0.8909,0.8881,0.8909,0.8743,0.7931,0.6727,0.5252,0.5029,0.4496,0.3017,0.2738,0.2263,0.0868,0.0504,0.0364,0.0,0.0,0.0,0.0,0.0,0.0,0.0,0.0,0.0,1.6433,1.5801,1.5801,1.5975,1.6209,1.5613,1.5374,1.5351,1.5351,1.5444,1.5568,1.5591,1.5655,1.5801,1.5801,1.618,1.6779,1.6133,1.618,1.6803,1.6133,1.5801,1.5801,1.5801,1.5801,1.5808,1.5941,1.6025,1.6032,1.6128,1.6188,1.6195,1.6386,1.674,1.7204,1.6552,1.6219,1.6195,1.6219,1.6275,1.6484,1.6627,1.6707,1.6707,1.6707,1.6707,1.6707,1.6707,1.6707,1.6707,1.6707,1.6707,1.6707,1.6707,1.7,0.0,0.0,0.0,0.0,0.0,0.0,0.0,0.0,0.0,0.0,0.0,1.6213,1.5587,1.3802,1.2406,1.1708,1.1094,1.0471,0.9812,1.0518,1.0471,0.8944,0.9589,0.9809,0.902,0.8909,0.8909,0.8909,0.8909,0.8909,0.8909,0.8909,0.8909,0.8909,0.8909,0.8909,0.8909,0.8349,0.7651,0.7091,0.6255,0.5222,0.3827,0.3493,0.2989,0.151,0.1231,0.0924,0.0,0.0,0.0,0.0,0.0,0.0,0.0,0.0,0.0,0.0,0.0,0.0,1.5861,1.5861,1.5821,1.5801,1.5801,1.5801,1.5801,1.5801,1.5801,1.5801,1.5801,1.5801,1.5801,1.5801,1.5801,1.5801,1.5808,1.5841,1.5861,1.5861,1.5895,1.5921,1.5915,1.5915,1.5915,1.5928,1.623,1.6357,1.6364,1.6605,1.6707,1.6707,1.6772,1.676,1.6767,1.6794,1.678,1.6707,1.674,1.676,1.6767,1.6775,1.682,1.6814,1.682,1.6814,1.682,1.6814,1.682,1.6814,1.6814,1.6814,1.682,1.682,1.682,0.0,1.7796,0.0,0.0,0.0,0.0,0.0,0.0,0.0,0.0,1.6281,1.5644,1.4288,1.1912,1.0503,1.0482,0.9408,0.8767,0.8892,0.8909,0.8909,0.8909,0.8909,0.8909,0.8909,0.8909,0.8909,0.8909,0.8909,0.8909,0.8881,0.8629,0.846,0.8602,0.8546,0.8491,0.8602,0.7374,0.595,0.4693,0.4275,0.3688,0.2319,0.1929,0.1482,0.0308,0.0,0.0,0.0,0.0,0.0,0.0,0.0,0.0,0.0,0.0,0.0,0.0,0.0,0.0,1.6192,1.6166,1.5901,1.5801,1.5801,1.5801,1.5801,1.5801,1.5801,1.5801,1.5801,1.5801,1.5801,1.5801,1.5801,1.5801,1.5815,1.6079,1.621,1.623,1.6426,1.6515,1.6515,1.6515,1.654,1.6515,1.6593,1.6627,1.6627,1.668,1.6707,1.6714,1.6973,1.7119,1.7132,0.0,0.0,0.0,1.6973,1.7093,1.7125,1.7327,1.7415,1.7415,1.7441,0.0,1.7415,1.7441,1.7441,1.7415,1.7415,0.0,0.0,0.0,0.0,0.0,0.0,0.0,0.0,0.0,0.0,0.0,1.585,1.5687,1.498,1.4058,1.3051,1.1863,1.127,1.0505,0.9353,0.903,0.8879,0.8906,0.8909,0.8909,0.8909,0.8909,0.8909,0.8909,0.8909,0.8909,0.8909,0.8909,0.8909,0.8771,0.7875,0.7177,0.7124,0.7124,0.7091,0.7008,0.5789,0.4388,0.2878,0.263,0.216,0.084,0.042,0.0,0.0,0.0,0.0,0.0,0.0,0.0,0.0,0.0,0.0,0.0,0.0,0.0,0.0,0.0,0.0,1.6486,1.6466,1.6326,1.6235,0.0,1.6259,1.6242,1.6228,1.6112,1.6126,1.6235,1.6235,1.6259,1.6266,1.6235,1.6242,1.6273,1.642,1.6486,1.6518,1.6608,1.6707,1.6707,1.6707,1.6707,1.6714,1.6854,1.6927,1.6959,1.7068,1.7134,1.7141,1.7314,1.7414,1.7394,1.7528,1.7461,1.7148,1.7314,1.7388,1.742,1.7535,1.7615,1.7615,1.7615,0.0,0.0,0.0,0.0,0.0,0.0,0.0,0.0,1.5476,0.0,1.5476,1.5476,1.5476,1.5476,1.5476,1.515,1.4422,1.3691,1.3463,1.3866,1.2713,1.1729,1.1151,1.046,0.9726,0.8992,0.8909,0.8909,0.8909,0.8909,0.8909,0.8909,0.8909,0.8909,0.8909,0.8909,0.8909,0.8909,0.8909,0.8574,0.7909,0.7198,0.6383,0.576,0.5611,0.5401,0.4627,0.393,0.2839,0.1489,0.1119,0.0,0.0,0.0,0.0,0.0,0.0,0.0,0.0,0.0,0.0,0.0,0.0,0.0,0.0,0.0,0.0,0.0,0.0,0.0,1.6787,1.6774,1.6727,1.6707,1.6707,1.6707,1.6734,1.676,1.6498,0.0,0.0,1.6707,1.6707,1.6707,1.6707,1.6707,1.6707,1.6767,1.6805,1.6787,1.6834,1.686,1.686,1.686,1.686,1.6867,1.7133,1.728,1.726,1.7495,1.7615,1.7615,1.7615,1.7615,1.7615,1.7615,1.7615,1.7615,1.7615,1.7615,1.7615,1.7615,1.7615,1.7615,1.7615,1.7477,1.7226,1.7206,1.6552,1.5123,1.5037,1.4502,1.3405,1.3291,1.3291,1.3291,1.3291,1.3291,1.3291,1.3291,1.3188,1.294,1.1538,1.1319,1.2778,1.1569,1.0699,1.0703,0.9588,0.8909,0.8909,0.8909,0.8909,0.8909,0.8909,0.8909,0.8909,0.8909,0.8909,0.8909,0.8909,0.8909,0.8885,0.8631,0.8106,0.6941,0.6115,0.5367,0.413,0.39,0.3577,0.2239,0.1872,0.1361,0.0,0.0,0.0,0.0,0.0,0.0,0.0,0.0,0.0,0.0,0.0,0.0,0.0,0.0,0.0,0.0,0.0,0.0,0.0,0.0,0.0,1.7146,1.7119,1.6814,1.6707,1.6707,1.6707,1.6872,1.7105,1.6799,1.6673,1.6707,1.6707,1.6707,1.6707,1.6707,1.6707,1.672,1.6993,1.7113,1.7127,1.7367,1.7462,1.7481,1.7481,1.7481,1.7488,1.7528,1.7548,1.7555,1.7588,1.7615,1.7615,1.7615,1.7589,1.7615,1.7615,1.7615,1.7615,1.7615,1.7615,1.7615,1.7615,1.7615,1.7615,1.7556,1.6982,1.5763,1.571,1.507,1.3696,1.3588,1.3507,1.3318,1.3237,1.3291,1.3291,1.3291,1.3291,1.3291,1.3291,1.2751,1.1483,1.0049,0.9833,1.1214,1.008,0.921,0.9182,0.902,0.8909,0.8909,0.8909,0.8909,0.8909,0.8909,0.8909,0.8909,0.8909,0.8912,0.8919,0.8909,0.8892,0.8718,0.7831,0.7007,0.6337,0.4452,0.24,0.1495,0.1724,0.1811,0.0703,0.0293,0.0206,0.0,0.0,0.0,0.0,0.0,0.0,0.0,0.0,0.0,0.0,0.0,0.0,0.0,0.0,0.0,0.0,0.0,0.0,0.0,0.0,0.0,1.7408,1.7394,1.7235,1.7181,1.7181,1.7181,1.728,1.7394,1.7241,1.7207,1.7181,1.7181,1.7181,1.7181,1.7188,1.7181,1.7188,1.7354,1.7408,1.7421,1.7548,1.7615,1.7615,1.7615,1.7615,1.7615,1.7615,1.7615,1.7615,1.7615,1.7615,1.7529,1.6823,1.6413,1.636,1.5636,1.5263,1.5284,1.6015,1.6419,1.6387,1.5663,1.5284,1.5289,1.5257,1.4963,1.4314,1.4261,1.3588,1.2159,1.2105,1.1755,1.0973,1.0918,1.0918,1.0918,1.0918,1.0918,1.0918,1.0914,1.0617,0.9943,0.9292,0.9182,0.9836,0.9289,0.8909,0.8909,0.8909,0.8909,0.8909,0.8909,0.8909,0.8909,0.8909,0.8909,0.8909,0.8909,0.8943,0.9035,0.9055,0.8745,0.7934,0.7208,0.5994,0.4555,0.2267,0.0,0.0,0.0,0.0,0.0,0.0,0.0,0.0,0.0,0.0,0.0,0.0,0.0,0.0,0.0,0.0,0.0,0.0,0.0,0.0,0.0,0.0,0.0,0.0,0.0,0.0,0.0,0.0,1.7615,1.7615,1.7615,1.7615,1.7615,1.7615,1.7615,1.7615,1.7608,1.7615,1.7615,1.7615,1.7615,1.7615,1.7615,1.7608,1.7615,1.7615,1.7608,1.7615,1.7615,1.7615,1.7615,1.7615,1.7615,1.7615,1.7615,1.7615,1.7615,1.7615,1.7417,1.6988,1.5663,1.4931,1.4904,1.3831,1.3291,1.3345,1.4046,1.4577,1.4877,1.3857,1.3318,1.3291,1.3318,1.3156,1.2832,1.2805,1.2109,1.0726,1.0594,1.0076,0.902,0.8909,0.8909,0.8909,0.8909,0.8909,0.8909,0.8909,0.8909,0.8909,0.8909,0.8909,0.8909,0.8909,0.8909,0.8909,0.8909,0.8909,0.8909,0.8909,0.8909,0.8909,0.8909,0.8929,0.8953,0.8988,0.9042,0.9199,0.8913,0.8176,0.7153,0.626,0.4722,0.223,0.0692,0.0,0.0,0.0,0.0,0.0,0.0,0.0,0.0,0.0,0.0,0.0,0.0,0.0,0.0,0.0,0.0,0.0,0.0,0.0,0.0,0.0,0.0,0.0,0.0,0.0,0.0,0.0,0.0,1.7582,1.7615,1.7477,1.7615,1.7503,1.7529,1.7477,1.7503,1.7589,1.7615,1.7424,1.7589,1.7556,1.7615,1.7582,1.7556,1.7582,1.7615,1.7589,1.7615,1.7615,1.7615,1.7582,1.7582,1.7615,1.7582,1.7503,1.7371,1.7477,1.745,1.6882,1.561,1.4207,1.3507,1.3453,1.3318,1.3264,1.327,1.2105,1.2132,1.3399,1.3372,1.3291,1.3291,1.327,1.2674,1.1351,1.1296,1.0621,0.9265,0.9154,0.9071,0.8937,0.8909,0.8909,0.8909,0.8909,0.8909,0.8909,0.8909,0.8909,0.8909,0.8909,0.8909,0.8909,0.8909,0.8909,0.8909,0.8909,0.8909,0.8909,0.8909,0.8916,0.8929,0.8926,0.8988,0.9106,0.9158,0.922,0.9373,0.798,0.7021,0.6411,0.4428,0.2202,0.0,0.0,0.0,0.0,0.0,0.0,0.0,0.0,0.0,0.0,0.0,0.0,0.0,0.0,0.0,0.0,0.0,0.0,0.0,0.0,0.0,0.0,0.0,0.0,0.0,0.0,0.0,0.0,0.0,0.0,1.5823,1.507,1.5043,1.5043,1.5049,1.507,1.5043,1.507,1.5043,1.507,1.5043,1.5037,1.5988,1.7503,1.6684,1.6737,1.7496,1.6711,1.6797,1.7556,1.7615,1.7615,1.7529,1.6664,1.6717,1.7338,1.5902,1.5503,1.6041,1.5476,1.4743,1.4073,1.2701,1.2,1.1919,1.1133,1.0699,1.0699,1.0104,1.0104,1.0621,1.0703,1.0703,1.0703,1.0699,1.046,0.9888,0.9781,0.9509,0.8964,0.8909,0.8909,0.8909,0.8909,0.8909,0.8909,0.8909,0.8909,0.8909,0.8909,0.8909,0.8909,0.8909,0.8909,0.8909,0.8909,0.8909,0.8909,0.8909,0.8909,0.8912,0.8909,0.8946,0.9045,0.9066,0.9123,0.9298,0.844,0.7881,0.791,0.6626,0.5221,0.4244,0.2338,0.0765,0.0,0.0,0.0,0.0,0.0,0.0,0.0,0.0,0.0,0.0,0.0,0.0,0.0,0.0,0.0,0.0,0.0,0.0,0.0,0.0,0.0,0.0,0.0,0.0,0.0,0.0,0.0,0.0,0.0,0.0,1.4234,1.3372,1.3291,1.3291,1.3291,1.3291,1.3291,1.3291,1.3291,1.3291,1.3291,1.3291,1.4422,1.6068,1.5284,1.5417,1.618,1.5316,1.539,1.6366,1.6419,1.6419,1.6287,1.539,1.5364,1.5962,1.4347,1.3857,1.4583,1.3367,1.2697,1.2485,1.1214,1.0511,1.0406,0.9372,0.8909,0.8937,0.8909,0.8909,0.8937,0.8909,0.8909,0.8909,0.8909,0.8909,0.8909,0.8909,0.8909,0.8909,0.8909,0.8909,0.8909,0.8909,0.8909,0.8909,0.8909,0.8909,0.8909,0.8909,0.8909,0.8909,0.8909,0.8909,0.8909,0.8909,0.8929,0.8998,0.8967,0.8973,0.897,0.897,0.9062,0.9248,0.9272,0.919,0.8709,0.761,0.6882,0.6441,0.5074,0.349,0.2057,0.0,0.0,0.0,0.0,0.0,0.0,0.0,0.0,0.0,0.0,0.0,0.0,0.0,0.0,0.0,0.0,0.0,0.0,0.0,0.0,0.0,0.0,0.0,0.0,0.0,0.0,0.0,0.0,0.0,0.0,0.0,0.0,1.3351,1.3237,1.3291,1.3129,1.3237,1.3156,1.321,1.2999,1.3129,1.321,1.308,1.3129,1.3318,1.348,1.3291,1.3431,1.3561,1.348,1.3512,1.375,1.3696,1.3561,1.3485,1.3405,1.3453,1.3804,1.321,1.3053,1.3188,1.1919,1.1187,1.1105,0.9805,0.9071,0.9103,0.8992,0.8909,0.8909,0.8909,0.8909,0.8909,0.8909,0.8909,0.8909,0.8909,0.8909,0.8909,0.8909,0.8909,0.8909,0.8909,0.8909,0.8909,0.8909,0.8909,0.8909,0.8909,0.8909,0.8909,0.8909,0.8909,0.8909,0.8909,0.8912,0.8929,0.8929,0.9015,0.9162,0.92,0.9172,0.9016,0.9065,0.9151,0.917,0.9284,0.864,0.733,0.6864,0.6399,0.5131,0.3555,0.2057,0.0432,0.0062,0.0,0.0,0.0,0.0,0.0,0.0,0.0,0.0,0.0,0.0,0.0,0.0,0.0,0.0,0.0,0.0,0.0,0.0,0.0,0.0,0.0,0.0,0.0,0.0,0.0,0.0,0.0,0.0,0.0,0.0,0.0,1.1351,1.0488,1.0484,1.0484,1.0484,1.0484,1.0484,1.0484,1.0484,1.0484,1.0484,1.0511,1.0484,1.048,1.0484,1.151,1.3075,1.2349,1.2403,1.321,1.3291,1.3291,1.321,1.2376,1.243,1.294,1.1406,1.0484,1.0457,0.9919,0.9671,0.9644,0.9185,0.8909,0.8909,0.8909,0.8909,0.8909,0.8909,0.8909,0.8909,0.8909,0.8909,0.8909,0.8909,0.8909,0.8909,0.8909,0.8909,0.8909,0.8909,0.8909,0.8909,0.8909,0.8909,0.8909,0.8909,0.8909,0.8909,0.8909,0.8909,0.8909,0.8909,0.8984,0.9052,0.9107,0.9165,0.9291,0.9328,0.9009,0.8282,0.8714,0.892,0.8095,0.7915,0.7333,0.5913,0.4816,0.3943,0.3256,0.194,0.0648,0.0,0.0,0.0,0.0,0.0,0.0,0.0,0.0,0.0,0.0,0.0,0.0,0.0,0.0,0.0,0.0,0.0,0.0,0.0,0.0,0.0,0.0,0.0,0.0,0.0,0.0,0.0,0.0,0.0,0.0,0.0,0.0,0.0,0.9809,0.8992,0.8909,0.8909,0.8909,0.8909,0.8909,0.8909,0.8909,0.8909,0.8909,0.8909,0.8909,0.8909,0.8909,0.9888,1.1674,1.0836,1.0945,1.1837,1.1892,1.186,1.1728,1.0836,1.0922,1.1483,0.9943,0.8909,0.8909,0.8909,0.8909,0.8937,0.8909,0.8909,0.8909,0.8909,0.8909,0.8909,0.8909,0.8909,0.8909,0.8909,0.8909,0.8909,0.8909,0.8909,0.8909,0.8909,0.8909,0.8909,0.8909,0.8909,0.8909,0.8909,0.8909,0.8909,0.8909,0.8909,0.8909,0.8909,0.8929,0.9001,0.8983,0.9069,0.9233,0.9254,0.9332,0.9382,0.8864,0.8142,0.7568,0.7663,0.7503,0.6577,0.6411,0.5768,0.4326,0.3198,0.24,0.1724,0.0802,0.0,0.0,0.0,0.0,0.0,0.0,0.0,0.0,0.0,0.0,0.0,0.0,0.0,0.0,0.0,0.0,0.0,0.0,0.0,0.0,0.0,0.0,0.0,0.0,0.0,0.0,0.0,0.0,0.0,0.0,0.0,0.0,0.0,0.0,0.8937,0.8909,0.8909,0.8909,0.8909,0.8909,0.8909,0.8909,0.8909,0.8909,0.8909,0.8909,0.8909,0.8909,0.8909,0.902,0.9237,0.921,0.921,0.9344,0.9265,0.9261,0.9265,0.9237,0.9182,0.9316,0.8992,0.8909,0.8909,0.8909,0.8909,0.8909,0.8909,0.8909,0.8909,0.8909,0.8909,0.8909,0.8909,0.8909,0.8909,0.8909,0.8909,0.8909,0.8909,0.8909,0.8909,0.8909,0.8909,0.8909,0.8909,0.8909,0.8909,0.8909,0.8909,0.8909,0.8909,0.8909,0.8923,0.8929,0.9025,0.9155,0.921,0.925,0.9379,0.9413,0.9387,0.9097,0.8167,0.715,0.6838,0.5874,0.5048,0.4882,0.4843,0.4204,0.2891,0.2463,0.1848,0.0,0.0,0.0,0.0,0.0,0.0,0.0,0.0,0.0,0.0,0.0,0.0,0.0,0.0,0.0,0.0,0.0,0.0,0.0,0.0,0.0,0.0,0.0,0.0,0.0,0.0,0.0,0.0,0.0,0.0,0.0,0.0,0.0,0.0,0.0,0.0,0.8909,0.8909,0.8909,0.8909,0.8909,0.8909,0.8909,0.8909,0.8909,0.8909,0.8909,0.8909,0.8909,0.8909,0.8909,0.8909,0.8909,0.8909,0.8909,0.8909,0.8909,0.8909,0.8909,0.8909,0.8909,0.8909,0.8909,0.8909,0.8909,0.8909,0.8909,0.8909,0.8909,0.8909,0.8909,0.8909,0.8909,0.8909,0.8909,0.8909,0.8909,0.8909,0.8909,0.8909,0.8909,0.8909,0.8909,0.8909,0.8909,0.8909,0.8909,0.8909,0.8909,0.8909,0.8909,0.8909,0.8909,0.8988,0.91,0.9117,0.9179,0.9301,0.9335,0.9417,0.9513,0.9478,0.903,0.8295,0.7556,0.663,0.4479,0.3628,0.326,0.323,0.3231,0.2616,0.0,0.0,0.0555,0.0,0.0,0.0,0.0,0.0,0.0,0.0,0.0,0.0,0.0,0.0,0.0,0.0,0.0,0.0,0.0,0.0,0.0,0.0,0.0,0.0,0.0,0.0,0.0,0.0,0.0,0.0,0.0,0.0,0.0,0.0,0.0,0.0,0.0,0.0,0.0,0.8909,0.8909,0.8909,0.8909,0.8909,0.8909,0.8909,0.8909,0.8909,0.8909,0.8909,0.8909,0.8909,0.8909,0.8909,0.8909,0.8909,0.8909,0.8909,0.8909,0.8909,0.8909,0.8909,0.8909,0.8909,0.8909,0.8909,0.8909,0.8909,0.8909,0.8909,0.8909,0.8909,0.8909,0.8909,0.8909,0.8909,0.8909,0.8909,0.8909,0.8909,0.8909,0.8909,0.8909,0.8909,0.8909,0.8909,0.8909,0.8909,0.8909,0.8909,0.8909,0.8912,0.8988,0.9018,0.9028,0.9079,0.915,0.9257,0.9299,0.9332,0.9458,0.9466,0.9199,0.8922,0.8777,0.809,0.6799,0.5829,0.476,0.2922,0.1848,0.1633,0.1572,0.1572,0.111,0.0,0.0,0.0,0.0,0.0,0.0,0.0,0.0,0.0,0.0,0.0,0.0,0.0,0.0,0.0,0.0,0.0,0.0,0.0,0.0,0.0,0.0,0.0,0.0,0.0,0.0,0.0,0.0,0.0,0.0,0.0,0.0,0.0,0.0,0.0,0.0,0.0,0.0,0.0,0.8909,0.8909,0.8909,0.8909,0.8909,0.8909,0.8909,0.8909,0.8909,0.8909,0.8909,0.8909,0.8909,0.8909,0.8909,0.8909,0.8909,0.8909,0.8909,0.8909,0.8909,0.8909,0.8909,0.8909,0.8909,0.8909,0.8909,0.8909,0.8909,0.8909,0.8909,0.8909,0.8909,0.8909,0.8909,0.8909,0.8909,0.8909,0.8909,0.8909,0.8909,0.8909,0.8909,0.8909,0.8909,0.8909,0.8909,0.8929,0.8929,0.8912,0.8926,0.8943,0.8953,0.9114,0.9224,0.9199,0.9332,0.9386,0.9413,0.942,0.9459,0.9595,0.9566,0.8974,0.7906,0.7646,0.6825,0.5006,0.3689,0.2677,0.2063,0.1079,0.0,0.0,0.0,0.0,0.0,0.0,0.0,0.0,0.0,0.0,0.0,0.0,0.0,0.0,0.0,0.0,0.0,0.0,0.0,0.0,0.0,0.0,0.0,0.0,0.0,0.0,0.0,0.0,0.0,0.0,0.0,0.0,0.0,0.0,0.0,0.0,0.0,0.0,0.0,0.0,0.0,0.0,0.0,0.8909,0.8909,0.8909,0.8909,0.8909,0.8909,0.8909,0.8909,0.8909,0.8909,0.8909,0.8909,0.8909,0.8909,0.8909,0.8909,0.8909,0.8909,0.8909,0.8909,0.8909,0.8909,0.8909,0.8909,0.8909,0.8909,0.8909,0.8909,0.8909,0.8909,0.8909,0.8909,0.8909,0.8909,0.8909,0.8909,0.8909,0.8909,0.8909,0.8909,0.8909,0.8909,0.8909,0.8909,0.8909,0.8912,0.8923,0.9042,0.9039,0.8926,0.9042,0.9124,0.9134,0.9239,0.9349,0.9359,0.9393,0.9439,0.9527,0.9547,0.9618,0.971,0.96,0.9045,0.7568,0.736,0.5984,0.3904,0.2616,0.194,0.0925,0.0,0.0,0.0,0.0,0.0,0.0,0.0,0.0,0.0,0.0,0.0,0.0,0.0,0.0,0.0,0.0,0.0,0.0,0.0,0.0,0.0,0.0,0.0,0.0,0.0,0.0,0.0,0.0,0.0,0.0,0.0,0.0,0.0,0.0,0.0,0.0,0.0,0.0,0.0,0.0,0.0,0.0,0.0,0.0,0.8909,0.8909,0.8909,0.8909,0.8909,0.8909,0.8909,0.8909,0.8909,0.8909,0.8909,0.8909,0.8909,0.8909,0.8909,0.8909,0.8909,0.8909,0.8909,0.8909,0.8909,0.8909,0.8909,0.8909,0.8909,0.8909,0.8909,0.8909,0.8909,0.8909,0.8909,0.8909,0.8909,0.8909,0.8909,0.8909,0.8909,0.8909,0.8909,0.8909,0.8909,0.8909,0.8909,0.8909,0.8912,0.8929,0.9032,0.9203,0.9209,0.9093,0.9189,0.9277,0.9291,0.9395,0.9476,0.9479,0.953,0.9612,0.9673,0.9696,0.9734,0.9616,0.9326,0.7975,0.6536,0.58,0.4087,0.1878,0.1479,0.0956,0.0,0.0,0.0,0.0,0.0,0.0,0.0,0.0,0.0,0.0,0.0,0.0,0.0,0.0,0.0,0.0,0.0,0.0,0.0,0.0,0.0,0.0,0.0,0.0,0.0,0.0,0.0,0.0,0.0,0.0,0.0,0.0,0.0,0.0,0.0,0.0,0.0,0.0,0.0,0.0,0.0,0.0,0.0,0.0,0.0,0.8909,0.8909,0.8909,0.8909,0.8909,0.8909,0.8909,0.8909,0.8909,0.8909,0.8909,0.8909,0.8909,0.8909,0.8909,0.8909,0.8909,0.8909,0.8909,0.8909,0.8909,0.8909,0.8909,0.8909,0.8909,0.8909,0.8909,0.8909,0.8909,0.8909,0.8909,0.8909,0.8909,0.8909,0.8909,0.8909,0.8909,0.8909,0.8909,0.8909,0.8909,0.8909,0.8909,0.8912,0.8981,0.9055,0.9206,0.9339,0.9373,0.924,0.9362,0.9424,0.9425,0.9551,0.9622,0.9642,0.9687,0.9758,0.9721,0.9552,0.9441,0.9143,0.7944,0.6444,0.4914,0.3658,0.2278,0.0463,0.0,0.0,0.0,0.0,0.0,0.0,0.0,0.0,0.0,0.0,0.0,0.0,0.0,0.0,0.0,0.0,0.0,0.0,0.0,0.0,0.0,0.0,0.0,0.0,0.0,0.0,0.0,0.0,0.0,0.0,0.0,0.0,0.0,0.0,0.0,0.0,0.0,0.0,0.0,0.0,0.0,0.0,0.0,0.0,0.0,0.0,0.0,0.8909,0.8909,0.8909,0.8909,0.8909,0.8909,0.8909,0.8909,0.8909,0.8909,0.8909,0.8909,0.8909,0.8909,0.8909,0.8909,0.8909,0.8909,0.8909,0.8909,0.8909,0.8909,0.8909,0.8909,0.8909,0.8909,0.8909,0.8909,0.8909,0.8909,0.8909,0.8909,0.8909,0.8909,0.8909,0.8909,0.8909,0.8909,0.8909,0.8909,0.8909,0.8912,0.8916,0.8929,0.9059,0.9213,0.9359,0.9479,0.9537,0.953,0.9478,0.9377,0.9555,0.969,0.9724,0.9704,0.9697,0.9731,0.9542,0.862,0.7914,0.7761,0.6385,0.4761,0.326,0.274,0.1633,0.0,0.0,0.0,0.0,0.0,0.0,0.0,0.0,0.0,0.0,0.0,0.0,0.0,0.0,0.0,0.0,0.0,0.0,0.0,0.0,0.0,0.0,0.0,0.0,0.0,0.0,0.0,0.0,0.0,0.0,0.0,0.0,0.0,0.0,0.0,0.0,0.0,0.0,0.0,0.0,0.0,0.0,0.0,0.0,0.0,0.0,0.0,0.0,0.8909,0.8909,0.8909,0.8909,0.8909,0.8909,0.8909,0.8909,0.8909,0.8909,0.8909,0.8909,0.8909,0.8909,0.8909,0.8909,0.8909,0.8909,0.8909,0.8909,0.8909,0.8909,0.8909,0.8909,0.8909,0.8909,0.8909,0.8909,0.8909,0.8909,0.8909,0.8909,0.8909,0.8909,0.8909,0.8909,0.8909,0.8909,0.8909,0.8909,0.8909,0.8912,0.896,0.9076,0.9242,0.9444,0.949,0.9629,0.9696,0.9526,0.9006,0.8943,0.959,0.9744,0.9754,0.9727,0.8958,0.8742,0.8279,0.724,0.623,0.62,0.4702,0.3598,0.2432,0.1879,0.1018,0.0,0.0,0.0,0.0,0.0,0.0,0.0,0.0,0.0,0.0,0.0,0.0,0.0,0.0,0.0,0.0,0.0,0.0,0.0,0.0,0.0,0.0,0.0,0.0,0.0,0.0,0.0,0.0,0.0,0.0,0.0,0.0,0.0,0.0,0.0,0.0,0.0,0.0,0.0,0.0,0.0,0.0,0.0,0.0,0.0,0.0,0.0,0.0,0.8909,0.8909,0.8909,0.8909,0.8909,0.8909,0.8909,0.8909,0.8909,0.8909,0.8909,0.8909,0.8909,0.8909,0.8909,0.8909,0.8909,0.8909,0.8909,0.8909,0.8909,0.8909,0.8909,0.8909,0.8909,0.8909,0.8909,0.8909,0.8909,0.8909,0.8909,0.8909,0.8909,0.8909,0.8909,0.8909,0.8909,0.8909,0.8909,0.8909,0.8926,0.8943,0.9066,0.9266,0.9429,0.9588,0.9523,0.9406,0.9319,0.9326,0.7911,0.7914,0.862,0.9052,0.9055,0.8867,0.7609,0.7088,0.6719,0.5588,0.4518,0.4487,0.3045,0.2217,0.1725,0.0,0.0,0.0,0.0,0.0,0.0,0.0,0.0,0.0,0.0,0.0,0.0,0.0,0.0,0.0,0.0,0.0,0.0,0.0,0.0,0.0,0.0,0.0,0.0,0.0,0.0,0.0,0.0,0.0,0.0,0.0,0.0,0.0,0.0,0.0,0.0,0.0,0.0,0.0,0.0,0.0,0.0,0.0,0.0,0.0,0.0,0.0,0.0,0.0,0.0,0.8909,0.8909,0.8909,0.8909,0.8909,0.8909,0.8909,0.8909,0.8909,0.8909,0.8909,0.8909,0.8909,0.8909,0.8909,0.8909,0.8909,0.8909,0.8909,0.8909,0.8909,0.8909,0.8909,0.8909,0.8909,0.8909,0.8909,0.8909,0.8909,0.8909,0.8909,0.8909,0.8909,0.8909,0.8909,0.8909,0.8909,0.8909,0.8909,0.8912,0.8953,0.8893,0.9017,0.9166,0.9136,0.9157,0.9144,0.8417,0.7789,0.7637,0.6169,0.5651,0.5743,0.5835,0.5804,0.6018,0.5682,0.5345,0.51,0.3843,0.3045,0.2524,0.151,0.0,0.0,0.0,0.0,0.0,0.0,0.0,0.0,0.0,0.0,0.0,0.0,0.0,0.0,0.0,0.0,0.0,0.0,0.0,0.0,0.0,0.0,0.0,0.0,0.0,0.0,0.0,0.0,0.0,0.0,0.0,0.0,0.0,0.0,0.0,0.0,0.0,0.0,0.0,0.0,0.0,0.0,0.0,0.0,0.0,0.0,0.0,0.0,0.0,0.0,0.0,0.0,0.8909,0.8909,0.8909,0.8909,0.8909,0.8909,0.8909,0.8909,0.8909,0.8909,0.8909,0.8909,0.8909,0.8909,0.8909,0.8909,0.8909,0.8909,0.8909,0.8909,0.8909,0.8909,0.8909,0.8909,0.8909,0.8909,0.8909,0.8909,0.8909,0.8909,0.8909,0.8909,0.8909,0.8909,0.8909,0.8909,0.8909,0.8909,0.8912,0.8922,0.8897,0.8558,0.8231,0.8132,0.7591,0.7223,0.7104,0.6691,0.6108,0.5802,0.4516,0.3844,0.3445,0.3076,0.3168,0.4303,0.409,0.366,0.3383,0.2186,0.1263,0.114,0.0,0.0,0.0,0.0,0.0,0.0,0.0,0.0,0.0,0.0,0.0,0.0,0.0,0.0,0.0,0.0,0.0,0.0,0.0,0.0,0.0,0.0,0.0,0.0,0.0,0.0,0.0,0.0,0.0,0.0,0.0,0.0,0.0,0.0,0.0,0.0,0.0,0.0,0.0,0.0,0.0,0.0,0.0,0.0,0.0,0.0,0.0,0.0,0.0,0.0,0.0,0.0,0.0,0.8909,0.8909,0.8909,0.8909,0.8909,0.8909,0.8909,0.8909,0.8909,0.8909,0.8909,0.8909,0.8909,0.8909,0.8909,0.8909,0.8909,0.8909,0.8909,0.8909,0.8909,0.8909,0.8909,0.8909,0.8909,0.8909,0.8909,0.8909,0.8909,0.8909,0.8909,0.8909,0.8909,0.8909,0.8909,0.8909,0.8909,0.8909,0.8912,0.8934,0.8441,0.741,0.6646,0.6633,0.5496,0.5068,0.5284,0.4702,0.4487,0.3996,0.3015,0.2002,0.1787,0.074,0.1294,0.3168,0.2616,0.2155,0.1663,0.0,0.0,0.0,0.0,0.0,0.0,0.0,0.0,0.0,0.0,0.0,0.0,0.0,0.0,0.0,0.0,0.0,0.0,0.0,0.0,0.0,0.0,0.0,0.0,0.0,0.0,0.0,0.0,0.0,0.0,0.0,0.0,0.0,0.0,0.0,0.0,0.0,0.0,0.0,0.0,0.0,0.0,0.0,0.0,0.0,0.0,0.0,0.0,0.0,0.0,0.0,0.0,0.0,0.0,0.0,0.0,0.8909,0.8909,0.8909,0.8909,0.8909,0.8909,0.8909,0.8909,0.8909,0.8909,0.8909,0.8909,0.8909,0.8909,0.8909,0.8909,0.8909,0.8909,0.8909,0.8909,0.8909,0.8909,0.8909,0.8909,0.8909,0.8909,0.8909,0.8909,0.8909,0.8909,0.8909,0.8909,0.8909,0.8909,0.8909,0.8909,0.8909,0.8909,0.8861,0.8286,0.7111,0.5776,0.5168,0.5036,0.4756,0.4458,0.4151,0.3353,0.28,0.2616,0.1233,0.0401,0.0247,0.0185,0.0062,0.0432,0.037,0.0,0.0,0.0,0.0,0.0,0.0,0.0,0.0,0.0,0.0,0.0,0.0,0.0,0.0,0.0,0.0,0.0,0.0,0.0,0.0,0.0,0.0,0.0,0.0,0.0,0.0,0.0,0.0,0.0,0.0,0.0,0.0,0.0,0.0,0.0,0.0,0.0,0.0,0.0,0.0,0.0,0.0,0.0,0.0,0.0,0.0,0.0,0.0,0.0,0.0,0.0,0.0,0.0,0.0,0.0,0.0,0.0,0.0,0.8909,0.8909,0.8909,0.8909,0.8909,0.8909,0.8909,0.8909,0.8909,0.8909,0.8909,0.8909,0.8909,0.8909,0.8909,0.8909,0.8909,0.8909,0.8909,0.8909,0.8909,0.8909,0.8909,0.8909,0.8909,0.8909,0.8909,0.8909,0.8909,0.8909,0.8909,0.8909,0.8909,0.8909,0.8909,0.8909,0.8909,0.8703,0.8129,0.7051,0.566,0.4313,0.3481,0.3473,0.2707,0.0,0.0,0.1633,0.1079,0.0986,0.0216,0.0,0.0,0.0,0.0,0.0,0.0,0.0,0.0,0.0,0.0,0.0,0.0,0.0,0.0,0.0,0.0,0.0,0.0,0.0,0.0,0.0,0.0,0.0,0.0,0.0,0.0,0.0,0.0,0.0,0.0,0.0,0.0,0.0,0.0,0.0,0.0,0.0,0.0,0.0,0.0,0.0,0.0,0.0,0.0,0.0,0.0,0.0,0.0,0.0,0.0,0.0,0.0,0.0,0.0,0.0,0.0,0.0,0.0,0.0,0.0,0.0,0.0,0.0,0.0,0.8909,0.8909,0.8909,0.8909,0.8909,0.8909,0.8909,0.8909,0.8909,0.8909,0.8909,0.8909,0.8909,0.8909,0.8909,0.8909,0.8909,0.8909,0.8909,0.8909,0.8909,0.8909,0.8909,0.8909,0.8909,0.8909,0.8909,0.8909,0.8909,0.8909,0.8909,0.8909,0.8909,0.8909,0.8909,0.8857,0.8756,0.804,0.6378,0.5088,0.3962,0.2623,0.2027,0.151,0.0,0.0,0.0,0.0,0.0,0.0,0.0,0.0,0.0,0.0,0.0,0.0,0.0,0.0,0.0,0.0,0.0,0.0,0.0,0.0,0.0,0.0,0.0,0.0,0.0,0.0,0.0,0.0,0.0,0.0,0.0,0.0,0.0,0.0,0.0,0.0,0.0,0.0,0.0,0.0,0.0,0.0,0.0,0.0,0.0,0.0,0.0,0.0,0.0,0.0,0.0,0.0,0.0,0.0,0.0,0.0,0.0,0.0,0.0,0.0,0.0,0.0,0.0,0.0,0.0,0.0,0.0,0.0,0.0,0.0,0.0,0.8909,0.8909,0.8909,0.8909,0.8909,0.8909,0.8909,0.8909,0.8909,0.8909,0.8909,0.8909,0.8909,0.8909,0.8909,0.8909,0.8909,0.8909,0.8909,0.8909,0.8909,0.8909,0.8909,0.8909,0.8909,0.8909,0.8909,0.8909,0.8909,0.8909,0.8909,0.8909,0.8909,0.8909,0.8809,0.8628,0.764,0.6453,0.439,0.3023,0.2176,0.0,0.0,0.0,0.0,0.0,0.0,0.0,0.0,0.0,0.0,0.0,0.0,0.0,0.0,0.0,0.0,0.0,0.0,0.0,0.0,0.0,0.0,0.0,0.0,0.0,0.0,0.0,0.0,0.0,0.0,0.0,0.0,0.0,0.0,0.0,0.0,0.0,0.0,0.0,0.0,0.0,0.0,0.0,0.0,0.0,0.0,0.0,0.0,0.0,0.0,0.0,0.0,0.0,0.0,0.0,0.0,0.0,0.0,0.0,0.0,0.0,0.0,0.0,0.0,0.0,0.0,0.0,0.0,0.0,0.0,0.0,0.0,0.0,0.0,0.8909,0.8909,0.8909,0.8909,0.8909,0.8909,0.8909,0.8909,0.8909,0.8909,0.8909,0.8909,0.8909,0.8909,0.8909,0.8909,0.8909,0.8909,0.8909,0.8909,0.8909,0.8909,0.8909,0.8909,0.8909,0.8909,0.8909,0.8909,0.8909,0.8909,0.8909,0.8909,0.8826,0.8909,0.8756,0.7735,0.6177,0.4371,0.2865,0.1902,0.0795,0.0,0.0,0.0,0.0,0.0,0.0,0.0,0.0,0.0,0.0,0.0,0.0,0.0,0.0,0.0,0.0,0.0,0.0,0.0,0.0,0.0,0.0,0.0,0.0,0.0,0.0,0.0,0.0,0.0,0.0,0.0,0.0,0.0,0.0,0.0,0.0,0.0,0.0,0.0,0.0,0.0,0.0,0.0,0.0,0.0,0.0,0.0,0.0,0.0,0.0,0.0,0.0,0.0,0.0,0.0,0.0,0.0,0.0,0.0,0.0,0.0,0.0,0.0,0.0,0.0,0.0,0.0,0.0,0.0,0.0,0.0,0.0,0.0,0.0,0.8909,0.8909,0.8909,0.8909,0.8909,0.8909,0.8909,0.8909,0.8909,0.8909,0.8909,0.8909,0.8909,0.8909,0.8909,0.8909,0.8909,0.8909,0.8909,0.8909,0.8909,0.8909,0.8909,0.8909,0.8909,0.8909,0.8909,0.8909,0.8909,0.8909,0.8909,0.8799,0.8432,0.8208,0.7714,0.6249,0.4237,0.2718,0.1605,0.1187,0.0092,0.0,0.0,0.0,0.0,0.0,0.0,0.0,0.0,0.0,0.0,0.0,0.0,0.0,0.0,0.0,0.0,0.0,0.0,0.0,0.0,0.0,0.0,0.0,0.0,0.0,0.0,0.0,0.0,0.0,0.0,0.0,0.0,0.0,0.0,0.0,0.0,0.0,0.0,0.0,0.0,0.0,0.0,0.0,0.0,0.0,0.0,0.0,0.0,0.0,0.0,0.0,0.0,0.0,0.0,0.0,0.0,0.0,0.0,0.0,0.0,0.0,0.0,0.0,0.0,0.0,0.0,0.0,0.0,0.0,0.0,0.0,0.0,0.0,0.0,0.8909,0.8909,0.8909,0.8909,0.8909,0.8909,0.8909,0.8909,0.8909,0.8909,0.8909,0.8909,0.8909,0.8909,0.8909,0.8909,0.8909,0.8909,0.8909,0.8909,0.8909,0.8909,0.8909,0.8909,0.8909,0.8909,0.8909,0.8909,0.8909,0.8909,0.8909,0.8109,0.7165,0.6398,0.6365,0.3839,0.2366,0.1985,0.0765,0.0,0.0,0.0,0.0,0.0,0.0,0.0,0.0,0.0,0.0,0.0,0.0,0.0,0.0,0.0,0.0,0.0,0.0,0.0,0.0,0.0,0.0,0.0,0.0,0.0,0.0,0.0,0.0,0.0,0.0,0.0,0.0,0.0,0.0,0.0,0.0,0.0,0.0,0.0,0.0,0.0,0.0,0.0,0.0,0.0,0.0,0.0,0.0,0.0,0.0,0.0,0.0,0.0,0.0,0.0,0.0,0.0,0.0,0.0,0.0,0.0,0.0,0.0,0.0,0.0,0.0,0.0,0.0,0.0,0.0,0.0,0.0,0.0,0.0,0.0,0.0,0.8909,0.8909,0.8909,0.8909,0.8909,0.8909,0.8909,0.8909,0.8909,0.8909,0.8909,0.8909,0.8909,0.8909,0.8909,0.8909,0.8909,0.8909,0.8909,0.8909,0.8909,0.8909,0.8909,0.8909,0.8909,0.8909,0.8909,0.8909,0.8909,0.8771,0.8125,0.7238,0.5237,0.3856,0.3557,0.2363,0.1865,0.0885,0.0,0.0,0.0,0.0,0.0,0.0,0.0,0.0,0.0,0.0,0.0,0.0,0.0,0.0,0.0,0.0,0.0,0.0,0.0,0.0,0.0,0.0,0.0,0.0,0.0,0.0,0.0,0.0,0.0,0.0,0.0,0.0,0.0,0.0,0.0,0.0,0.0,0.0,0.0,0.0,0.0,0.0,0.0,0.0,0.0,0.0,0.0,0.0,0.0,0.0,0.0,0.0,0.0,0.0,0.0,0.0,0.0,0.0,0.0,0.0,0.0,0.0,0.0,0.0,0.0,0.0,0.0,0.0,0.0,0.0,0.0,0.0,0.0,0.0,0.0,0.0,0.0,0.8909,0.8909,0.8909,0.8909,0.8909,0.8909,0.8909,0.8909,0.8909,0.8909,0.8909,0.8909,0.8909,0.8909,0.8909,0.8909,0.8909,0.8909,0.8909,0.8909,0.8909,0.8909,0.8909,0.8909,0.8909,0.8909,0.8909,0.8909,0.8826,0.8353,0.6923,0.4953,0.3225,0.2312,0.1778,0.1259,0.097,0.0,0.0,0.0,0.0,0.0,0.0,0.0,0.0,0.0,0.0,0.0,0.0,0.0,0.0,0.0,0.0,0.0,0.0,0.0,0.0,0.0,0.0,0.0,0.0,0.0,0.0,0.0,0.0,0.0,0.0,0.0,0.0,0.0,0.0,0.0,0.0,0.0,0.0,0.0,0.0,0.0,0.0,0.0,0.0,0.0,0.0,0.0,0.0,0.0,0.0,0.0,0.0,0.0,0.0,0.0,0.0,0.0,0.0,0.0,0.0,0.0,0.0,0.0,0.0,0.0,0.0,0.0,0.0,0.0,0.0,0.0,0.0,0.0,0.0,0.0,0.0,0.0,0.0,0.8909,0.8909,0.8909,0.8909,0.8909,0.8909,0.8909,0.8909,0.8909,0.8909,0.8909,0.8909,0.8909,0.8909,0.8909,0.8909,0.8909,0.8909,0.8909,0.8909,0.8909,0.8909,0.8909,0.8909,0.8909,0.8909,0.8854,0.8712,0.8633,0.6844,0.4747,0.3111,0.2212,0.1286,0.0602,0.0,0.0,0.0,0.0,0.0,0.0,0.0,0.0,0.0,0.0,0.0,0.0,0.0,0.0,0.0,0.0,0.0,0.0,0.0,0.0,0.0,0.0,0.0,0.0,0.0,0.0,0.0,0.0,0.0,0.0,0.0,0.0,0.0,0.0,0.0,0.0,0.0,0.0,0.0,0.0,0.0,0.0,0.0,0.0,0.0,0.0,0.0,0.0,0.0,0.0,0.0,0.0,0.0,0.0,0.0,0.0,0.0,0.0,0.0,0.0,0.0,0.0,0.0,0.0,0.0,0.0,0.0,0.0,0.0,0.0,0.0,0.0,0.0,0.0,0.0,0.0,0.0,0.0,0.0,0.0,0.8909,0.8909,0.8909,0.8909,0.8909,0.8909,0.8909,0.8909,0.8909,0.8909,0.8909,0.8909,0.8909,0.8909,0.8909,0.8909,0.8909,0.8909,0.8909,0.8909,0.8909,0.8909,0.8909,0.8909,0.8909,0.8854,0.8716,0.8162,0.687,0.5047,0.3585,0.2313,0.1259,0.0485,0.0,0.0,0.0,0.0,0.0,0.0,0.0,0.0,0.0,0.0,0.0,0.0,0.0,0.0,0.0,0.0,0.0,0.0,0.0,0.0,0.0,0.0,0.0,0.0,0.0,0.0,0.0,0.0,0.0,0.0,0.0,0.0,0.0,0.0,0.0,0.0,0.0,0.0,0.0,0.0,0.0,0.0,0.0,0.0,0.0,0.0,0.0,0.0,0.0,0.0,0.0,0.0,0.0,0.0,0.0,0.0,0.0,0.0,0.0,0.0,0.0,0.0,0.0,0.0,0.0,0.0,0.0,0.0,0.0,0.0,0.0,0.0,0.0,0.0,0.0,0.0,0.0,0.0,0.0,0.0,0.0,0.8909,0.8909,0.8909,0.8909,0.8909,0.8909,0.8909,0.8909,0.8909,0.8909,0.8909,0.8909,0.8909,0.8909,0.8909,0.8909,0.8909,0.8909,0.8909,0.8909,0.8909,0.8909,0.8909,0.8826,0.846,0.8322,0.7857,0.7146,0.5515,0.3669,0.2103,0.117,0.0,0.0,0.0,0.0,0.0,0.0,0.0,0.0,0.0,0.0,0.0,0.0,0.0,0.0,0.0,0.0,0.0,0.0,0.0,0.0,0.0,0.0,0.0,0.0,0.0,0.0,0.0,0.0,0.0,0.0,0.0,0.0,0.0,0.0,0.0,0.0,0.0,0.0,0.0,0.0,0.0,0.0,0.0,0.0,0.0,0.0,0.0,0.0,0.0,0.0,0.0,0.0,0.0,0.0,0.0,0.0,0.0,0.0,0.0,0.0,0.0,0.0,0.0,0.0,0.0,0.0,0.0,0.0,0.0,0.0,0.0,0.0,0.0,0.0,0.0,0.0,0.0,0.0,0.0,0.0,0.0,0.0,0.0,0.8909,0.8909,0.8909,0.8909,0.8909,0.8909,0.8909,0.8909,0.8909,0.8909,0.8909,0.8909,0.8909,0.8909,0.8909,0.8909,0.8909,0.8909,0.8909,0.8909,0.8909,0.8909,0.8909,0.8854,0.846,0.7426,0.6596,0.6181,0.4333,0.2591,0.1048,0.0,0.0,0.0,0.0,0.0,0.0,0.0,0.0,0.0,0.0,0.0,0.0,0.0,0.0,0.0,0.0,0.0,0.0,0.0,0.0,0.0,0.0,0.0,0.0,0.0,0.0,0.0,0.0,0.0,0.0,0.0,0.0,0.0,0.0,0.0,0.0,0.0,0.0,0.0,0.0,0.0,0.0,0.0,0.0,0.0,0.0,0.0,0.0,0.0,0.0,0.0,0.0,0.0,0.0,0.0,0.0,0.0,0.0,0.0,0.0,0.0,0.0,0.0,0.0,0.0,0.0,0.0,0.0,0.0,0.0,0.0,0.0,0.0,0.0,0.0,0.0,0.0,0.0,0.0,0.0,0.0,0.0,0.0,0.0,0.8909,0.8909,0.8909,0.8909,0.8909,0.8909,0.8909,0.8909,0.8909,0.8909,0.8909,0.8909,0.8909,0.8909,0.8909,0.8909,0.8909,0.8909,0.8909,0.8909,0.8909,0.8909,0.8909,0.8881,0.8494,0.8131,0.7129,0.4962,0.2979,0.1379,0.0,0.0,0.0,0.0,0.0,0.0,0.0,0.0,0.0,0.0,0.0,0.0,0.0,0.0,0.0,0.0,0.0,0.0,0.0,0.0,0.0,0.0,0.0,0.0,0.0,0.0,0.0,0.0,0.0,0.0,0.0,0.0,0.0,0.0,0.0,0.0,0.0,0.0,0.0,0.0,0.0,0.0,0.0,0.0,0.0,0.0,0.0,0.0,0.0,0.0,0.0,0.0,0.0,0.0,0.0,0.0,0.0,0.0,0.0,0.0,0.0,0.0,0.0,0.0,0.0,0.0,0.0,0.0,0.0,0.0,0.0,0.0,0.0,0.0,0.0,0.0,0.0,0.0,0.0,0.0,0.0,0.0,0.0,0.0,0.0,0.8909,0.8909,0.8909,0.8909,0.8909,0.8909,0.8909,0.8909,0.8909,0.8909,0.8909,0.8909,0.8909,0.8909,0.8909,0.8909,0.8909,0.8909,0.8909,0.8909,0.8909,0.8909,0.8909,0.8864,0.7536,0.7011,0.4688,0.2487,0.0,0.0,0.0,0.0,0.0,0.0,0.0,0.0,0.0,0.0,0.0,0.0,0.0,0.0,0.0,0.0,0.0,0.0,0.0,0.0,0.0,0.0,0.0,0.0,0.0,0.0,0.0,0.0,0.0,0.0,0.0,0.0,0.0,0.0,0.0,0.0,0.0,0.0,0.0,0.0,0.0,0.0,0.0,0.0,0.0,0.0,0.0,0.0,0.0,0.0,0.0,0.0,0.0,0.0,0.0,0.0,0.0,0.0,0.0,0.0,0.0,0.0,0.0,0.0,0.0,0.0,0.0,0.0,0.0,0.0,0.0,0.0,0.0,0.0,0.0,0.0,0.0,0.0,0.0,0.0,0.0,0.0,0.0,0.0,0.0,0.0,0.0,0.8909,0.8909,0.8909,0.8909,0.8909,0.8909,0.8909,0.8909,0.8909,0.8909,0.8909,0.8909,0.8909,0.8909,0.8909,0.8909,0.8909,0.8909,0.8909,0.8909,0.8909,0.8909,0.8923,0.8804,0.7297,0.503,0.2603,0.0,0.0,0.0,0.0,0.0,0.0,0.0,0.0,0.0,0.0,0.0,0.0,0.0,0.0,0.0,0.0,0.0,0.0,0.0,0.0,0.0,0.0,0.0,0.0,0.0,0.0,0.0,0.0,0.0,0.0,0.0,0.0,0.0,0.0,0.0,0.0,0.0,0.0,0.0,0.0,0.0,0.0,0.0,0.0,0.0,0.0,0.0,0.0,0.0,0.0,0.0,0.0,0.0,0.0,0.0,0.0,0.0,0.0,0.0,0.0,0.0,0.0,0.0,0.0,0.0,0.0,0.0,0.0,0.0,0.0,0.0,0.0,0.0,0.0,0.0,0.0,0.0,0.0,0.0,0.0,0.0,0.0,0.0,0.0,0.0,0.0,0.0,0.0,0.8909,0.8909,0.8909,0.8909,0.8909,0.8909,0.8909,0.8909,0.8909,0.8909,0.8909,0.8909,0.8909,0.8909,0.8909,0.8909,0.8909,0.8909,0.8909,0.8909,0.8909,0.8909,0.8713,0.8342,0.7075,0.4722,0.231,0.0,0.0,0.0,0.0,0.0,0.0,0.0,0.0,0.0,0.0,0.0,0.0,0.0,0.0,0.0,0.0,0.0,0.0,0.0,0.0,0.0,0.0,0.0,0.0,0.0,0.0,0.0,0.0,0.0,0.0,0.0,0.0,0.0,0.0,0.0,0.0,0.0,0.0,0.0,0.0,0.0,0.0,0.0,0.0,0.0,0.0,0.0,0.0,0.0,0.0,0.0,0.0,0.0,0.0,0.0,0.0,0.0,0.0,0.0,0.0,0.0,0.0,0.0,0.0,0.0,0.0,0.0,0.0,0.0,0.0,0.0,0.0,0.0,0.0,0.0,0.0,0.0,0.0,0.0,0.0,0.0,0.0,0.0,0.0,0.0,0.0,0.0,0.0]},{"header":{"parameterUnit":"m.s-1","parameterCategory":1,"la1":31.0,"la2":29.5877,"lo1":-88.7671,"lo2":-86.6584,"dy":0.0162,"dx":0.0185,"nx":115,"ny":88,"refTime":"2023-05-28T00:00:00:Z","depth":0,"parameterNumber":3,"parameterNumberName":"V-component_of_WINDS"},"data":[0.0,0.0,0.0,0.0,0.0,0.0,0.0,0.0,0.0,0.0,0.0,0.0,0.0,0.0,0.0,0.0,0.0,0.0,0.0,0.0,0.0,0.0,0.0,0.0,0.0,0.0,0.0,0.0,0.0,0.0,0.0,0.0,0.0,0.0,0.0,0.0,0.0,0.0,0.0,0.0,0.0,0.0,0.0,0.0,0.0,0.0,0.0,0.0,0.0,0.0,0.0,0.0,0.0,0.0,0.0,0.0,0.0,0.0,0.0,0.0,0.0,0.0,0.0,0.0,0.0,0.0,0.0,0.0,0.0,0.0,0.0,0.0,0.0,0.0,0.0,0.0,0.0,0.0,0.0,0.0,0.0,0.0,0.0,0.0,0.0,0.0,0.0,0.0,0.0,0.0,0.0,0.0,0.0,0.0,0.0,0.0,0.0,0.0,0.0,0.0,0.0,0.0,0.0,0.0,0.0,0.0,0.0,0.0,0.0,0.0,0.0,0.0,0.0,0.0,0.0,0.0,0.0,0.0,0.0,0.0,0.0,0.0,0.0,0.0,0.0,0.0,0.0,0.0,0.0,0.0,0.0,0.0,0.0,0.0,0.0,0.0,0.0,0.0,0.0,0.0,0.0,0.0,0.0,0.0,0.0,0.0,0.0,0.0,0.0,0.0,0.0,0.0,0.0,0.0,0.0,0.0,0.0,0.0,0.0,0.0,0.0,0.0,0.0,0.0,0.0,0.0,0.0,0.0,0.0,0.0,0.0,0.0,0.0,0.0,0.0,0.0,0.0,0.0,0.0,0.0,0.0,0.0,0.0,0.0,0.0,0.0,0.0,0.0,0.0,0.0,0.0,0.0,0.0,0.0,0.0,0.0,0.0,0.0,0.0,0.0,0.0,0.0,0.0,0.0,0.0,0.0,0.0,0.0,0.0,0.0,0.0,0.0,0.0,0.0,0.0,0.0,0.0,0.0,0.0,0.0,0.0,0.0,0.0,0.0,0.0,0.0,0.0,0.0,0.0,0.0,0.0,0.0,0.0,0.0,0.0,0.0,0.0,0.0,0.0,0.0,0.0,0.0,0.0,0.0,0.0,0.0,0.0,0.0,0.0,0.0,0.0,0.0,0.0,0.0,0.0,0.0,0.0,0.0,0.0,0.0,0.0,0.0,0.0,0.0,0.0,0.0,0.0,0.0,0.0,0.0,0.0,0.0,0.0,0.0,0.0,0.0,0.0,0.0,0.0,0.0,0.0,0.0,0.0,0.0,0.0,0.0,0.0,0.0,0.0,0.0,0.0,0.0,0.0,0.0,0.0,0.0,0.0,0.0,0.0,0.0,0.0,0.0,0.0,0.0,0.0,0.0,0.0,0.0,0.0,0.0,0.0,0.0,0.0,0.0,0.0,0.0,0.0,0.0,0.0,0.0,0.0,0.0,0.0,0.0,0.0,0.0,0.0,0.0,0.0,0.0,0.0,0.0,0.0,0.0,0.0,0.0,0.0,0.0,0.0,0.0,0.0,0.0,0.0,0.0,0.0,0.0,0.0,0.0,0.0,0.0,0.0,0.0,0.0,0.0,0.0,0.0,0.0,0.0,0.0,0.0,0.0,0.0,0.0,0.0,0.0,0.0,0.0,0.0,0.0,0.0,0.0,0.0,0.0,0.0,0.0,0.0,0.0,0.0,0.0,0.0,0.0,0.0,0.0,0.0,0.0,0.0,0.0,0.0,0.0,0.0,0.0,0.0,0.0,0.0,0.0,0.0,0.0,0.0,0.0,0.0,0.0,0.0,0.0,0.0,0.0,0.0,0.0,0.0,0.0,0.0,0.0,0.0,0.0,0.0,0.0,0.0,0.0,0.0,0.0,0.0,0.0,0.0,0.0,0.0,0.0,0.0,0.0,0.0,0.0,0.0,0.0,0.0,0.0,0.0,0.0,0.0,0.0,0.0,0.0,0.0,0.0,0.0,0.0,0.0,0.0,0.0,0.0,0.0,0.0,0.0,0.0,0.0,0.0,0.0,0.0,0.0,0.0,0.0,0.0,0.0,0.0,0.0,0.0,0.0,0.0,0.0,0.0,0.0,0.0,0.0,0.0,0.0,0.0,0.0,0.0,0.0,0.0,0.0,0.0,0.0,0.0,0.0,0.0,0.0,0.0,0.0,0.0,0.0,0.0,0.0,0.0,0.0,0.0,0.0,0.0,0.0,0.0,0.0,0.0,0.0,0.0,0.0,0.0,0.0,0.0,0.0,0.0,0.0,0.0,0.0,0.0,0.0,0.0,0.0,0.0,0.0,0.0,0.0,0.0,0.0,0.0,0.0,0.0,0.0,0.0,0.0,0.0,0.0,0.0,0.0,0.0,0.0,0.0,0.0,0.0,0.0,0.0,0.0,0.0,0.0,0.0,0.0,0.0,0.0,0.0,0.0,0.0,0.0,0.0,0.0,0.0,0.0,0.0,0.0,0.0,0.0,0.0,0.0,0.0,0.0,0.0,0.0,0.0,0.0,0.0,0.0,0.0,0.0,0.0,0.0,0.0,0.0,0.0,0.0,0.0,0.0,0.0,0.0,0.0,0.0,0.0,0.0,0.0,0.0,0.0,0.0,0.0,0.0,0.0,0.0,0.0,0.0,0.0,0.0,0.0,0.0,0.0,0.0,0.0,0.0,0.0,0.0,0.0,0.0,0.0,0.0,0.0,0.0,0.0,0.0,0.0,0.0,0.0,0.0,0.0,0.0,0.0,0.0,0.0,0.0,0.0,0.0,0.0,0.0,0.0,0.0,0.0,0.0,0.0,0.0,0.0,0.0,0.0,0.0,0.0,0.0,0.0,0.0,0.0,0.0,0.0,0.0,0.0,0.0,0.0,0.0,0.0,0.0,0.0,0.0,0.0,0.0,0.0,0.0,0.0,0.0,0.0,0.0,0.0,0.0,0.0,0.0,0.0,0.0,0.0,0.0,0.0,0.0,0.0,0.0,0.0,0.0,0.0,0.0,0.0,0.0,0.0,0.0,0.0,0.0,0.0,0.0,0.0,0.0,0.0,0.0,0.0,0.0,0.0,0.0,0.0,0.0,0.0,0.0,0.0,0.0,0.0,0.0,0.0,0.0,0.0,0.0,0.0,0.0,0.0,0.0,0.0,0.0,0.0,0.0,0.0,0.0,0.0,0.0,0.0,0.0,0.0,0.0,0.0,0.0,0.0,0.0,0.0,0.0,0.0,0.0,0.0,0.0,0.0,0.0,0.0,0.0,0.0,0.0,0.0,0.0,0.0,0.0,0.0,0.0,0.0,0.0,0.0,0.0,0.0,0.0,0.0,0.0,0.0,0.0,0.0,0.0,0.0,0.0,0.0,0.0,0.0,0.0,0.0,0.0,0.0,0.0,0.0,0.0,0.0,0.0,0.0,0.0,0.0,0.0,0.0,0.0,0.0,0.0,0.0,0.0,0.0,0.0,0.0,0.0,0.0,0.0,0.0,0.0,0.0,0.0,0.0,0.0,0.0,0.0,0.0,0.0,0.0,0.0,0.0,0.0,0.0,0.0,0.0,0.0,0.0,0.0,0.0,0.0,0.0,0.0,0.0,0.0,0.0,0.0,0.0,0.0,0.0,0.0,0.0,0.0,0.0,0.0,0.0,0.0,0.0,0.0,0.0,0.0,0.0,0.0,0.0,0.0,0.0,0.0,0.0,0.0,0.0,0.0,0.0,0.0,0.0,0.0,0.0,0.0,0.0,0.0,0.0,0.0,0.0,0.0,0.0,0.0,0.0,0.0,0.0,0.0,0.0,0.0,0.0,0.0,0.0,0.0,0.0,0.0,0.0,0.0,0.0,0.0,0.0,0.0,0.0,0.0,0.0,0.0,0.0,0.0,0.0,0.0,0.0,0.0,0.0,0.0,0.0,0.0,0.0,0.0,0.0,0.0,0.0,0.0,0.0,0.0,0.0,0.0,0.0,0.0,0.0,0.0,0.0,0.0,0.0,0.0,0.0,0.0,0.0,0.0,0.0,0.0,0.0,0.0,0.0,0.0,0.0,0.0,0.0,0.0,0.0,0.0,0.0,0.0,0.0,0.0,0.0,0.0,0.0,0.0,0.0,0.0,0.0,0.0,0.0,0.0,0.0,0.0,0.0,0.0,0.0,0.0,0.0,0.0,0.0,0.0,0.0,0.0,0.0,0.0,0.0,0.0,0.0,0.0,0.0,0.0,0.0,0.0,0.0,0.0,0.0,0.0,0.0,0.0,0.0,0.0,0.0,0.0,0.0,0.0,0.0,0.0,0.0,0.0,2.6708,0.0,0.0,0.0,0.0,0.0,0.0,0.0,0.0,0.0,0.0,0.0,0.0,0.0,0.0,0.0,0.0,0.0,0.0,0.0,0.0,0.0,0.0,0.0,0.0,0.0,0.0,0.0,0.0,0.0,0.0,0.0,0.0,0.0,0.0,0.0,0.0,0.0,0.0,0.0,0.0,0.0,0.0,0.0,0.0,0.0,0.0,0.0,0.0,0.0,0.0,0.0,0.0,0.0,0.0,0.0,0.0,0.0,0.0,0.0,0.0,0.0,0.0,0.0,0.0,0.0,0.0,0.0,0.0,0.0,0.0,0.0,0.0,0.0,0.0,0.0,0.0,0.0,0.0,0.0,0.0,0.0,0.0,0.0,0.0,0.0,0.0,0.0,0.0,0.0,0.0,0.0,0.0,0.0,0.0,0.0,0.0,0.0,0.0,0.0,0.0,0.0,0.0,0.0,0.0,0.0,0.0,0.0,0.0,0.0,0.0,2.6708,2.6708,2.6708,2.6708,2.6708,0.0,0.0,0.0,0.0,0.0,0.0,0.0,0.0,0.0,0.0,0.0,0.0,0.0,0.0,0.0,0.0,0.0,0.0,0.0,0.0,0.0,0.0,0.0,0.0,0.0,0.0,0.0,0.0,0.0,0.0,0.0,0.0,0.0,0.0,0.0,0.0,0.0,0.0,0.0,0.0,0.0,0.0,0.0,0.0,0.0,0.0,0.0,0.0,0.0,0.0,0.0,0.0,0.0,0.0,0.0,0.0,0.0,0.0,0.0,0.0,0.0,0.0,0.0,0.0,0.0,0.0,0.0,0.0,0.0,0.0,0.0,0.0,0.0,0.0,0.0,0.0,0.0,0.0,0.0,0.0,0.0,0.0,0.0,0.0,0.0,0.0,0.0,0.0,0.0,0.0,0.0,0.0,0.0,0.0,0.0,0.0,0.0,0.0,0.0,0.0,0.0,0.0,0.0,0.0,0.0,0.0,0.0,0.0,0.0,0.0,0.0,0.0,2.6708,2.6708,2.6708,0.0,0.0,0.0,0.0,0.0,0.0,0.0,0.0,0.0,0.0,0.0,0.0,0.0,0.0,0.0,0.0,0.0,0.0,0.0,0.0,0.0,0.0,0.0,0.0,0.0,0.0,0.0,0.0,0.0,0.0,0.0,0.0,0.0,0.0,0.0,0.0,0.0,0.0,0.0,0.0,0.0,0.0,0.0,0.0,0.0,0.0,0.0,0.0,0.0,0.0,0.0,0.0,0.0,0.0,0.0,0.0,0.0,0.0,0.0,0.0,0.0,0.0,0.0,0.0,0.0,0.0,0.0,0.0,0.0,0.0,0.0,0.0,0.0,0.0,0.0,0.0,0.0,0.0,0.0,0.0,0.0,0.0,0.0,0.0,0.0,0.0,0.0,0.0,0.0,0.0,0.0,0.0,0.0,0.0,0.0,0.0,0.0,0.0,0.0,0.0,0.0,0.0,0.0,0.0,0.0,0.0,0.0,0.0,0.0,0.0,2.6708,2.6708,2.6708,0.0,2.6742,0.0,0.0,0.0,0.0,0.0,0.0,0.0,0.0,0.0,0.0,0.0,0.0,0.0,0.0,0.0,0.0,0.0,0.0,0.0,0.0,0.0,0.0,0.0,0.0,0.0,0.0,0.0,0.0,0.0,0.0,0.0,0.0,0.0,0.0,0.0,0.0,0.0,0.0,0.0,0.0,0.0,0.0,0.0,0.0,0.0,0.0,0.0,0.0,0.0,0.0,0.0,0.0,0.0,0.0,0.0,0.0,0.0,0.0,0.0,0.0,0.0,0.0,0.0,0.0,0.0,0.0,0.0,0.0,0.0,0.0,0.0,0.0,0.0,0.0,0.0,0.0,0.0,0.0,0.0,0.0,0.0,0.0,0.0,0.0,0.0,0.0,0.0,0.0,0.0,0.0,0.0,0.0,0.0,0.0,0.0,0.0,0.0,0.0,0.0,0.0,0.0,0.0,0.0,0.0,0.0,0.0,0.0,0.0,0.0,0.0,2.6894,2.7342,2.7816,2.8053,0.0,0.0,0.0,0.0,0.0,0.0,0.0,0.0,0.0,0.0,0.0,0.0,0.0,0.0,0.0,0.0,0.0,0.0,0.0,0.0,0.0,0.0,0.0,0.0,0.0,0.0,0.0,0.0,0.0,0.0,0.0,0.0,0.0,0.0,0.0,0.0,0.0,0.0,0.0,0.0,0.0,0.0,0.0,0.0,0.0,0.0,0.0,0.0,0.0,0.0,0.0,0.0,0.0,0.0,0.0,0.0,0.0,0.0,0.0,0.0,0.0,0.0,0.0,0.0,0.0,0.0,0.0,0.0,0.0,0.0,0.0,0.0,0.0,0.0,0.0,0.0,0.0,0.0,0.0,0.0,0.0,0.0,0.0,0.0,0.0,0.0,0.0,0.0,0.0,0.0,0.0,0.0,0.0,0.0,0.0,0.0,0.0,0.0,0.0,0.0,0.0,0.0,0.0,0.0,0.0,0.0,0.0,0.0,0.0,0.0,2.7004,2.7342,2.8086,2.8696,2.8993,2.8993,0.0,0.0,0.0,0.0,0.0,0.0,0.0,0.0,0.0,0.0,0.0,0.0,0.0,0.0,0.0,0.0,0.0,0.0,0.0,0.0,0.0,0.0,0.0,0.0,0.0,0.0,0.0,0.0,0.0,0.0,0.0,0.0,0.0,0.0,0.0,0.0,0.0,0.0,0.0,0.0,0.0,0.0,0.0,0.0,0.0,0.0,0.0,0.0,0.0,0.0,0.0,0.0,0.0,0.0,0.0,0.0,0.0,0.0,0.0,0.0,0.0,0.0,0.0,0.0,0.0,0.0,0.0,0.0,0.0,0.0,0.0,0.0,0.0,0.0,0.0,0.0,0.0,0.0,0.0,0.0,0.0,0.0,0.0,0.0,0.0,0.0,0.0,0.0,0.0,0.0,0.0,0.0,0.0,0.0,0.0,0.0,0.0,0.0,0.0,0.0,0.0,0.0,0.0,0.0,0.0,0.0,0.0,0.0,2.7722,2.7773,2.8146,2.8916,2.8993,2.8993,0.0,0.0,0.0,0.0,0.0,0.0,0.0,0.0,0.0,0.0,0.0,0.0,0.0,0.0,0.0,0.0,0.0,0.0,0.0,0.0,0.0,0.0,0.0,0.0,0.0,0.0,0.0,0.0,0.0,0.0,0.0,0.0,0.0,0.0,0.0,0.0,0.0,0.0,0.0,0.0,0.0,0.0,0.0,0.0,0.0,0.0,0.0,0.0,0.0,0.0,0.0,0.0,0.0,0.0,0.0,0.0,0.0,0.0,0.0,0.0,0.0,0.0,0.0,0.0,0.0,0.0,0.0,0.0,0.0,0.0,0.0,0.0,0.0,0.0,0.0,0.0,0.0,0.0,0.0,0.0,0.0,0.0,0.0,0.0,0.0,0.0,0.0,0.0,0.0,0.0,0.0,0.0,0.0,0.0,0.0,0.0,0.0,0.0,0.0,0.0,0.0,0.0,0.0,0.0,0.0,0.0,0.0,0.0,0.0,2.8535,2.9033,2.9405,2.9702,3.0159,3.0405,0.0,0.0,0.0,0.0,0.0,0.0,0.0,0.0,0.0,0.0,0.0,0.0,0.0,0.0,0.0,0.0,0.0,0.0,0.0,0.0,0.0,0.0,0.0,0.0,0.0,0.0,0.0,0.0,0.0,0.0,0.0,0.0,0.0,0.0,0.0,0.0,0.0,0.0,0.0,0.0,0.0,0.0,0.0,0.0,0.0,0.0,0.0,0.0,0.0,0.0,0.0,0.0,0.0,0.0,0.0,0.0,0.0,0.0,0.0,0.0,0.0,0.0,0.0,0.0,0.0,0.0,0.0,0.0,0.0,0.0,0.0,0.0,0.0,0.0,0.0,0.0,0.0,0.0,0.0,0.0,0.0,0.0,0.0,0.0,0.0,0.0,0.0,0.0,0.0,0.0,0.0,0.0,0.0,0.0,0.0,0.0,0.0,0.0,0.0,0.0,0.0,0.0,0.0,0.0,0.0,0.0,0.0,0.0,0.0,2.9339,0.0,3.0463,3.047,3.0937,3.119,0.0,0.0,0.0,0.0,0.0,0.0,0.0,0.0,0.0,0.0,0.0,0.0,0.0,0.0,0.0,0.0,0.0,0.0,0.0,0.0,0.0,0.0,0.0,0.0,0.0,0.0,0.0,0.0,0.0,0.0,0.0,0.0,0.0,0.0,0.0,0.0,0.0,0.0,0.0,0.0,0.0,0.0,0.0,0.0,0.0,0.0,0.0,0.0,0.0,0.0,0.0,0.0,0.0,0.0,0.0,0.0,0.0,0.0,0.0,0.0,0.0,0.0,0.0,0.0,0.0,0.0,0.0,0.0,0.0,0.0,0.0,0.0,0.0,0.0,0.0,0.0,0.0,0.0,0.0,0.0,0.0,0.0,0.0,0.0,0.0,0.0,0.0,0.0,0.0,0.0,0.0,0.0,0.0,0.0,0.0,0.0,0.0,0.0,0.0,0.0,0.0,0.0,0.0,0.0,0.0,0.0,0.0,0.0,2.9382,3.0091,3.0801,3.114,3.119,3.1173,3.119,0.0,0.0,0.0,0.0,0.0,0.0,0.0,0.0,0.0,0.0,0.0,0.0,0.0,0.0,0.0,0.0,0.0,0.0,0.0,0.0,0.0,0.0,0.0,0.0,0.0,0.0,0.0,0.0,0.0,0.0,0.0,0.0,0.0,0.0,0.0,0.0,0.0,0.0,0.0,0.0,0.0,0.0,0.0,0.0,0.0,0.0,0.0,0.0,0.0,0.0,0.0,0.0,0.0,0.0,0.0,0.0,0.0,0.0,0.0,0.0,0.0,0.0,0.0,0.0,0.0,0.0,0.0,0.0,0.0,0.0,0.0,0.0,0.0,0.0,0.0,0.0,0.0,0.0,0.0,0.0,0.0,0.0,0.0,0.0,0.0,0.0,0.0,0.0,0.0,0.0,0.0,0.0,0.0,0.0,0.0,0.0,0.0,0.0,0.0,0.0,0.0,0.0,0.0,0.0,0.0,0.0,0.0,0.0,0.0,3.0852,3.1082,3.119,3.119,3.119,3.119,0.0,0.0,0.0,0.0,0.0,0.0,0.0,0.0,0.0,0.0,0.0,0.0,0.0,0.0,0.0,0.0,0.0,0.0,0.0,0.0,0.0,0.0,0.0,0.0,0.0,0.0,0.0,0.0,0.0,0.0,0.0,0.0,0.0,0.0,0.0,0.0,0.0,0.0,0.0,0.0,0.0,0.0,0.0,0.0,0.0,0.0,0.0,0.0,0.0,0.0,0.0,0.0,0.0,0.0,0.0,0.0,0.0,0.0,0.0,0.0,0.0,0.0,0.0,0.0,0.0,0.0,0.0,0.0,0.0,0.0,0.0,0.0,0.0,0.0,0.0,0.0,0.0,0.0,0.0,0.0,0.0,0.0,0.0,0.0,0.0,0.0,0.0,0.0,0.0,0.0,0.0,0.0,0.0,0.0,0.0,0.0,0.0,0.0,0.0,0.0,0.0,0.0,0.0,0.0,0.0,0.0,0.0,0.0,0.0,3.119,3.119,3.119,3.119,3.119,3.119,3.119,0.0,0.0,0.0,0.0,0.0,0.0,0.0,0.0,0.0,0.0,0.0,0.0,0.0,0.0,0.0,0.0,0.0,0.0,0.0,0.0,0.0,0.0,0.0,0.0,0.0,0.0,0.0,0.0,0.0,0.0,0.0,0.0,0.0,0.0,0.0,0.0,0.0,0.0,0.0,0.0,0.0,0.0,0.0,0.0,0.0,0.0,0.0,0.0,0.0,0.0,0.0,0.0,0.0,0.0,0.0,0.0,0.0,0.0,0.0,0.0,0.0,0.0,0.0,0.0,0.0,0.0,0.0,0.0,0.0,0.0,0.0,0.0,0.0,0.0,0.0,0.0,0.0,0.0,0.0,0.0,0.0,0.0,0.0,0.0,0.0,0.0,0.0,0.0,0.0,0.0,0.0,0.0,0.0,0.0,0.0,0.0,0.0,0.0,0.0,0.0,0.0,0.0,0.0,0.0,0.0,0.0,0.0,0.0,3.119,3.119,3.119,3.119,3.119,3.119,0.0,0.0,0.0,0.0,0.0,0.0,0.0,0.0,0.0,0.0,0.0,0.0,0.0,0.0,0.0,0.0,0.0,0.0,0.0,0.0,0.0,0.0,0.0,0.0,0.0,0.0,0.0,0.0,0.0,0.0,0.0,0.0,0.0,0.0,0.0,0.0,0.0,0.0,0.0,0.0,0.0,0.0,0.0,0.0,0.0,0.0,0.0,0.0,0.0,0.0,0.0,0.0,0.0,0.0,0.0,0.0,0.0,0.0,0.0,0.0,0.0,0.0,0.0,0.0,0.0,0.0,0.0,0.0,0.0,0.0,0.0,0.0,0.0,0.0,0.0,0.0,0.0,0.0,0.0,0.0,0.0,0.0,0.0,0.0,0.0,0.0,0.0,0.0,0.0,0.0,0.0,0.0,0.0,0.0,0.0,0.0,0.0,0.0,0.0,0.0,0.0,0.0,0.0,0.0,0.0,0.0,0.0,0.0,0.0,3.119,3.119,3.119,3.119,3.119,3.119,0.0,0.0,0.0,0.0,0.0,0.0,0.0,0.0,0.0,0.0,0.0,0.0,0.0,0.0,0.0,0.0,0.0,0.0,0.0,0.0,0.0,0.0,0.0,0.0,0.0,0.0,0.0,0.0,0.0,0.0,0.0,0.0,0.0,0.0,0.0,0.0,0.0,0.0,0.0,0.0,0.0,0.0,0.0,0.0,0.0,0.0,0.0,0.0,0.0,0.0,0.0,0.0,0.0,0.0,0.0,0.0,0.0,0.0,0.0,0.0,0.0,0.0,0.0,0.0,0.0,0.0,0.0,0.0,0.0,0.0,0.0,0.0,0.0,0.0,0.0,0.0,0.0,0.0,0.0,0.0,0.0,0.0,0.0,0.0,0.0,0.0,0.0,0.0,0.0,0.0,0.0,0.0,0.0,0.0,0.0,0.0,0.0,0.0,0.0,0.0,0.0,0.0,0.0,0.0,0.0,0.0,0.0,0.0,3.119,3.119,3.119,3.119,3.119,3.119,3.119,0.0,0.0,0.0,0.0,0.0,0.0,0.0,0.0,0.0,0.0,0.0,0.0,0.0,0.0,0.0,0.0,0.0,0.0,0.0,0.0,0.0,0.0,0.0,0.0,0.0,0.0,0.0,0.0,0.0,0.0,0.0,0.0,0.0,0.0,0.0,0.0,0.0,0.0,0.0,0.0,0.0,0.0,0.0,0.0,0.0,0.0,0.0,0.0,0.0,0.0,0.0,0.0,0.0,0.0,0.0,0.0,0.0,0.0,0.0,0.0,0.0,0.0,0.0,0.0,0.0,0.0,0.0,0.0,0.0,0.0,0.0,0.0,0.0,0.0,0.0,0.0,0.0,0.0,0.0,0.0,0.0,0.0,0.0,0.0,0.0,0.0,0.0,0.0,0.0,0.0,0.0,0.0,0.0,0.0,0.0,0.0,0.0,0.0,0.0,0.0,0.0,0.0,0.0,0.0,0.0,0.0,0.0,0.0,3.119,3.119,3.119,3.119,3.119,3.119,3.119,0.0,0.0,0.0,0.0,0.0,0.0,0.0,0.0,0.0,0.0,0.0,0.0,0.0,0.0,0.0,0.0,0.0,0.0,0.0,0.0,0.0,0.0,0.0,0.0,0.0,0.0,0.0,0.0,0.0,0.0,0.0,0.0,0.0,0.0,0.0,0.0,0.0,0.0,0.0,0.0,0.0,0.0,0.0,0.0,0.0,0.0,0.0,0.0,0.0,0.0,0.0,0.0,0.0,0.0,0.0,0.0,0.0,0.0,0.0,0.0,0.0,0.0,0.0,0.0,0.0,0.0,0.0,0.0,0.0,0.0,0.0,0.0,0.0,0.0,0.0,0.0,0.0,0.0,0.0,0.0,0.0,0.0,0.0,0.0,0.0,0.0,0.0,0.0,0.0,0.0,0.0,0.0,0.0,0.0,0.0,0.0,0.0,0.0,0.0,0.0,0.0,0.0,0.0,0.0,0.0,0.0,0.0,0.0,3.119,3.119,3.119,3.119,3.119,3.119,3.119,0.0,0.0,0.0,0.0,0.0,0.0,0.0,0.0,0.0,0.0,0.0,0.0,0.0,0.0,0.0,0.0,0.0,0.0,0.0,0.0,0.0,0.0,0.0,0.0,0.0,0.0,0.0,0.0,0.0,0.0,0.0,0.0,0.0,0.0,0.0,0.0,0.0,0.0,0.0,0.0,0.0,0.0,0.0,0.0,0.0,0.0,0.0,0.0,3.4076,0.0,0.0,0.0,0.0,0.0,0.0,0.0,0.0,0.0,0.0,0.0,0.0,0.0,0.0,0.0,0.0,0.0,0.0,0.0,0.0,0.0,0.0,0.0,0.0,0.0,0.0,0.0,0.0,0.0,0.0,0.0,0.0,0.0,0.0,0.0,0.0,0.0,0.0,0.0,0.0,0.0,0.0,0.0,0.0,0.0,0.0,0.0,0.0,0.0,0.0,0.0,0.0,0.0,0.0,0.0,0.0,0.0,0.0,0.0,3.119,3.119,3.119,3.119,3.119,3.119,3.119,0.0,0.0,0.0,0.0,0.0,0.0,0.0,0.0,0.0,0.0,0.0,0.0,0.0,0.0,0.0,0.0,0.0,0.0,0.0,0.0,0.0,0.0,0.0,0.0,0.0,0.0,0.0,0.0,0.0,0.0,0.0,0.0,0.0,0.0,0.0,0.0,0.0,0.0,0.0,0.0,0.0,0.0,0.0,0.0,0.0,0.0,0.0,0.0,0.0,0.0,0.0,0.0,0.0,0.0,0.0,0.0,0.0,0.0,0.0,0.0,0.0,0.0,0.0,0.0,0.0,0.0,0.0,0.0,0.0,0.0,0.0,0.0,0.0,0.0,0.0,0.0,0.0,0.0,0.0,0.0,0.0,0.0,0.0,0.0,0.0,0.0,0.0,0.0,0.0,0.0,0.0,0.0,0.0,0.0,0.0,0.0,0.0,0.0,0.0,0.0,0.0,0.0,0.0,0.0,0.0,0.0,0.0,3.119,3.119,3.119,3.119,3.119,3.119,3.119,3.119,3.119,0.0,0.0,0.0,0.0,0.0,0.0,0.0,0.0,0.0,0.0,0.0,0.0,0.0,0.0,0.0,0.0,0.0,0.0,0.0,0.0,0.0,0.0,0.0,0.0,0.0,0.0,0.0,0.0,0.0,0.0,0.0,0.0,0.0,0.0,0.0,0.0,0.0,0.0,3.1569,3.2617,0.0,0.0,0.0,0.0,0.0,0.0,0.0,0.0,3.6267,0.0,0.0,0.0,0.0,0.0,0.0,0.0,0.0,0.0,0.0,0.0,0.0,0.0,0.0,0.0,0.0,0.0,0.0,0.0,0.0,0.0,0.0,0.0,0.0,0.0,0.0,0.0,0.0,0.0,0.0,0.0,0.0,0.0,0.0,0.0,0.0,0.0,0.0,0.0,0.0,0.0,0.0,0.0,0.0,0.0,0.0,0.0,0.0,0.0,0.0,0.0,0.0,0.0,0.0,0.0,0.0,3.119,3.119,3.119,3.119,3.119,3.119,3.119,3.119,3.119,3.119,0.0,0.0,0.0,0.0,0.0,0.0,0.0,0.0,0.0,0.0,0.0,0.0,0.0,0.0,0.0,0.0,0.0,0.0,0.0,0.0,0.0,0.0,0.0,0.0,0.0,0.0,0.0,0.0,0.0,0.0,0.0,0.0,0.0,0.0,0.0,0.0,0.0,0.0,0.0,3.405,3.4746,0.0,0.0,0.0,0.0,0.0,0.0,0.0,0.0,3.8296,0.0,0.0,0.0,0.0,0.0,0.0,0.0,0.0,0.0,0.0,0.0,0.0,0.0,0.0,0.0,0.0,0.0,0.0,0.0,0.0,0.0,0.0,0.0,0.0,0.0,0.0,0.0,0.0,0.0,0.0,0.0,0.0,0.0,0.0,0.0,0.0,0.0,0.0,0.0,0.0,0.0,0.0,0.0,0.0,0.0,0.0,0.0,0.0,0.0,0.0,0.0,0.0,0.0,0.0,0.0,3.119,3.119,3.1376,3.1742,3.1759,3.1962,3.2341,3.2357,3.2351,0.0,0.0,0.0,0.0,0.0,0.0,0.0,0.0,0.0,0.0,0.0,0.0,0.0,0.0,0.0,0.0,0.0,0.0,0.0,0.0,0.0,0.0,0.0,0.0,0.0,0.0,0.0,0.0,0.0,0.0,0.0,0.0,0.0,0.0,0.0,0.0,0.0,0.0,0.0,0.0,3.4951,3.5642,3.6094,0.0,0.0,0.0,0.0,0.0,0.0,3.8298,3.8699,0.0,0.0,0.0,0.0,0.0,0.0,0.0,0.0,0.0,0.0,0.0,0.0,0.0,0.0,0.0,0.0,0.0,0.0,0.0,0.0,0.0,0.0,0.0,0.0,0.0,0.0,0.0,0.0,0.0,0.0,0.0,0.0,0.0,0.0,0.0,0.0,0.0,0.0,0.0,0.0,0.0,0.0,0.0,0.0,0.0,0.0,0.0,0.0,0.0,0.0,0.0,0.0,0.0,0.0,0.0,3.164,3.1647,3.1928,3.2513,3.253,3.2808,3.3362,3.3389,3.3389,0.0,0.0,0.0,0.0,0.0,0.0,0.0,0.0,0.0,0.0,0.0,0.0,0.0,0.0,0.0,0.0,0.0,0.0,0.0,0.0,0.0,0.0,0.0,0.0,0.0,0.0,0.0,0.0,0.0,0.0,0.0,0.0,0.0,0.0,0.0,0.0,0.0,0.0,0.0,0.0,0.0,3.655,3.7049,3.8013,0.0,0.0,0.0,0.0,3.8699,3.8828,0.0,0.0,0.0,0.0,0.0,0.0,0.0,0.0,0.0,0.0,0.0,0.0,0.0,0.0,0.0,0.0,0.0,0.0,0.0,0.0,0.0,0.0,0.0,0.0,0.0,0.0,0.0,0.0,0.0,0.0,0.0,0.0,0.0,0.0,0.0,0.0,0.0,0.0,0.0,0.0,0.0,0.0,0.0,0.0,0.0,0.0,0.0,0.0,0.0,0.0,0.0,0.0,0.0,0.0,0.0,0.0,3.3136,3.3152,3.3176,3.3288,3.3271,3.3311,3.3389,3.3389,3.3389,0.0,0.0,0.0,0.0,0.0,0.0,0.0,0.0,0.0,0.0,0.0,0.0,0.0,0.0,0.0,0.0,0.0,0.0,0.0,0.0,0.0,0.0,0.0,0.0,0.0,0.0,0.0,0.0,0.0,0.0,0.0,0.0,0.0,0.0,0.0,0.0,0.0,0.0,0.0,0.0,0.0,3.7878,3.8392,3.8603,3.8666,0.0,0.0,3.8699,3.8699,3.9294,0.0,0.0,0.0,0.0,0.0,0.0,0.0,0.0,0.0,0.0,0.0,0.0,0.0,0.0,0.0,0.0,0.0,0.0,0.0,0.0,0.0,0.0,0.0,0.0,0.0,0.0,0.0,0.0,0.0,0.0,0.0,0.0,0.0,0.0,0.0,0.0,0.0,0.0,0.0,0.0,0.0,0.0,0.0,0.0,0.0,0.0,0.0,0.0,0.0,0.0,0.0,0.0,0.0,0.0,0.0,3.3078,3.3379,3.3389,3.3609,3.3998,3.4032,3.4218,3.463,3.4647,3.4647,0.0,0.0,0.0,0.0,0.0,0.0,0.0,0.0,0.0,0.0,0.0,0.0,0.0,0.0,0.0,0.0,0.0,0.0,0.0,0.0,0.0,0.0,0.0,0.0,0.0,0.0,0.0,0.0,0.0,0.0,0.0,0.0,0.0,0.0,0.0,0.0,0.0,0.0,0.0,0.0,0.0,0.0,3.924,3.9394,0.0,0.0,0.0,4.0076,4.0049,0.0,0.0,0.0,0.0,0.0,0.0,0.0,0.0,0.0,0.0,0.0,0.0,0.0,0.0,0.0,0.0,0.0,0.0,0.0,0.0,0.0,0.0,0.0,0.0,0.0,0.0,0.0,0.0,0.0,0.0,0.0,0.0,0.0,0.0,0.0,0.0,0.0,0.0,0.0,0.0,0.0,0.0,0.0,0.0,0.0,0.0,0.0,0.0,0.0,0.0,0.0,0.0,0.0,0.0,0.0,0.0,0.0,3.3954,3.3954,3.4224,3.477,3.4759,3.5036,3.5583,3.5628,0.0,0.0,0.0,0.0,0.0,0.0,0.0,0.0,0.0,0.0,0.0,0.0,0.0,0.0,0.0,0.0,0.0,0.0,0.0,0.0,0.0,0.0,0.0,0.0,0.0,0.0,0.0,3.2571,0.0,0.0,0.0,0.0,0.0,0.0,0.0,0.0,0.0,0.0,0.0,0.0,0.0,0.0,3.8857,4.0255,4.0452,4.0636,0.0,0.0,4.1196,4.1111,4.1348,4.1517,0.0,0.0,0.0,0.0,0.0,0.0,0.0,0.0,0.0,0.0,0.0,0.0,0.0,0.0,0.0,0.0,0.0,0.0,0.0,0.0,0.0,0.0,0.0,0.0,0.0,0.0,0.0,0.0,0.0,0.0,0.0,0.0,0.0,0.0,0.0,0.0,0.0,0.0,0.0,0.0,0.0,0.0,0.0,0.0,0.0,0.0,0.0,0.0,0.0,0.0,0.0,0.0,0.0,0.0,3.4759,3.543,3.5447,3.5447,3.5532,3.5515,3.556,3.56,3.5628,3.5628,0.0,0.0,0.0,0.0,0.0,0.0,0.0,0.0,0.0,0.0,0.0,0.0,0.0,0.0,0.0,0.0,0.0,0.0,0.0,0.0,0.0,0.0,0.0,0.0,0.0,0.0,0.0,0.0,0.0,0.0,0.0,0.0,0.0,0.0,0.0,0.0,0.0,0.0,0.0,0.0,0.0,4.0067,4.172,4.1952,4.1857,0.0,4.1569,4.1475,4.115,4.1995,4.2337,4.1309,0.0,0.0,0.0,0.0,0.0,0.0,0.0,0.0,0.0,0.0,0.0,0.0,0.0,0.0,0.0,0.0,0.0,0.0,0.0,0.0,0.0,0.0,0.0,0.0,0.0,0.0,0.0,0.0,0.0,0.0,0.0,0.0,0.0,0.0,0.0,0.0,0.0,0.0,0.0,0.0,0.0,0.0,0.0,0.0,0.0,0.0,0.0,0.0,0.0,0.0,0.0,0.0,0.0,3.5323,3.5583,3.5628,3.5628,3.5628,3.5628,3.5628,3.5628,3.5628,3.5628,0.0,0.0,0.0,0.0,0.0,0.0,0.0,0.0,0.0,0.0,0.0,0.0,0.0,0.0,0.0,0.0,0.0,0.0,0.0,0.0,0.0,0.0,0.0,0.0,0.0,0.0,0.0,0.0,3.4478,3.489,3.5218,0.0,0.0,0.0,0.0,0.0,0.0,0.0,0.0,0.0,0.0,4.1553,4.2674,4.2837,0.0,0.0,4.3441,4.3412,4.3285,4.3419,4.3483,4.3279,4.3412,0.0,0.0,0.0,0.0,0.0,0.0,0.0,0.0,0.0,0.0,0.0,0.0,0.0,0.0,0.0,0.0,0.0,0.0,0.0,0.0,0.0,0.0,0.0,0.0,0.0,0.0,0.0,0.0,0.0,0.0,0.0,0.0,0.0,0.0,0.0,0.0,0.0,0.0,0.0,0.0,0.0,0.0,0.0,0.0,0.0,0.0,0.0,0.0,0.0,0.0,0.0,0.0,3.5718,3.5966,3.5977,3.6067,3.6287,3.6304,3.6287,3.6287,3.6293,3.6276,0.0,0.0,0.0,0.0,0.0,0.0,0.0,0.0,0.0,0.0,0.0,0.0,0.0,0.0,0.0,0.0,0.0,0.0,0.0,0.0,0.0,0.0,0.0,0.0,0.0,0.0,0.0,0.0,3.6249,3.7007,3.7509,0.0,0.0,0.0,0.0,0.0,0.0,0.0,0.0,0.0,0.0,4.2972,4.3844,4.3901,4.4063,4.4669,4.4865,4.4951,4.4951,4.4806,4.4758,4.4932,0.0,0.0,0.0,0.0,0.0,0.0,0.0,0.0,0.0,0.0,0.0,0.0,0.0,0.0,0.0,0.0,0.0,0.0,0.0,0.0,0.0,0.0,0.0,0.0,0.0,0.0,0.0,3.3345,0.0,0.0,3.3294,0.0,0.0,0.0,0.0,0.0,0.0,0.0,0.0,0.0,0.0,0.0,0.0,0.0,0.0,0.0,0.0,0.0,0.0,0.0,0.0,0.0,0.0,3.6022,3.679,3.6813,3.7145,3.7799,3.7838,3.7833,3.7845,3.7855,3.7855,3.7821,0.0,0.0,0.0,0.0,0.0,0.0,0.0,0.0,0.0,0.0,0.0,0.0,0.0,0.0,0.0,0.0,0.0,0.0,0.0,0.0,0.0,0.0,0.0,0.0,0.0,0.0,3.7508,3.8709,3.964,0.0,0.0,0.0,0.0,0.0,0.0,0.0,0.0,0.0,0.0,4.3856,4.4272,4.5383,4.5283,4.511,4.5148,4.5488,4.5801,4.5796,4.6042,4.6157,0.0,0.0,0.0,0.0,0.0,0.0,0.0,0.0,0.0,0.0,0.0,0.0,0.0,0.0,0.0,0.0,0.0,0.0,0.0,0.0,0.0,0.0,0.0,0.0,0.0,0.0,0.0,3.3389,3.3389,0.0,0.0,0.0,0.0,0.0,0.0,0.0,0.0,0.0,0.0,0.0,3.4867,3.4873,0.0,0.0,0.0,0.0,0.0,0.0,0.0,0.0,0.0,0.0,0.0,0.0,3.7776,3.8067,3.8449,3.8599,3.8441,3.8418,3.8418,3.8436,3.8079,3.8056,3.8407,0.0,0.0,0.0,0.0,0.0,0.0,0.0,0.0,0.0,0.0,0.0,0.0,0.0,0.0,0.0,0.0,0.0,0.0,0.0,0.0,0.0,0.0,0.0,0.0,0.0,3.8495,0.0,0.0,0.0,0.0,0.0,0.0,0.0,0.0,0.0,0.0,0.0,4.4126,4.4628,4.5389,4.6023,4.6423,4.6824,4.7079,0.0,0.0,0.0,0.0,0.0,0.0,0.0,0.0,0.0,0.0,0.0,0.0,0.0,0.0,4.6908,4.5927,4.5729,4.5923,4.655,0.0,0.0,0.0,0.0,0.0,0.0,0.0,0.0,0.0,0.0,0.0,0.0,0.0,0.0,3.4437,0.0,3.4259,0.0,0.0,0.0,0.0,0.0,0.0,0.0,0.0,3.5926,3.6273,3.6268,3.6546,3.6582,0.0,3.6941,3.6989,0.0,0.0,0.0,0.0,0.0,0.0,0.0,0.0,3.8827,3.9098,3.9676,3.9903,3.9769,3.9603,3.9592,3.9772,3.9437,3.9426,3.9772,3.9783,3.9783,0.0,0.0,0.0,0.0,0.0,0.0,0.0,0.0,0.0,0.0,0.0,0.0,0.0,0.0,0.0,0.0,0.0,0.0,0.0,0.0,0.0,0.0,0.0,4.0002,0.0,0.0,0.0,0.0,0.0,0.0,0.0,0.0,0.0,4.3554,4.4643,4.5573,4.5712,4.6633,4.7312,4.7312,0.0,0.0,0.0,0.0,0.0,0.0,0.0,4.8231,4.8211,4.7957,4.7881,4.8173,4.8173,4.824,4.8672,0.0,0.0,4.6931,4.6751,4.694,4.7533,4.7268,4.7255,4.8344,4.8196,4.8,0.0,0.0,0.0,0.0,0.0,0.0,0.0,0.0,3.6179,3.6409,0.0,3.5926,0.0,0.0,0.0,0.0,3.5712,3.5757,0.0,0.0,3.7283,3.7623,3.7622,3.8335,3.8435,3.7972,3.7989,3.8265,3.8701,3.8276,0.0,0.0,0.0,0.0,0.0,0.0,3.9183,3.9907,4.0514,4.1125,4.175,4.1308,4.1292,4.1743,4.1803,4.1779,4.1814,4.1779,4.1814,4.1803,4.0585,0.0,0.0,0.0,0.0,0.0,0.0,0.0,0.0,0.0,0.0,0.0,0.0,0.0,0.0,0.0,0.0,0.0,0.0,0.0,0.0,4.0818,0.0,0.0,0.0,0.0,0.0,0.0,0.0,0.0,0.0,0.0,4.4858,4.5685,4.6499,4.6876,0.0,0.0,0.0,0.0,4.7835,4.8145,4.8632,4.9078,4.9399,4.9452,4.9447,4.9433,0.0,0.0,4.9307,4.8754,4.8555,4.9484,4.9016,4.8438,4.8576,4.8498,4.8459,4.8567,4.8632,4.8748,4.8812,4.9012,4.9043,3.6742,0.0,0.0,0.0,0.0,3.6754,3.6874,3.6764,3.6911,3.7289,3.7817,3.7677,0.0,0.0,0.0,0.0,0.0,0.0,3.83,3.8085,3.8715,3.9015,3.9012,3.9234,3.9257,3.9126,3.9641,3.9989,4.0137,4.049,3.9943,3.852,0.0,0.0,0.0,0.0,4.1667,4.1894,4.2427,4.2611,4.2432,4.23,4.2087,4.1821,4.2213,4.245,4.245,4.245,4.245,4.244,4.2067,0.0,0.0,0.0,0.0,0.0,0.0,0.0,0.0,0.0,0.0,0.0,0.0,0.0,0.0,0.0,0.0,0.0,0.0,0.0,4.1758,4.2495,4.3176,0.0,0.0,0.0,0.0,0.0,0.0,0.0,0.0,0.0,4.6783,4.7228,4.7621,0.0,0.0,4.9009,4.9029,4.9476,4.9845,4.9928,5.009,0.0,5.0313,5.0322,5.0322,5.0322,5.0111,5.0071,5.0409,5.0244,5.022,5.0668,5.0548,5.0405,5.0465,4.9493,4.8974,4.9512,4.9739,4.9977,5.0485,5.0663,5.0644,3.8328,3.7204,3.754,3.7673,3.7707,3.8218,3.8322,3.8161,3.8351,3.8702,3.9122,3.8948,3.9253,3.9865,3.968,0.0,0.0,0.0,3.9494,3.9373,4.0042,4.0331,4.032,4.0669,4.0703,4.0501,4.0924,4.1258,4.1506,4.194,4.1527,4.0344,0.0,0.0,4.0631,4.1981,4.2684,4.2731,4.3232,4.333,4.3005,4.3032,4.2733,4.2193,4.2714,4.3032,4.3014,4.3014,4.3014,4.3014,4.2817,4.2529,0.0,0.0,0.0,0.0,0.0,0.0,0.0,0.0,0.0,0.0,0.0,3.9822,4.0422,0.0,0.0,0.0,4.221,4.2968,4.3669,4.4153,0.0,0.0,0.0,0.0,0.0,0.0,0.0,4.7757,4.8094,4.8462,4.8774,4.9018,4.9009,4.8663,4.9375,4.9918,4.9918,0.0,5.0688,5.0688,5.0688,5.0688,5.0688,5.0688,5.0721,5.0779,5.0797,5.0835,5.0962,5.0975,5.1028,5.1169,5.1202,5.124,5.1386,5.0483,4.9931,5.0547,5.0683,5.084,5.1328,5.1387,5.1387,3.9876,3.9915,3.9897,3.9797,3.97,4.0156,4.0128,3.9767,4.0166,4.0402,4.0429,4.001,4.0103,4.0537,4.0109,0.0,3.9856,3.9896,4.0146,4.0501,4.1306,4.1632,4.1603,4.2371,4.2472,4.1958,4.193,4.2223,4.2732,4.2751,4.2751,4.2759,4.2285,4.198,4.1906,4.2452,4.2769,4.2779,4.325,4.3524,4.3579,4.3662,4.3469,4.2997,4.3442,4.3708,4.3708,4.369,4.369,4.3672,4.3205,4.295,4.294,0.0,0.0,0.0,0.0,0.0,0.0,0.0,0.0,0.0,0.0,0.0,0.0,0.0,0.0,0.0,4.3667,0.0,4.5364,4.5735,0.0,0.0,0.0,4.722,4.7274,4.7603,4.813,4.8955,0.0,0.0,5.0592,5.0688,5.0399,4.9606,5.0188,5.0688,5.0688,5.0668,5.0688,5.0688,5.0688,5.0688,5.0693,5.0717,5.0779,5.0897,5.0911,5.0956,5.1079,5.1106,5.1135,5.1222,5.121,5.1264,5.1386,5.1328,5.1387,5.1348,5.1367,5.1367,5.1387,5.1387,5.1387,4.2219,4.2567,4.2567,4.1642,4.0184,4.0676,4.084,4.0764,4.0849,4.1265,4.1813,4.1709,4.2046,4.2727,4.263,4.2341,4.199,4.2395,4.2414,4.219,4.2759,4.3019,4.3011,4.3203,4.3223,4.3105,4.3096,4.3169,4.3313,4.3322,4.3303,4.3313,4.378,4.3491,4.2555,4.3032,4.3322,4.3303,4.3427,4.38,4.4406,4.5002,4.5269,4.5132,4.526,4.5342,4.5323,4.5342,4.5342,4.5333,4.5187,4.515,4.5132,4.5011,0.0,0.0,0.0,0.0,0.0,0.0,0.0,0.0,0.0,4.2511,4.3051,0.0,4.408,0.0,4.5253,4.6105,4.6608,4.673,0.0,0.0,4.78,4.8244,4.8802,4.9249,4.9702,5.0212,5.0346,5.0457,5.0668,5.0688,5.0616,5.0418,5.0572,5.0688,5.0688,5.0688,5.0688,5.0688,5.0693,5.0688,5.0717,5.0791,5.0885,5.1039,5.1061,5.1072,5.1161,5.1177,5.12,5.1321,5.1365,5.1366,5.1387,5.1387,5.1387,5.1387,5.1387,5.1387,5.1387,5.1387,5.1387,4.3232,4.3488,4.3488,4.2799,4.1749,4.2038,4.2168,4.2176,4.2176,4.2433,4.2845,4.2837,4.3084,4.3488,4.3488,4.3348,4.3078,4.3366,4.3348,4.3069,4.3366,4.3488,4.3488,4.3488,4.3488,4.3506,4.3873,4.403,4.4048,4.4387,4.4552,4.4571,4.5021,4.4849,4.417,4.4418,4.4562,4.4571,4.4562,4.4791,4.5214,4.5681,4.5902,4.5902,4.5902,4.5902,4.5902,4.5902,4.5902,4.5902,4.5902,4.5902,4.5902,4.5902,4.5773,0.0,0.0,0.0,0.0,0.0,0.0,0.0,0.0,0.0,0.0,0.0,4.5312,4.551,4.6409,4.7226,4.7846,4.8052,4.8352,4.8908,4.9221,4.953,4.9928,5.0206,5.0462,5.0668,5.0688,5.0688,5.0688,5.0688,5.0688,5.0688,5.0688,5.0688,5.0688,5.0688,5.0688,5.0688,5.0743,5.0814,5.0856,5.0945,5.1022,5.1126,5.115,5.1163,5.1267,5.1294,5.132,5.1367,5.1387,5.1387,5.1387,5.1387,5.1387,5.1387,5.1387,5.1387,5.1387,5.1387,5.1387,4.3653,4.3653,4.3543,4.3488,4.3488,4.3488,4.3488,4.3488,4.3488,4.3488,4.3488,4.3488,4.3488,4.3488,4.3488,4.3488,4.3506,4.3598,4.3653,4.3653,4.3745,4.3818,4.38,4.38,4.38,4.3836,4.4516,4.4865,4.4883,4.5544,4.5902,4.5902,4.6003,4.6049,4.6067,4.614,4.6104,4.5902,4.5993,4.6049,4.6067,4.6168,4.6214,4.6195,4.6214,4.6195,4.6214,4.6195,4.6214,4.6195,4.6195,4.6195,4.6214,4.6214,4.6214,0.0,4.5763,0.0,0.0,0.0,0.0,0.0,0.0,0.0,0.0,4.6137,4.6419,4.6916,4.7554,4.8245,4.9049,4.9405,4.988,5.0592,5.0688,5.0688,5.0688,5.0688,5.0688,5.0688,5.0688,5.0688,5.0688,5.0688,5.0688,5.0693,5.0716,5.0725,5.0721,5.073,5.074,5.0721,5.0855,5.0982,5.1074,5.111,5.1137,5.1197,5.1233,5.1268,5.1386,5.1387,5.1387,5.1387,5.1387,5.1387,5.1387,5.1504,5.1582,5.1641,5.1758,5.1758,5.1465,5.1387,5.1387,4.4488,4.4415,4.3763,4.3488,4.3488,4.3488,4.3488,4.3488,4.3488,4.3488,4.3488,4.3488,4.3488,4.3488,4.3488,4.3488,4.3524,4.4176,4.4461,4.4516,4.5131,4.5452,4.5452,4.5452,4.5443,4.5452,4.559,4.5681,4.5681,4.5828,4.5902,4.592,4.6553,4.6874,4.6911,0.0,0.0,0.0,4.6553,4.6883,4.6892,4.7526,4.7847,4.7847,4.7838,0.0,4.7847,4.7838,4.7838,4.7847,4.7847,0.0,0.0,0.0,0.0,0.0,0.0,0.0,0.0,0.0,0.0,0.0,4.8244,4.766,4.6535,4.727,4.8287,4.9296,4.9555,4.9822,5.031,5.0408,5.0515,5.0668,5.0688,5.0688,5.0688,5.0688,5.0688,5.0688,5.0688,5.0688,5.0688,5.0688,5.0688,5.0712,5.0799,5.0863,5.089,5.089,5.0856,5.0867,5.1059,5.112,5.1169,5.1261,5.14,5.1321,5.1365,5.1426,5.1484,5.1465,5.1445,5.1465,5.1387,5.1445,5.1445,5.1953,5.2461,5.2441,5.2988,5.3086,5.1719,5.1406,5.1387,4.5296,4.5241,4.4856,4.4681,0.0,4.4672,4.4699,4.4663,4.4268,4.4305,4.4681,4.4681,4.4672,4.469,4.4681,4.4699,4.4709,4.5112,4.5296,4.5305,4.5709,4.5902,4.5902,4.5902,4.5902,4.592,4.6305,4.6507,4.6516,4.6893,4.7076,4.7095,4.7489,4.7681,4.7709,4.8076,4.7893,4.7113,4.7489,4.7691,4.77,4.8095,4.8315,4.8315,4.8315,0.0,0.0,0.0,0.0,0.0,0.0,0.0,0.0,4.8898,0.0,4.8898,4.8898,4.8898,4.8898,4.8898,4.898,4.9179,4.9367,4.9065,4.8059,4.872,4.9448,5.0042,5.0291,5.0478,5.0673,5.0688,5.0688,5.0688,5.0688,5.0688,5.0688,5.0688,5.0688,5.0688,5.0688,5.0688,5.0688,5.0688,5.0726,5.0834,5.1215,5.152,5.1554,5.1236,5.1122,5.159,5.1745,5.1993,5.2479,5.2586,5.2578,5.2676,5.2676,5.2695,5.2695,5.2695,5.2695,5.2676,5.2695,5.2695,5.2715,5.3047,5.3359,5.3359,5.3691,5.3769,5.2832,5.2676,5.2695,4.6122,4.6085,4.5957,4.5902,4.5902,4.5902,4.5975,4.6049,4.525,0.0,0.0,4.5902,4.5902,4.5902,4.5902,4.5902,4.5902,4.6067,4.6094,4.6122,4.625,4.6324,4.6324,4.6324,4.6324,4.6342,4.6994,4.7314,4.7342,4.7984,4.8315,4.8315,4.8315,4.8315,4.8315,4.8315,4.8315,4.8315,4.8315,4.8315,4.8315,4.8315,4.8315,4.8315,4.8315,4.8344,4.8393,4.842,4.8586,4.8988,4.8994,4.9155,4.9486,4.9496,4.9496,4.9496,4.9496,4.9496,4.9496,4.9496,4.9544,4.9589,4.9974,5.0024,4.9631,4.9987,5.0201,5.022,5.0504,5.0688,5.0688,5.0688,5.0688,5.0688,5.0688,5.0688,5.0688,5.0688,5.0688,5.0688,5.0688,5.0688,5.0712,5.0894,5.1,5.1211,5.1907,5.2441,5.2474,5.21,5.1967,5.2608,5.2779,5.3068,5.3711,5.3887,5.3984,5.3848,5.3887,5.3984,5.3984,5.3984,5.3984,5.3828,5.3984,5.3926,5.3965,5.4062,5.4219,5.4238,5.4375,5.4453,5.4453,5.4473,5.4336,4.6947,4.6874,4.6195,4.5902,4.5902,4.5902,4.6278,4.6837,4.6076,4.581,4.5902,4.5902,4.5902,4.5902,4.5902,4.5902,4.5938,4.6608,4.6938,4.6975,4.7636,4.7976,4.7948,4.7948,4.7948,4.7966,4.8076,4.8131,4.815,4.8241,4.8315,4.8315,4.8315,4.8324,4.8315,4.8315,4.8315,4.8315,4.8315,4.8315,4.8315,4.8315,4.8315,4.8315,4.8316,4.8458,4.8786,4.8803,4.9005,4.9386,4.9416,4.9438,4.9489,4.9511,4.9496,4.9496,4.9496,4.9496,4.9496,4.9496,4.9638,4.9987,5.0375,5.0437,5.0068,5.0388,5.0614,5.0619,5.0668,5.0688,5.0688,5.0688,5.0688,5.0688,5.0688,5.0688,5.0688,5.0688,5.0707,5.0745,5.0688,5.075,5.0899,5.1438,5.1912,5.2077,5.2879,5.3618,5.3729,5.3566,5.3524,5.3726,5.3808,5.3867,5.4141,5.4023,5.4141,5.3984,5.4101,5.4199,5.4219,5.4219,5.4199,5.4043,5.418,5.4141,5.4141,5.4629,5.5019,5.5156,5.5586,5.6035,5.6035,5.6055,5.5703,4.7746,4.7709,4.7352,4.7205,4.7205,4.7205,4.7397,4.7709,4.737,4.7195,4.7205,4.7205,4.7205,4.7205,4.7223,4.7205,4.7223,4.7599,4.7746,4.7783,4.8131,4.8315,4.8315,4.8315,4.8315,4.8315,4.8315,4.8315,4.8315,4.8315,4.8315,4.8325,4.8513,4.8612,4.863,4.8847,4.8965,4.8938,4.8745,4.8631,4.8621,4.8839,4.8938,4.8957,4.8947,4.9037,4.921,4.9226,4.9416,4.9807,4.982,4.9924,5.0141,5.0153,5.0153,5.0153,5.0153,5.0153,5.0153,5.0134,5.0218,5.0416,5.0599,5.0619,5.0456,5.058,5.0688,5.0688,5.0688,5.0688,5.0688,5.0688,5.0688,5.0688,5.0688,5.0688,5.0688,5.0688,5.088,5.1241,5.1356,5.1568,5.2114,5.2535,5.2864,5.3066,5.3956,5.4785,5.5293,5.5332,5.5137,5.4805,5.4707,5.4941,5.5273,5.543,5.541,5.539,5.539,5.541,5.541,5.539,5.539,5.541,5.539,5.541,5.539,5.5703,5.5957,5.6035,5.625,5.6582,5.6621,5.6621,5.6289,4.8315,4.8315,4.8315,4.8315,4.8315,4.8315,4.8315,4.8315,4.8296,4.8315,4.8315,4.8315,4.8315,4.8315,4.8315,4.8296,4.8315,4.8315,4.8296,4.8315,4.8315,4.8315,4.8315,4.8315,4.8315,4.8315,4.8315,4.8315,4.8315,4.8315,4.8345,4.8477,4.8839,4.9027,4.9035,4.9348,4.9496,4.9482,4.9288,4.9113,4.9043,4.9341,4.9489,4.9496,4.9489,4.9532,4.9617,4.9624,4.9839,5.0195,5.0243,5.0369,5.0668,5.0688,5.0688,5.0688,5.0688,5.0688,5.0688,5.0688,5.0688,5.0688,5.0688,5.0688,5.0688,5.0688,5.0688,5.0688,5.0688,5.0688,5.0688,5.0688,5.0688,5.0688,5.0688,5.0803,5.0938,5.0971,5.1279,5.2005,5.2213,5.2551,5.3213,5.364,5.3973,5.4486,5.5132,5.5859,5.6465,5.6621,5.6289,5.584,5.5586,5.5801,5.6504,5.6543,5.6504,5.6621,5.6543,5.6445,5.6465,5.6543,5.6582,5.6484,5.6523,5.6465,5.6562,5.6562,5.6562,5.6523,5.6562,5.6601,5.6621,5.6621,5.6601,4.8306,4.8315,4.8344,4.8315,4.8335,4.8325,4.8344,4.8335,4.8324,4.8315,4.8363,4.8324,4.8316,4.8315,4.8306,4.8316,4.8306,4.8315,4.8324,4.8315,4.8315,4.8315,4.8306,4.8306,4.8315,4.8306,4.8335,4.8382,4.8344,4.8354,4.8514,4.8856,4.9241,4.9438,4.9453,4.9489,4.9504,4.9522,4.982,4.9813,4.9467,4.9475,4.9496,4.9496,4.9522,4.9678,5.0037,5.0049,5.0237,5.0604,5.0624,5.0639,5.0683,5.0688,5.0688,5.0688,5.0688,5.0688,5.0688,5.0688,5.0688,5.0688,5.0688,5.0688,5.0688,5.0688,5.0688,5.0688,5.0688,5.0688,5.0688,5.0688,5.0726,5.0803,5.0784,5.0971,5.1645,5.1774,5.212,5.2986,5.3194,5.3329,5.3661,5.4371,5.5269,5.5937,5.6152,5.6367,5.6543,5.6601,5.6601,5.6465,5.6465,5.6465,5.6621,5.6621,5.6621,5.6621,5.6621,5.6621,5.6621,5.6621,5.6621,5.6621,5.6621,5.6621,5.6621,5.6621,5.6621,5.6621,5.6621,5.6621,5.6621,5.6621,5.6621,4.8787,4.9005,4.9013,4.9013,4.9031,4.9005,4.9013,4.9005,4.9013,4.9005,4.9013,4.8994,4.8754,4.8335,4.8541,4.8522,4.8316,4.8532,4.8523,4.8316,4.8315,4.8315,4.8325,4.8568,4.855,4.8373,4.8761,4.889,4.8736,4.8898,4.9083,4.928,4.9671,4.9865,4.9885,5.0086,5.0201,5.0201,5.0364,5.0364,5.0237,5.022,5.022,5.022,5.0201,5.0291,5.0426,5.0467,5.0539,5.0678,5.0688,5.0688,5.0688,5.0688,5.0688,5.0688,5.0688,5.0688,5.0688,5.0688,5.0688,5.0688,5.0688,5.0688,5.0688,5.0688,5.0688,5.0688,5.0688,5.0688,5.0707,5.0688,5.0899,5.1298,5.1414,5.1741,5.2563,5.2727,5.3129,5.3935,5.4206,5.4536,5.5071,5.5634,5.6127,5.6562,5.6621,5.6621,5.6621,5.6621,5.6621,5.6621,5.6621,5.6621,5.6621,5.6621,5.6621,5.6621,5.6621,5.6621,5.6621,5.6621,5.6621,5.6621,5.6621,5.6621,5.6621,5.6621,5.6621,5.6621,5.6621,5.6621,5.6621,5.6621,5.6621,4.9234,4.9475,4.9496,4.9496,4.9496,4.9496,4.9496,4.9496,4.9496,4.9496,4.9496,4.9496,4.9179,4.8728,4.8938,4.8897,4.8711,4.8949,4.8905,4.8649,4.8631,4.8631,4.8676,4.8905,4.8913,4.8763,4.9221,4.9341,4.9131,4.9456,4.9652,4.9726,5.0068,5.026,5.0302,5.0565,5.0688,5.0683,5.0688,5.0688,5.0683,5.0688,5.0688,5.0688,5.0688,5.0688,5.0688,5.0688,5.0688,5.0688,5.0688,5.0688,5.0688,5.0688,5.0688,5.0688,5.0688,5.0688,5.0688,5.0688,5.0688,5.0688,5.0688,5.0688,5.0688,5.0688,5.0803,5.1029,5.1015,5.1053,5.1034,5.1034,5.1395,5.2115,5.225,5.2621,5.3475,5.3721,5.4095,5.4936,5.5216,5.5574,5.6271,5.6484,5.6582,5.6601,5.6621,5.6621,5.6621,5.6621,5.6621,5.6621,5.6621,5.6621,5.6621,5.6621,5.6621,5.6621,5.6621,5.6621,5.6621,5.6621,5.6621,5.6621,5.6621,5.6621,5.6621,5.6621,5.6621,5.6621,5.6621,5.6621,5.6621,5.6621,5.6621,4.9501,4.9511,4.9496,4.954,4.9511,4.9532,4.9518,4.9594,4.954,4.9518,4.9573,4.954,4.9489,4.9445,4.9496,4.9479,4.9423,4.9445,4.9457,4.9371,4.9386,4.9423,4.9464,4.9486,4.9453,4.9356,4.9518,4.958,4.9544,4.9885,5.0074,5.0092,5.0442,5.0639,5.0653,5.0673,5.0688,5.0688,5.0688,5.0688,5.0688,5.0688,5.0688,5.0688,5.0688,5.0688,5.0688,5.0688,5.0688,5.0688,5.0688,5.0688,5.0688,5.0688,5.0688,5.0688,5.0688,5.0688,5.0688,5.0688,5.0688,5.0688,5.0688,5.0707,5.0803,5.0803,5.1125,5.1793,5.1846,5.1851,5.1958,5.191,5.2232,5.3021,5.316,5.3605,5.4529,5.4668,5.5098,5.5839,5.6118,5.6271,5.6541,5.6601,5.6621,5.6621,5.6621,5.6621,5.6621,5.6621,5.6621,5.6621,5.6621,5.6621,5.6621,5.6621,5.6621,5.6621,5.6621,5.6621,5.6621,5.6621,5.6621,5.6621,5.6621,5.6621,5.6621,5.6621,5.6621,5.6621,5.6621,5.6621,5.6621,5.6621,5.6621,5.0037,5.0285,5.0266,5.0266,5.0266,5.0266,5.0266,5.0266,5.0266,5.0266,5.0266,5.026,5.0266,5.0247,5.0266,4.9981,4.9554,4.976,4.9746,4.9518,4.9496,4.9496,4.9518,4.9753,4.974,4.9589,5.0025,5.0266,5.0272,5.044,5.0488,5.0493,5.0638,5.0688,5.0688,5.0688,5.0688,5.0688,5.0688,5.0688,5.0688,5.0688,5.0688,5.0688,5.0688,5.0688,5.0688,5.0688,5.0688,5.0688,5.0688,5.0688,5.0688,5.0688,5.0688,5.0688,5.0688,5.0688,5.0688,5.0688,5.0688,5.0688,5.0688,5.0952,5.1337,5.1486,5.1813,5.2524,5.2736,5.295,5.3424,5.3138,5.3123,5.3966,5.4171,5.4548,5.5388,5.5749,5.5955,5.6253,5.6451,5.6559,5.6582,5.6621,5.6621,5.6621,5.6621,5.6621,5.6621,5.6621,5.6621,5.6621,5.6621,5.6621,5.6621,5.6621,5.6621,5.6621,5.6621,5.6621,5.6621,5.6621,5.6621,5.6621,5.6621,5.6621,5.6621,5.6621,5.6621,5.6621,5.6621,5.664,5.6621,5.6777,5.6738,5.0462,5.0673,5.0688,5.0688,5.0688,5.0688,5.0688,5.0688,5.0688,5.0688,5.0688,5.0688,5.0688,5.0688,5.0688,5.0426,4.9943,5.0171,5.0147,4.9904,4.9891,4.9879,4.993,5.0171,5.0172,4.9987,5.0416,5.0688,5.0688,5.0688,5.0688,5.0683,5.0688,5.0688,5.0688,5.0688,5.0688,5.0688,5.0688,5.0688,5.0688,5.0688,5.0688,5.0688,5.0688,5.0688,5.0688,5.0688,5.0688,5.0688,5.0688,5.0688,5.0688,5.0688,5.0688,5.0688,5.0688,5.0688,5.0688,5.0688,5.0803,5.1048,5.1111,5.1433,5.2197,5.2313,5.2755,5.3381,5.3687,5.4078,5.4713,5.4523,5.4466,5.5058,5.5195,5.5462,5.6142,5.6315,5.6375,5.6438,5.6537,5.6601,5.6621,5.6621,5.6621,5.6621,5.6621,5.6621,5.6621,5.6621,5.6621,5.6621,5.6621,5.6621,5.6621,5.6621,5.6621,5.6621,5.6621,5.6621,5.6621,5.6621,5.6621,5.6621,5.6621,5.6621,5.6621,5.6621,5.666,5.6699,5.666,5.6699,5.6836,5.707,5.7265,5.0683,5.0688,5.0688,5.0688,5.0688,5.0688,5.0688,5.0688,5.0688,5.0688,5.0688,5.0688,5.0688,5.0688,5.0688,5.0668,5.0609,5.0614,5.0614,5.057,5.0604,5.0585,5.0604,5.0609,5.0619,5.0575,5.0673,5.0688,5.0688,5.0688,5.0688,5.0688,5.0688,5.0688,5.0688,5.0688,5.0688,5.0688,5.0688,5.0688,5.0688,5.0688,5.0688,5.0688,5.0688,5.0688,5.0688,5.0688,5.0688,5.0688,5.0688,5.0688,5.0688,5.0688,5.0688,5.0688,5.0688,5.0688,5.0765,5.0803,5.1183,5.1755,5.1904,5.2294,5.3024,5.3217,5.3578,5.4361,5.4647,5.5006,5.5695,5.5883,5.5944,5.6155,5.6061,5.6151,5.6332,5.6411,5.6454,5.6543,5.6601,5.6601,5.6621,5.6621,5.6621,5.6621,5.6621,5.6621,5.6621,5.6621,5.6621,5.6621,5.6621,5.6621,5.6621,5.6621,5.6621,5.6621,5.6621,5.6621,5.6621,5.6621,5.6621,5.664,5.6953,5.6973,5.7109,5.7129,5.7265,5.7265,5.707,5.7168,5.7558,5.7969,5.8242,5.0688,5.0688,5.0688,5.0688,5.0688,5.0688,5.0688,5.0688,5.0688,5.0688,5.0688,5.0688,5.0688,5.0688,5.0688,5.0688,5.0688,5.0688,5.0688,5.0688,5.0688,5.0688,5.0688,5.0688,5.0688,5.0688,5.0688,5.0688,5.0688,5.0688,5.0688,5.0688,5.0688,5.0688,5.0688,5.0688,5.0688,5.0688,5.0688,5.0688,5.0688,5.0688,5.0688,5.0688,5.0688,5.0688,5.0688,5.0688,5.0688,5.0688,5.0688,5.0688,5.0688,5.0688,5.0688,5.0688,5.0688,5.0971,5.1447,5.1543,5.189,5.2582,5.2774,5.3236,5.3953,5.4098,5.4511,5.5299,5.5523,5.5759,5.613,5.6289,5.6331,5.6333,5.6353,5.6385,5.6504,5.6523,5.654,5.6582,5.6621,5.6621,5.6621,5.6621,5.6621,5.6621,5.6621,5.6621,5.6621,5.6621,5.6621,5.6621,5.6621,5.6621,5.6621,5.6621,5.6621,5.6621,5.6621,5.6621,5.6621,5.6621,5.6621,5.6914,5.7207,5.748,5.7598,5.7754,5.793,5.8203,5.832,5.8496,5.873,5.8926,5.9121,5.0688,5.0688,5.0688,5.0688,5.0688,5.0688,5.0688,5.0688,5.0688,5.0688,5.0688,5.0688,5.0688,5.0688,5.0688,5.0688,5.0688,5.0688,5.0688,5.0688,5.0688,5.0688,5.0688,5.0688,5.0688,5.0688,5.0688,5.0688,5.0688,5.0688,5.0688,5.0688,5.0688,5.0688,5.0688,5.0688,5.0688,5.0688,5.0688,5.0688,5.0688,5.0688,5.0688,5.0688,5.0688,5.0688,5.0688,5.0688,5.0688,5.0688,5.0688,5.0688,5.0707,5.0971,5.1144,5.1202,5.1491,5.1895,5.2332,5.2404,5.2755,5.3467,5.3683,5.4067,5.4786,5.5027,5.5369,5.5877,5.6045,5.6166,5.635,5.6454,5.6461,5.6482,5.6482,5.6512,5.6601,5.6621,5.6601,5.6621,5.6621,5.6621,5.6621,5.6621,5.6621,5.6621,5.6621,5.6621,5.6621,5.6621,5.6621,5.6621,5.6621,5.6621,5.6621,5.6621,5.6621,5.6621,5.6621,5.6621,5.6621,5.6621,5.664,5.7383,5.7832,5.8281,5.8457,5.8652,5.8848,5.918,5.9394,5.9336,5.9355,5.959,5.9844,5.0688,5.0688,5.0688,5.0688,5.0688,5.0688,5.0688,5.0688,5.0688,5.0688,5.0688,5.0688,5.0688,5.0688,5.0688,5.0688,5.0688,5.0688,5.0688,5.0688,5.0688,5.0688,5.0688,5.0688,5.0688,5.0688,5.0688,5.0688,5.0688,5.0688,5.0688,5.0688,5.0688,5.0688,5.0688,5.0688,5.0688,5.0688,5.0688,5.0688,5.0688,5.0688,5.0688,5.0688,5.0688,5.0688,5.0688,5.0803,5.0803,5.0707,5.0784,5.088,5.0938,5.1524,5.1981,5.2005,5.2755,5.3063,5.3217,5.3255,5.3645,5.4414,5.4598,5.4916,5.5593,5.5728,5.5834,5.6164,5.6285,5.6382,5.6427,5.6513,5.6582,5.6601,5.6582,5.6601,5.6601,5.6621,5.6621,5.6621,5.6621,5.6621,5.6621,5.6621,5.6621,5.6621,5.6621,5.6621,5.6621,5.6621,5.6621,5.6621,5.6621,5.6621,5.6621,5.6621,5.6621,5.6621,5.6621,5.6621,5.6738,5.6816,5.6953,5.7695,5.8613,5.9023,5.9375,5.9609,5.9746,5.9941,5.998,5.9863,6.0039,6.0351,6.0527,5.0688,5.0688,5.0688,5.0688,5.0688,5.0688,5.0688,5.0688,5.0688,5.0688,5.0688,5.0688,5.0688,5.0688,5.0688,5.0688,5.0688,5.0688,5.0688,5.0688,5.0688,5.0688,5.0688,5.0688,5.0688,5.0688,5.0688,5.0688,5.0688,5.0688,5.0688,5.0688,5.0688,5.0688,5.0688,5.0688,5.0688,5.0688,5.0688,5.0688,5.0688,5.0688,5.0688,5.0688,5.0688,5.0707,5.0765,5.1279,5.126,5.0784,5.1279,5.1582,5.164,5.2395,5.2851,5.2909,5.3101,5.353,5.403,5.4145,5.4549,5.5247,5.5326,5.5538,5.5837,5.5904,5.6049,5.6271,5.6385,5.6451,5.6535,5.6582,5.6601,5.6621,5.6621,5.6621,5.6621,5.6621,5.6621,5.6621,5.6621,5.6621,5.6621,5.6621,5.6621,5.6621,5.6621,5.6621,5.6621,5.6621,5.6621,5.6621,5.6621,5.6621,5.6621,5.6621,5.6621,5.6621,5.6621,5.6621,5.6894,5.7207,5.748,5.7949,5.9355,6.0058,6.0351,6.0625,6.0703,6.0664,6.084,6.0879,6.1074,6.1328,6.1269,5.0688,5.0688,5.0688,5.0688,5.0688,5.0688,5.0688,5.0688,5.0688,5.0688,5.0688,5.0688,5.0688,5.0688,5.0688,5.0688,5.0688,5.0688,5.0688,5.0688,5.0688,5.0688,5.0688,5.0688,5.0688,5.0688,5.0688,5.0688,5.0688,5.0688,5.0688,5.0688,5.0688,5.0688,5.0688,5.0688,5.0688,5.0688,5.0688,5.0688,5.0688,5.0688,5.0688,5.0688,5.0707,5.0803,5.1221,5.2024,5.2063,5.1568,5.1947,5.2447,5.2524,5.328,5.3741,5.376,5.4049,5.4511,5.4857,5.4991,5.5203,5.56,5.5729,5.5859,5.6007,5.6068,5.6238,5.6433,5.6484,5.6535,5.6582,5.6621,5.6621,5.6621,5.6621,5.6621,5.6621,5.6621,5.6621,5.6621,5.6621,5.6621,5.6621,5.6621,5.6621,5.6621,5.6621,5.6621,5.6621,5.6621,5.6621,5.6621,5.6621,5.6621,5.6621,5.6621,5.6621,5.6621,5.6621,5.6621,5.6933,5.7441,5.8086,5.8691,6.0019,6.0957,6.1113,6.1269,6.1328,6.1406,6.168,6.1699,6.1699,6.1699,6.1699,5.0688,5.0688,5.0688,5.0688,5.0688,5.0688,5.0688,5.0688,5.0688,5.0688,5.0688,5.0688,5.0688,5.0688,5.0688,5.0688,5.0688,5.0688,5.0688,5.0688,5.0688,5.0688,5.0688,5.0688,5.0688,5.0688,5.0688,5.0688,5.0688,5.0688,5.0688,5.0688,5.0688,5.0688,5.0688,5.0688,5.0688,5.0688,5.0688,5.0688,5.0688,5.0688,5.0688,5.0707,5.0933,5.1356,5.2043,5.2794,5.2986,5.2236,5.2928,5.3274,5.3453,5.4164,5.4568,5.4684,5.5112,5.5516,5.5661,5.5591,5.567,5.5759,5.5864,5.6017,5.6172,5.6287,5.6419,5.656,5.6601,5.6601,5.6601,5.6621,5.6621,5.6621,5.6621,5.6621,5.6621,5.6621,5.6621,5.6621,5.6621,5.6621,5.6621,5.6621,5.6621,5.6621,5.6621,5.6621,5.6621,5.6621,5.6621,5.6621,5.6621,5.6621,5.6621,5.6621,5.6621,5.6621,5.6621,5.666,5.6894,5.75,5.8496,5.9433,6.0156,6.0898,6.1504,6.164,6.1699,6.1699,6.1699,6.1699,6.1699,6.1699,6.1699,5.0688,5.0688,5.0688,5.0688,5.0688,5.0688,5.0688,5.0688,5.0688,5.0688,5.0688,5.0688,5.0688,5.0688,5.0688,5.0688,5.0688,5.0688,5.0688,5.0688,5.0688,5.0688,5.0688,5.0688,5.0688,5.0688,5.0688,5.0688,5.0688,5.0688,5.0688,5.0688,5.0688,5.0688,5.0688,5.0688,5.0688,5.0688,5.0688,5.0688,5.0688,5.0707,5.0726,5.0803,5.1375,5.2082,5.2909,5.376,5.4087,5.4049,5.4098,5.4215,5.4362,5.4953,5.5324,5.5387,5.5527,5.5719,5.5712,5.5803,5.5868,5.5889,5.6044,5.6185,5.6331,5.6398,5.648,5.6562,5.6621,5.6621,5.6621,5.6621,5.6621,5.6621,5.6621,5.6621,5.6621,5.6621,5.6621,5.6621,5.6621,5.6621,5.6621,5.6621,5.6621,5.6621,5.6621,5.6621,5.6621,5.6621,5.6621,5.6621,5.6621,5.6621,5.6621,5.6621,5.6621,5.6621,5.6621,5.6621,5.6875,5.7226,5.8086,5.9023,5.9961,6.0683,6.1348,6.1699,6.1699,6.1699,6.1699,6.1699,6.1699,6.1699,6.1699,5.0688,5.0688,5.0688,5.0688,5.0688,5.0688,5.0688,5.0688,5.0688,5.0688,5.0688,5.0688,5.0688,5.0688,5.0688,5.0688,5.0688,5.0688,5.0688,5.0688,5.0688,5.0688,5.0688,5.0688,5.0688,5.0688,5.0688,5.0688,5.0688,5.0688,5.0688,5.0688,5.0688,5.0688,5.0688,5.0688,5.0688,5.0688,5.0688,5.0688,5.0688,5.0707,5.0976,5.1471,5.2414,5.339,5.3818,5.4607,5.4991,5.5081,5.5109,5.5099,5.5089,5.5439,5.5675,5.57,5.5769,5.5784,5.5815,5.5939,5.6041,5.6045,5.621,5.6311,5.6412,5.6453,5.6534,5.6582,5.6621,5.6621,5.6621,5.6621,5.6621,5.6621,5.6621,5.6621,5.6621,5.6621,5.6621,5.6621,5.6621,5.6621,5.6621,5.6621,5.6621,5.6621,5.6621,5.6621,5.6621,5.6621,5.6621,5.6621,5.6621,5.6621,5.6621,5.6621,5.6621,5.6621,5.6621,5.6621,5.6719,5.709,5.7519,5.8476,5.9433,6.0273,6.0898,6.1269,6.164,6.1699,6.1699,6.1699,6.1699,6.1699,6.1699,5.0688,5.0688,5.0688,5.0688,5.0688,5.0688,5.0688,5.0688,5.0688,5.0688,5.0688,5.0688,5.0688,5.0688,5.0688,5.0688,5.0688,5.0688,5.0688,5.0688,5.0688,5.0688,5.0688,5.0688,5.0688,5.0688,5.0688,5.0688,5.0688,5.0688,5.0688,5.0688,5.0688,5.0688,5.0688,5.0688,5.0688,5.0688,5.0688,5.0688,5.0784,5.088,5.1414,5.2549,5.3472,5.4376,5.4705,5.528,5.569,5.5729,5.5849,5.5868,5.5803,5.5774,5.5793,5.5784,5.591,5.5959,5.5985,5.6109,5.6225,5.6227,5.6343,5.6421,5.6458,5.6523,5.6582,5.6601,5.6621,5.6621,5.6621,5.6621,5.6621,5.6621,5.6621,5.6621,5.6621,5.6621,5.6621,5.6621,5.6621,5.6621,5.6621,5.6621,5.6621,5.6621,5.6621,5.6621,5.6621,5.6621,5.6621,5.6621,5.6621,5.6621,5.6621,5.6621,5.6621,5.6621,5.6621,5.6621,5.6621,5.6836,5.7246,5.7969,5.8848,5.9648,6.039,6.0898,6.123,6.1523,6.1699,6.1699,6.1699,6.1699,6.1699,5.0688,5.0688,5.0688,5.0688,5.0688,5.0688,5.0688,5.0688,5.0688,5.0688,5.0688,5.0688,5.0688,5.0688,5.0688,5.0688,5.0688,5.0688,5.0688,5.0688,5.0688,5.0688,5.0688,5.0688,5.0688,5.0688,5.0688,5.0688,5.0688,5.0688,5.0688,5.0688,5.0688,5.0688,5.0688,5.0688,5.0688,5.0688,5.0688,5.0707,5.0938,5.1583,5.2473,5.3696,5.4414,5.4906,5.5383,5.5696,5.5866,5.5887,5.6048,5.6122,5.6113,5.6104,5.6107,5.6084,5.6119,5.6152,5.6175,5.6275,5.6343,5.6389,5.6484,5.6543,5.6562,5.6582,5.6601,5.6621,5.6621,5.6621,5.6621,5.6621,5.6621,5.6621,5.6621,5.6621,5.6621,5.6621,5.6621,5.6621,5.6621,5.6621,5.6621,5.6621,5.6621,5.6621,5.6621,5.6621,5.6621,5.6621,5.6621,5.6621,5.6621,5.6621,5.6621,5.6621,5.6621,5.6621,5.6621,5.6621,5.6621,5.6621,5.7012,5.7598,5.8183,5.8867,5.9609,6.0332,6.0898,6.125,6.1465,6.1699,6.1699,6.1699,6.1699,5.0688,5.0688,5.0688,5.0688,5.0688,5.0688,5.0688,5.0688,5.0688,5.0688,5.0688,5.0688,5.0688,5.0688,5.0688,5.0688,5.0688,5.0688,5.0688,5.0688,5.0688,5.0688,5.0688,5.0688,5.0688,5.0688,5.0688,5.0688,5.0688,5.0688,5.0688,5.0688,5.0688,5.0688,5.0688,5.0688,5.0688,5.0688,5.0707,5.0923,5.1443,5.255,5.3867,5.4415,5.5104,5.5568,5.5839,5.6008,5.6055,5.6087,5.6205,5.6295,5.632,5.6342,5.6337,5.6242,5.6277,5.6307,5.6324,5.6422,5.649,5.6492,5.6562,5.6601,5.6621,5.6601,5.6621,5.6621,5.6621,5.6621,5.6621,5.6621,5.6621,5.6621,5.6621,5.6621,5.6621,5.6621,5.6621,5.6621,5.6621,5.6621,5.6621,5.6621,5.6621,5.6621,5.6621,5.6621,5.6621,5.6621,5.6621,5.6621,5.6621,5.6621,5.6621,5.6621,5.6621,5.6621,5.6621,5.6621,5.6621,5.6621,5.6699,5.7031,5.7617,5.8203,5.8828,5.957,6.0254,6.0976,6.1289,6.1543,6.166,6.1699,6.1699,5.0688,5.0688,5.0688,5.0688,5.0688,5.0688,5.0688,5.0688,5.0688,5.0688,5.0688,5.0688,5.0688,5.0688,5.0688,5.0688,5.0688,5.0688,5.0688,5.0688,5.0688,5.0688,5.0688,5.0688,5.0688,5.0688,5.0688,5.0688,5.0688,5.0688,5.0688,5.0688,5.0688,5.0688,5.0688,5.0688,5.0688,5.0688,5.0707,5.1159,5.2371,5.3789,5.4872,5.5012,5.5804,5.6158,5.6158,5.621,5.6227,5.6264,5.6345,5.6449,5.6456,5.6538,5.6489,5.6337,5.6385,5.6424,5.646,5.6523,5.6582,5.6582,5.6601,5.6621,5.6621,5.6621,5.6621,5.6621,5.6621,5.6621,5.6621,5.6621,5.6621,5.6621,5.6621,5.6621,5.6621,5.6621,5.6621,5.6621,5.6621,5.6621,5.6621,5.6621,5.6621,5.6621,5.6621,5.6621,5.6621,5.6621,5.6621,5.6621,5.6621,5.6621,5.6621,5.6621,5.6621,5.6621,5.6621,5.6621,5.6621,5.6621,5.6719,5.6797,5.7051,5.7637,5.8223,5.8848,5.959,6.0312,6.0976,6.1426,6.1601,6.1699,6.1699,5.0688,5.0688,5.0688,5.0688,5.0688,5.0688,5.0688,5.0688,5.0688,5.0688,5.0688,5.0688,5.0688,5.0688,5.0688,5.0688,5.0688,5.0688,5.0688,5.0688,5.0688,5.0688,5.0688,5.0688,5.0688,5.0688,5.0688,5.0688,5.0688,5.0688,5.0688,5.0688,5.0688,5.0688,5.0688,5.0688,5.0688,5.0688,5.0736,5.1585,5.312,5.4382,5.5247,5.5808,5.6127,5.6249,5.6273,5.6326,5.6376,5.6385,5.649,5.658,5.6601,5.6601,5.6582,5.6561,5.6561,5.6582,5.6562,5.6582,5.6621,5.6621,5.6621,5.6621,5.6621,5.6621,5.6621,5.6621,5.6621,5.6621,5.6621,5.6621,5.6621,5.6621,5.6621,5.6621,5.6621,5.6621,5.6621,5.6621,5.6621,5.6621,5.6621,5.6621,5.6621,5.6621,5.6621,5.6621,5.6621,5.6621,5.6621,5.6621,5.6621,5.6621,5.6621,5.6621,5.6621,5.6621,5.6621,5.6621,5.6621,5.6621,5.6621,5.6719,5.6914,5.7109,5.7656,5.8301,5.8984,5.9668,6.0351,6.1015,6.1601,6.166,6.1699,5.0688,5.0688,5.0688,5.0688,5.0688,5.0688,5.0688,5.0688,5.0688,5.0688,5.0688,5.0688,5.0688,5.0688,5.0688,5.0688,5.0688,5.0688,5.0688,5.0688,5.0688,5.0688,5.0688,5.0688,5.0688,5.0688,5.0688,5.0688,5.0688,5.0688,5.0688,5.0688,5.0688,5.0688,5.0688,5.0688,5.0688,5.0981,5.1689,5.2891,5.4138,5.5183,5.5907,5.628,5.6361,5.6406,5.6426,5.6461,5.6513,5.6515,5.6581,5.6601,5.6621,5.6621,5.6601,5.6601,5.6601,5.6601,5.6601,5.6621,5.6621,5.6621,5.6621,5.6621,5.6621,5.6621,5.6621,5.6621,5.6621,5.6621,5.6621,5.6621,5.6621,5.6621,5.6621,5.6621,5.6621,5.6621,5.6621,5.6621,5.6621,5.6621,5.6621,5.6621,5.6621,5.6621,5.6621,5.6621,5.6621,5.6621,5.6621,5.6621,5.6621,5.6621,5.6621,5.6621,5.6621,5.6621,5.6621,5.6621,5.6621,5.6621,5.6621,5.6621,5.6719,5.6953,5.7226,5.7695,5.834,5.9043,5.9726,6.039,6.1035,6.1621,6.166,5.0688,5.0688,5.0688,5.0688,5.0688,5.0688,5.0688,5.0688,5.0688,5.0688,5.0688,5.0688,5.0688,5.0688,5.0688,5.0688,5.0688,5.0688,5.0688,5.0688,5.0688,5.0688,5.0688,5.0688,5.0688,5.0688,5.0688,5.0688,5.0688,5.0688,5.0688,5.0688,5.0688,5.0688,5.0688,5.0717,5.0794,5.1307,5.2898,5.4077,5.4935,5.5876,5.6292,5.6484,5.6543,5.6621,5.6621,5.6601,5.6601,5.6601,5.6601,5.6621,5.6621,5.6621,5.6621,5.6621,5.6621,5.6621,5.6621,5.6621,5.6621,5.6621,5.6621,5.6621,5.6621,5.6621,5.6621,5.6621,5.6621,5.6621,5.6621,5.6621,5.6621,5.6621,5.6621,5.6621,5.6621,5.6621,5.6621,5.6621,5.6621,5.6621,5.6621,5.6621,5.6621,5.6621,5.6621,5.6621,5.6621,5.6621,5.6621,5.6621,5.6621,5.6621,5.6621,5.6621,5.6621,5.6621,5.6621,5.6621,5.6621,5.6621,5.6621,5.6621,5.6621,5.6699,5.6933,5.7305,5.7695,5.834,5.9004,5.9726,6.041,6.1094,6.164,5.0688,5.0688,5.0688,5.0688,5.0688,5.0688,5.0688,5.0688,5.0688,5.0688,5.0688,5.0688,5.0688,5.0688,5.0688,5.0688,5.0688,5.0688,5.0688,5.0688,5.0688,5.0688,5.0688,5.0688,5.0688,5.0688,5.0688,5.0688,5.0688,5.0688,5.0688,5.0688,5.0688,5.0688,5.0765,5.0875,5.1507,5.2318,5.3903,5.4819,5.5387,5.6035,5.6543,5.6582,5.6601,5.6621,5.6621,5.6621,5.6621,5.6621,5.6621,5.6621,5.6621,5.6621,5.6621,5.6621,5.6621,5.6621,5.6621,5.6621,5.6621,5.6621,5.6621,5.6621,5.6621,5.6621,5.6621,5.6621,5.6621,5.6621,5.6621,5.6621,5.6621,5.6621,5.6621,5.6621,5.6621,5.6621,5.6621,5.6621,5.6621,5.6621,5.6621,5.6621,5.6621,5.6621,5.6621,5.6621,5.6621,5.6621,5.6621,5.6621,5.6621,5.6621,5.6621,5.6621,5.6621,5.6621,5.6621,5.6621,5.6621,5.6621,5.6621,5.6621,5.6621,5.6621,5.6621,5.6933,5.7265,5.7695,5.832,5.914,6.0039,6.0879,6.1367,5.0688,5.0688,5.0688,5.0688,5.0688,5.0688,5.0688,5.0688,5.0688,5.0688,5.0688,5.0688,5.0688,5.0688,5.0688,5.0688,5.0688,5.0688,5.0688,5.0688,5.0688,5.0688,5.0688,5.0688,5.0688,5.0688,5.0688,5.0688,5.0688,5.0688,5.0688,5.0688,5.0702,5.0688,5.0794,5.1374,5.243,5.367,5.4671,5.5319,5.6068,5.6289,5.6621,5.6621,5.6621,5.6621,5.6621,5.6621,5.6621,5.6621,5.6621,5.6621,5.6621,5.6621,5.6621,5.6621,5.6621,5.6621,5.6621,5.6621,5.6621,5.6621,5.6621,5.6621,5.6621,5.6621,5.6621,5.6621,5.6621,5.6621,5.6621,5.6621,5.6621,5.6621,5.6621,5.6621,5.6621,5.6621,5.6621,5.6621,5.6621,5.6621,5.6621,5.6621,5.6621,5.6621,5.6621,5.6621,5.6621,5.6621,5.6621,5.6621,5.6621,5.6621,5.6621,5.6621,5.6621,5.6621,5.6621,5.6621,5.6621,5.6621,5.6621,5.6621,5.6621,5.6621,5.6621,5.6621,5.6836,5.7207,5.7871,5.8672,5.9609,6.0547,6.1035,5.0688,5.0688,5.0688,5.0688,5.0688,5.0688,5.0688,5.0688,5.0688,5.0688,5.0688,5.0688,5.0688,5.0688,5.0688,5.0688,5.0688,5.0688,5.0688,5.0688,5.0688,5.0688,5.0688,5.0688,5.0688,5.0688,5.0688,5.0688,5.0688,5.0688,5.0688,5.0707,5.073,5.0747,5.1041,5.2068,5.3465,5.4718,5.5524,5.5788,5.6523,5.6601,5.6621,5.6621,5.6621,5.6621,5.6621,5.6621,5.6621,5.6621,5.6621,5.6621,5.6621,5.6621,5.6621,5.6621,5.6621,5.6621,5.6621,5.6621,5.6621,5.6621,5.6621,5.6621,5.6621,5.6621,5.6621,5.6621,5.6621,5.6621,5.6621,5.6621,5.6621,5.6621,5.6621,5.6621,5.6621,5.6621,5.6621,5.6621,5.6621,5.6621,5.6621,5.6621,5.6621,5.6621,5.6621,5.6621,5.6621,5.6621,5.6621,5.6621,5.6621,5.6621,5.6621,5.6621,5.6621,5.6621,5.6621,5.6621,5.6621,5.6621,5.6621,5.6621,5.6621,5.6621,5.6621,5.6621,5.6621,5.666,5.7441,5.8301,5.8906,5.9785,6.0566,5.0688,5.0688,5.0688,5.0688,5.0688,5.0688,5.0688,5.0688,5.0688,5.0688,5.0688,5.0688,5.0688,5.0688,5.0688,5.0688,5.0688,5.0688,5.0688,5.0688,5.0688,5.0688,5.0688,5.0688,5.0688,5.0688,5.0688,5.0688,5.0688,5.0688,5.0688,5.0842,5.0983,5.1184,5.1148,5.2829,5.4187,5.512,5.6069,5.6406,5.6562,5.6621,5.6621,5.6621,5.6621,5.6621,5.6621,5.6621,5.6621,5.6621,5.6621,5.6621,5.6621,5.6621,5.6621,5.6621,5.6621,5.6621,5.6621,5.6621,5.6621,5.6621,5.6621,5.6621,5.6621,5.6621,5.6621,5.6621,5.6621,5.6621,5.6621,5.6621,5.6621,5.6621,5.6621,5.6621,5.6621,5.6621,5.6621,5.6621,5.6621,5.6621,5.6621,5.6621,5.6621,5.6621,5.6621,5.6621,5.6621,5.6621,5.6621,5.6621,5.6621,5.6621,5.6621,5.6621,5.6621,5.6621,5.6621,5.6621,5.6621,5.6621,5.6621,5.6621,5.6621,5.6621,5.6621,5.6621,5.6621,5.668,5.7187,5.791,5.8437,5.9004,5.9785,5.0688,5.0688,5.0688,5.0688,5.0688,5.0688,5.0688,5.0688,5.0688,5.0688,5.0688,5.0688,5.0688,5.0688,5.0688,5.0688,5.0688,5.0688,5.0688,5.0688,5.0688,5.0688,5.0688,5.0688,5.0688,5.0688,5.0688,5.0688,5.0688,5.0712,5.076,5.0894,5.1728,5.228,5.2947,5.4128,5.5125,5.5969,5.6445,5.6601,5.6621,5.6621,5.6621,5.6621,5.6621,5.6621,5.6621,5.6621,5.6621,5.6621,5.6621,5.6621,5.6621,5.6621,5.6621,5.6621,5.6621,5.6621,5.6621,5.6621,5.6621,5.6621,5.6621,5.6621,5.6621,5.6621,5.6621,5.6621,5.6621,5.6621,5.6621,5.6621,5.6621,5.6621,5.6621,5.6621,5.6621,5.6621,5.6621,5.6621,5.6621,5.6621,5.6621,5.6621,5.6621,5.6621,5.6621,5.6621,5.6621,5.6621,5.6621,5.6621,5.6621,5.6621,5.6621,5.6621,5.6621,5.6621,5.6621,5.6621,5.6621,5.6621,5.6621,5.6621,5.6621,5.6621,5.6621,5.6621,5.6621,5.6777,5.7109,5.7441,5.791,5.8398,5.8965,5.0688,5.0688,5.0688,5.0688,5.0688,5.0688,5.0688,5.0688,5.0688,5.0688,5.0688,5.0688,5.0688,5.0688,5.0688,5.0688,5.0688,5.0688,5.0688,5.0688,5.0688,5.0688,5.0688,5.0688,5.0688,5.0688,5.0688,5.0688,5.0702,5.0763,5.1076,5.1736,5.2733,5.3622,5.4326,5.4946,5.5577,5.625,5.6621,5.6621,5.6621,5.6621,5.6621,5.6621,5.6621,5.6621,5.6621,5.6621,5.6621,5.6621,5.6621,5.6621,5.6621,5.6621,5.6621,5.6621,5.6621,5.6621,5.6621,5.6621,5.6621,5.6621,5.6621,5.6621,5.6621,5.6621,5.6621,5.6621,5.6621,5.6621,5.6621,5.6621,5.6621,5.6621,5.6621,5.6621,5.6621,5.6621,5.6621,5.6621,5.6621,5.6621,5.6621,5.6621,5.6621,5.6621,5.6621,5.6621,5.6621,5.6621,5.6621,5.6621,5.6621,5.6621,5.6621,5.6621,5.6621,5.6621,5.6621,5.6621,5.6621,5.6621,5.6621,5.6621,5.6621,5.6621,5.6621,5.6621,5.6621,5.6621,5.6719,5.7051,5.7402,5.7851,5.8359,5.0688,5.0688,5.0688,5.0688,5.0688,5.0688,5.0688,5.0688,5.0688,5.0688,5.0688,5.0688,5.0688,5.0688,5.0688,5.0688,5.0688,5.0688,5.0688,5.0688,5.0688,5.0688,5.0688,5.0688,5.0688,5.0688,5.0697,5.0702,5.0736,5.1126,5.1657,5.276,5.4037,5.4809,5.5211,5.5508,5.5957,5.6426,5.6621,5.6621,5.6621,5.6621,5.6621,5.6621,5.6621,5.6621,5.6621,5.6621,5.6621,5.6621,5.6621,5.6621,5.6621,5.6621,5.6621,5.6621,5.6621,5.6621,5.6621,5.6621,5.6621,5.6621,5.6621,5.6621,5.6621,5.6621,5.6621,5.6621,5.6621,5.6621,5.6621,5.6621,5.6621,5.6621,5.6621,5.6621,5.6621,5.6621,5.6621,5.6621,5.6621,5.6621,5.6621,5.6621,5.6621,5.6621,5.6621,5.6621,5.6621,5.6621,5.6621,5.6621,5.6621,5.6621,5.6621,5.6621,5.6621,5.6621,5.6621,5.6621,5.6621,5.6621,5.6621,5.6621,5.6621,5.6621,5.6621,5.6621,5.6621,5.6621,5.6621,5.668,5.7051,5.7363,5.7812,5.0688,5.0688,5.0688,5.0688,5.0688,5.0688,5.0688,5.0688,5.0688,5.0688,5.0688,5.0688,5.0688,5.0688,5.0688,5.0688,5.0688,5.0688,5.0688,5.0688,5.0688,5.0688,5.0688,5.0688,5.0688,5.0697,5.0721,5.0813,5.1103,5.1531,5.2925,5.4345,5.4966,5.5584,5.5976,5.6191,5.6367,5.6504,5.6601,5.6621,5.6621,5.6621,5.6621,5.6621,5.6621,5.6621,5.6621,5.6621,5.6621,5.6621,5.6621,5.6621,5.6621,5.6621,5.6621,5.6621,5.6621,5.6621,5.6621,5.6621,5.6621,5.6621,5.6621,5.6621,5.6621,5.6621,5.6621,5.6621,5.6621,5.6621,5.6621,5.6621,5.6621,5.6621,5.6621,5.6621,5.6621,5.6621,5.6621,5.6621,5.6621,5.6621,5.6621,5.6621,5.6621,5.6621,5.6621,5.6621,5.6621,5.6621,5.6621,5.6621,5.6621,5.6621,5.6621,5.6621,5.6621,5.6621,5.6621,5.6621,5.6621,5.6621,5.6621,5.6621,5.6621,5.6621,5.6621,5.6621,5.6621,5.6621,5.6621,5.6621,5.668,5.7012,5.7324,5.0688,5.0688,5.0688,5.0688,5.0688,5.0688,5.0688,5.0688,5.0688,5.0688,5.0688,5.0688,5.0688,5.0688,5.0688,5.0688,5.0688,5.0688,5.0688,5.0688,5.0688,5.0688,5.0688,5.0702,5.0725,5.0748,5.0861,5.1045,5.1659,5.2881,5.4276,5.4987,5.5508,5.6074,5.6426,5.6504,5.6543,5.6601,5.6621,5.6621,5.6621,5.6621,5.6621,5.6621,5.6621,5.6621,5.6621,5.6621,5.6621,5.6621,5.6621,5.6621,5.6621,5.6621,5.6621,5.6621,5.6621,5.6621,5.6621,5.6621,5.6621,5.6621,5.6621,5.6621,5.6621,5.6621,5.6621,5.6621,5.6621,5.6621,5.6621,5.6621,5.6621,5.6621,5.6621,5.6621,5.6621,5.6621,5.6621,5.6621,5.6621,5.6621,5.6621,5.6621,5.6621,5.6621,5.6621,5.6621,5.6621,5.6621,5.6621,5.6621,5.6621,5.6621,5.6621,5.6621,5.6621,5.6621,5.6621,5.6621,5.6621,5.6621,5.6621,5.6621,5.6621,5.6621,5.6621,5.6621,5.6621,5.6621,5.6621,5.6621,5.6621,5.6699,5.7031,5.0688,5.0688,5.0688,5.0688,5.0688,5.0688,5.0688,5.0688,5.0688,5.0688,5.0688,5.0688,5.0688,5.0688,5.0688,5.0688,5.0688,5.0688,5.0688,5.0688,5.0688,5.0688,5.0688,5.0697,5.0725,5.0827,5.1178,5.1741,5.285,5.3942,5.4873,5.543,5.6094,5.6543,5.6582,5.6621,5.6621,5.6621,5.6621,5.6621,5.6621,5.6621,5.6621,5.6621,5.6621,5.6621,5.6621,5.6621,5.6621,5.6621,5.6621,5.6621,5.6621,5.6621,5.6621,5.6621,5.6621,5.6621,5.6621,5.6621,5.6621,5.6621,5.6621,5.6621,5.6621,5.6621,5.6621,5.6621,5.6621,5.6621,5.6621,5.6621,5.6621,5.6621,5.6621,5.6621,5.6621,5.6621,5.6621,5.6621,5.6621,5.6621,5.6621,5.6621,5.6621,5.6621,5.6621,5.6621,5.6621,5.6621,5.6621,5.6621,5.6621,5.6621,5.6621,5.6621,5.6621,5.6621,5.6621,5.6621,5.6621,5.6621,5.6621,5.6621,5.6621,5.6621,5.6621,5.6621,5.6621,5.6621,5.6621,5.6621,5.6621,5.6621,5.6719,5.0688,5.0688,5.0688,5.0688,5.0688,5.0688,5.0688,5.0688,5.0688,5.0688,5.0688,5.0688,5.0688,5.0688,5.0688,5.0688,5.0688,5.0688,5.0688,5.0688,5.0688,5.0688,5.0688,5.0693,5.0759,5.0977,5.154,5.2736,5.4019,5.4963,5.5625,5.6211,5.6601,5.6601,5.6621,5.6621,5.6621,5.6621,5.6621,5.6621,5.6621,5.6621,5.6621,5.6621,5.6621,5.6621,5.6621,5.6621,5.6621,5.6621,5.6621,5.6621,5.6621,5.6621,5.6621,5.6621,5.6621,5.6621,5.6621,5.6621,5.6621,5.6621,5.6621,5.6621,5.6621,5.6621,5.6621,5.6621,5.6621,5.6621,5.6621,5.6621,5.6621,5.6621,5.6621,5.6621,5.6621,5.6621,5.6621,5.6621,5.6621,5.6621,5.6621,5.6621,5.6621,5.6621,5.6621,5.6621,5.6621,5.6621,5.6621,5.6621,5.6621,5.6621,5.6621,5.6621,5.6621,5.6621,5.6621,5.6621,5.6621,5.6621,5.6621,5.6621,5.6621,5.6621,5.6621,5.6621,5.6621,5.6621,5.6621,5.6621,5.6621,5.6621,5.6621,5.0688,5.0688,5.0688,5.0688,5.0688,5.0688,5.0688,5.0688,5.0688,5.0688,5.0688,5.0688,5.0688,5.0688,5.0688,5.0688,5.0688,5.0688,5.0688,5.0688,5.0688,5.0688,5.0688,5.0755,5.1186,5.1517,5.2918,5.424,5.5176,5.5742,5.623,5.6562,5.6621,5.6621,5.6621,5.6621,5.6621,5.6621,5.6621,5.6621,5.6621,5.6621,5.6621,5.6621,5.6621,5.6621,5.6621,5.6621,5.6621,5.6621,5.6621,5.6621,5.6621,5.6621,5.6621,5.6621,5.6621,5.6621,5.6621,5.6621,5.6621,5.6621,5.6621,5.6621,5.6621,5.6621,5.6621,5.6621,5.6621,5.6621,5.6621,5.6621,5.6621,5.6621,5.6621,5.6621,5.6621,5.6621,5.6621,5.6621,5.6621,5.6621,5.6621,5.6621,5.6621,5.6621,5.6621,5.6621,5.6621,5.6621,5.6621,5.6621,5.6621,5.6621,5.6621,5.6621,5.6621,5.6621,5.6621,5.6621,5.6621,5.6621,5.6621,5.6621,5.6621,5.6621,5.6621,5.6621,5.6621,5.6621,5.6621,5.6621,5.6621,5.6621,5.6621,5.0688,5.0688,5.0688,5.0688,5.0688,5.0688,5.0688,5.0688,5.0688,5.0688,5.0688,5.0688,5.0688,5.0688,5.0688,5.0688,5.0688,5.0688,5.0688,5.0688,5.0688,5.0688,5.0765,5.0904,5.1714,5.2847,5.4195,5.4922,5.5586,5.6094,5.6445,5.6582,5.6621,5.6621,5.6621,5.6621,5.6621,5.6621,5.6621,5.6621,5.6621,5.6621,5.6621,5.6621,5.6621,5.6621,5.6621,5.6621,5.6621,5.6621,5.6621,5.6621,5.6621,5.6621,5.6621,5.6621,5.6621,5.6621,5.6621,5.6621,5.6621,5.6621,5.6621,5.6621,5.6621,5.6621,5.6621,5.6621,5.6621,5.6621,5.6621,5.6621,5.6621,5.6621,5.6621,5.6621,5.6621,5.6621,5.6621,5.6621,5.6621,5.6621,5.6621,5.6621,5.6621,5.6621,5.6621,5.6621,5.6621,5.6621,5.6621,5.6621,5.6621,5.6621,5.6621,5.6621,5.6621,5.6621,5.6621,5.6621,5.6621,5.6621,5.6621,5.6621,5.6621,5.6621,5.6621,5.6621,5.6621,5.6621,5.6621,5.6621,5.6621,5.6621,5.6621,5.0688,5.0688,5.0688,5.0688,5.0688,5.0688,5.0688,5.0688,5.0688,5.0688,5.0688,5.0688,5.0688,5.0688,5.0688,5.0688,5.0688,5.0688,5.0688,5.0688,5.0688,5.0688,5.1039,5.1754,5.2849,5.3973,5.4971,5.5508,5.5976,5.6406,5.6621,5.6621,5.6621,5.6621,5.6621,5.6621,5.6621,5.6621,5.6621,5.6621,5.6621,5.6621,5.6621,5.6621,5.6621,5.6621,5.6621,5.6621,5.6621,5.6621,5.6621,5.6621,5.6621,5.6621,5.6621,5.6621,5.6621,5.6621,5.6621,5.6621,5.6621,5.6621,5.6621,5.6621,5.6621,5.6621,5.6621,5.6621,5.6621,5.6621,5.6621,5.6621,5.6621,5.6621,5.6621,5.6621,5.6621,5.6621,5.6621,5.6621,5.6621,5.6621,5.6621,5.6621,5.6621,5.6621,5.6621,5.6621,5.6621,5.6621,5.6621,5.6621,5.6621,5.6621,5.6621,5.6621,5.6621,5.6621,5.6621,5.6621,5.6621,5.6621,5.6621,5.6621,5.6621,5.6621,5.6621,5.6621,5.6621,5.6621,5.6621,5.6621,5.6621,5.666,5.6699]}]]